<?xml version="1.0" encoding="UTF-8" standalone="no" ?>
<gpx xmlns="http://www.topografix.com/GPX/1/1" xmlns:xsi="http://www.w3.org/2001/XMLSchema-instance" xsi:schemaLocation="http://www.topografix.com/GPX/1/1 http://www.topografix.com/GPX/1/1/gpx.xsd" version="1.1" creator="VisuGPX - https://www.visugpx.com">
  <metadata>
    <name>Forêt de Fontainebleau</name>
    <desc><![CDATA[Parcours principalement en singles techniques. De beaux gaps pour ceux qui osaient.
Les parties de trace gpx un peu brouillon sont les endroits où nous avons répété plusieurs fois ces parties
]]></desc>
  </metadata>
  <trk>
    <name><![CDATA[foret fontainebleau]]></name>
    <cmt><![CDATA[belle sortie technique avec pingouin, pdrouet et closepior]]></cmt>
    <trkseg>
      <trkpt lat="48.41617" lon="2.71819">
        <ele>87.6171875</ele>
        <time>2012-12-02T07:39:28Z</time>
      </trkpt>
      <trkpt lat="48.41617" lon="2.71819">
        <ele>87.6171875</ele>
        <time>2012-12-02T07:39:29Z</time>
      </trkpt>
      <trkpt lat="48.41617" lon="2.71819">
        <ele>88.578735351562</ele>
        <time>2012-12-02T07:39:30Z</time>
      </trkpt>
      <trkpt lat="48.41617" lon="2.71819">
        <ele>88.578735351562</ele>
        <time>2012-12-02T07:39:31Z</time>
      </trkpt>
      <trkpt lat="48.41613" lon="2.71802">
        <ele>88.098022460938</ele>
        <time>2012-12-02T07:39:37Z</time>
      </trkpt>
      <trkpt lat="48.41605" lon="2.71771">
        <ele>88.098022460938</ele>
        <time>2012-12-02T07:39:44Z</time>
      </trkpt>
      <trkpt lat="48.41605" lon="2.71767">
        <ele>87.6171875</ele>
        <time>2012-12-02T07:39:45Z</time>
      </trkpt>
      <trkpt lat="48.41614" lon="2.71756">
        <ele>88.098022460938</ele>
        <time>2012-12-02T07:39:49Z</time>
      </trkpt>
      <trkpt lat="48.41634" lon="2.71744">
        <ele>89.059326171875</ele>
        <time>2012-12-02T07:39:56Z</time>
      </trkpt>
      <trkpt lat="48.41662" lon="2.71726">
        <ele>89.059326171875</ele>
        <time>2012-12-02T07:40:05Z</time>
      </trkpt>
      <trkpt lat="48.41684" lon="2.71714">
        <ele>90.98193359375</ele>
        <time>2012-12-02T07:40:12Z</time>
      </trkpt>
      <trkpt lat="48.41704" lon="2.71707">
        <ele>91.943237304688</ele>
        <time>2012-12-02T07:40:18Z</time>
      </trkpt>
      <trkpt lat="48.41721" lon="2.71702">
        <ele>92.423950195312</ele>
        <time>2012-12-02T07:40:24Z</time>
      </trkpt>
      <trkpt lat="48.41729" lon="2.71701">
        <ele>93.865844726562</ele>
        <time>2012-12-02T07:40:28Z</time>
      </trkpt>
      <trkpt lat="48.41735" lon="2.71693">
        <ele>97.23046875</ele>
        <time>2012-12-02T07:40:34Z</time>
      </trkpt>
      <trkpt lat="48.41737" lon="2.7169">
        <ele>98.19189453125</ele>
        <time>2012-12-02T07:40:36Z</time>
      </trkpt>
      <trkpt lat="48.4174" lon="2.71674">
        <ele>99.6337890625</ele>
        <time>2012-12-02T07:40:42Z</time>
      </trkpt>
      <trkpt lat="48.41738" lon="2.71663">
        <ele>99.6337890625</ele>
        <time>2012-12-02T07:40:47Z</time>
      </trkpt>
      <trkpt lat="48.41735" lon="2.71648">
        <ele>100.11450195312</ele>
        <time>2012-12-02T07:40:53Z</time>
      </trkpt>
      <trkpt lat="48.41734" lon="2.71642">
        <ele>100.11450195312</ele>
        <time>2012-12-02T07:40:55Z</time>
      </trkpt>
      <trkpt lat="48.41736" lon="2.71634">
        <ele>100.11450195312</ele>
        <time>2012-12-02T07:41:01Z</time>
      </trkpt>
      <trkpt lat="48.41738" lon="2.71633">
        <ele>100.59509277344</ele>
        <time>2012-12-02T07:41:03Z</time>
      </trkpt>
      <trkpt lat="48.41743" lon="2.71621">
        <ele>99.6337890625</ele>
        <time>2012-12-02T07:41:09Z</time>
      </trkpt>
      <trkpt lat="48.41744" lon="2.71591">
        <ele>98.672485351562</ele>
        <time>2012-12-02T07:41:15Z</time>
      </trkpt>
      <trkpt lat="48.41741" lon="2.71548">
        <ele>98.19189453125</ele>
        <time>2012-12-02T07:41:20Z</time>
      </trkpt>
      <trkpt lat="48.41743" lon="2.71533">
        <ele>96.749877929688</ele>
        <time>2012-12-02T07:41:22Z</time>
      </trkpt>
      <trkpt lat="48.41747" lon="2.71521">
        <ele>96.269287109375</ele>
        <time>2012-12-02T07:41:24Z</time>
      </trkpt>
      <trkpt lat="48.41753" lon="2.71484">
        <ele>93.385131835938</ele>
        <time>2012-12-02T07:41:30Z</time>
      </trkpt>
      <trkpt lat="48.41755" lon="2.7147">
        <ele>93.865844726562</ele>
        <time>2012-12-02T07:41:32Z</time>
      </trkpt>
      <trkpt lat="48.41758" lon="2.71449">
        <ele>93.385131835938</ele>
        <time>2012-12-02T07:41:35Z</time>
      </trkpt>
      <trkpt lat="48.41763" lon="2.71421">
        <ele>92.904541015625</ele>
        <time>2012-12-02T07:41:40Z</time>
      </trkpt>
      <trkpt lat="48.4177" lon="2.71385">
        <ele>93.385131835938</ele>
        <time>2012-12-02T07:41:46Z</time>
      </trkpt>
      <trkpt lat="48.41777" lon="2.71349">
        <ele>92.904541015625</ele>
        <time>2012-12-02T07:41:52Z</time>
      </trkpt>
      <trkpt lat="48.41782" lon="2.71325">
        <ele>94.346557617188</ele>
        <time>2012-12-02T07:41:56Z</time>
      </trkpt>
      <trkpt lat="48.41783" lon="2.71302">
        <ele>93.865844726562</ele>
        <time>2012-12-02T07:42:01Z</time>
      </trkpt>
      <trkpt lat="48.41786" lon="2.7128">
        <ele>94.346557617188</ele>
        <time>2012-12-02T07:42:05Z</time>
      </trkpt>
      <trkpt lat="48.41793" lon="2.71253">
        <ele>95.307739257812</ele>
        <time>2012-12-02T07:42:10Z</time>
      </trkpt>
      <trkpt lat="48.41798" lon="2.71227">
        <ele>95.307739257812</ele>
        <time>2012-12-02T07:42:14Z</time>
      </trkpt>
      <trkpt lat="48.41804" lon="2.71188">
        <ele>94.8271484375</ele>
        <time>2012-12-02T07:42:20Z</time>
      </trkpt>
      <trkpt lat="48.41807" lon="2.71177">
        <ele>94.8271484375</ele>
        <time>2012-12-02T07:42:22Z</time>
      </trkpt>
      <trkpt lat="48.41814" lon="2.71145">
        <ele>94.346557617188</ele>
        <time>2012-12-02T07:42:27Z</time>
      </trkpt>
      <trkpt lat="48.41814" lon="2.71131">
        <ele>94.8271484375</ele>
        <time>2012-12-02T07:42:29Z</time>
      </trkpt>
      <trkpt lat="48.41816" lon="2.71119">
        <ele>94.346557617188</ele>
        <time>2012-12-02T07:42:31Z</time>
      </trkpt>
      <trkpt lat="48.41829" lon="2.71073">
        <ele>93.865844726562</ele>
        <time>2012-12-02T07:42:39Z</time>
      </trkpt>
      <trkpt lat="48.4184" lon="2.71045">
        <ele>93.385131835938</ele>
        <time>2012-12-02T07:42:44Z</time>
      </trkpt>
      <trkpt lat="48.41851" lon="2.71003">
        <ele>93.385131835938</ele>
        <time>2012-12-02T07:42:51Z</time>
      </trkpt>
      <trkpt lat="48.41858" lon="2.70968">
        <ele>94.346557617188</ele>
        <time>2012-12-02T07:42:57Z</time>
      </trkpt>
      <trkpt lat="48.41859" lon="2.70958">
        <ele>94.346557617188</ele>
        <time>2012-12-02T07:42:59Z</time>
      </trkpt>
      <trkpt lat="48.41866" lon="2.70928">
        <ele>95.307739257812</ele>
        <time>2012-12-02T07:43:06Z</time>
      </trkpt>
      <trkpt lat="48.41868" lon="2.70911">
        <ele>94.8271484375</ele>
        <time>2012-12-02T07:43:11Z</time>
      </trkpt>
      <trkpt lat="48.41876" lon="2.70902">
        <ele>94.8271484375</ele>
        <time>2012-12-02T07:43:17Z</time>
      </trkpt>
      <trkpt lat="48.41887" lon="2.70891">
        <ele>95.307739257812</ele>
        <time>2012-12-02T07:43:23Z</time>
      </trkpt>
      <trkpt lat="48.41891" lon="2.70889">
        <ele>95.307739257812</ele>
        <time>2012-12-02T07:43:25Z</time>
      </trkpt>
      <trkpt lat="48.41901" lon="2.70899">
        <ele>96.269287109375</ele>
        <time>2012-12-02T07:43:31Z</time>
      </trkpt>
      <trkpt lat="48.41904" lon="2.70908">
        <ele>97.23046875</ele>
        <time>2012-12-02T07:43:35Z</time>
      </trkpt>
      <trkpt lat="48.41904" lon="2.7091">
        <ele>97.711181640625</ele>
        <time>2012-12-02T07:43:36Z</time>
      </trkpt>
      <trkpt lat="48.41904" lon="2.70915">
        <ele>98.19189453125</ele>
        <time>2012-12-02T07:43:38Z</time>
      </trkpt>
      <trkpt lat="48.41911" lon="2.70931">
        <ele>100.11450195312</ele>
        <time>2012-12-02T07:43:45Z</time>
      </trkpt>
      <trkpt lat="48.41915" lon="2.70943">
        <ele>101.55639648438</ele>
        <time>2012-12-02T07:43:50Z</time>
      </trkpt>
      <trkpt lat="48.41917" lon="2.7095">
        <ele>102.99829101562</ele>
        <time>2012-12-02T07:43:53Z</time>
      </trkpt>
      <trkpt lat="48.41923" lon="2.70966">
        <ele>104.4404296875</ele>
        <time>2012-12-02T07:43:59Z</time>
      </trkpt>
      <trkpt lat="48.41927" lon="2.70975">
        <ele>105.40173339844</ele>
        <time>2012-12-02T07:44:02Z</time>
      </trkpt>
      <trkpt lat="48.41934" lon="2.70989">
        <ele>107.80505371094</ele>
        <time>2012-12-02T07:44:08Z</time>
      </trkpt>
      <trkpt lat="48.41937" lon="2.70996">
        <ele>108.28564453125</ele>
        <time>2012-12-02T07:44:12Z</time>
      </trkpt>
      <trkpt lat="48.41943" lon="2.71008">
        <ele>109.72766113281</ele>
        <time>2012-12-02T07:44:17Z</time>
      </trkpt>
      <trkpt lat="48.41941" lon="2.71017">
        <ele>111.16955566406</ele>
        <time>2012-12-02T07:44:22Z</time>
      </trkpt>
      <trkpt lat="48.41941" lon="2.71019">
        <ele>110.68884277344</ele>
        <time>2012-12-02T07:44:23Z</time>
      </trkpt>
      <trkpt lat="48.41949" lon="2.71017">
        <ele>111.65026855469</ele>
        <time>2012-12-02T07:44:30Z</time>
      </trkpt>
      <trkpt lat="48.41953" lon="2.71017">
        <ele>111.16955566406</ele>
        <time>2012-12-02T07:44:32Z</time>
      </trkpt>
      <trkpt lat="48.41958" lon="2.7102">
        <ele>112.61157226562</ele>
        <time>2012-12-02T07:44:35Z</time>
      </trkpt>
      <trkpt lat="48.41968" lon="2.71028">
        <ele>114.05358886719</ele>
        <time>2012-12-02T07:44:41Z</time>
      </trkpt>
      <trkpt lat="48.41975" lon="2.71034">
        <ele>115.49560546875</ele>
        <time>2012-12-02T07:44:45Z</time>
      </trkpt>
      <trkpt lat="48.41986" lon="2.71041">
        <ele>116.45678710938</ele>
        <time>2012-12-02T07:44:50Z</time>
      </trkpt>
      <trkpt lat="48.41991" lon="2.71055">
        <ele>118.37939453125</ele>
        <time>2012-12-02T07:44:57Z</time>
      </trkpt>
      <trkpt lat="48.42" lon="2.71065">
        <ele>120.30212402344</ele>
        <time>2012-12-02T07:45:06Z</time>
      </trkpt>
      <trkpt lat="48.42006" lon="2.71073">
        <ele>121.26354980469</ele>
        <time>2012-12-02T07:45:11Z</time>
      </trkpt>
      <trkpt lat="48.42013" lon="2.71078">
        <ele>122.70544433594</ele>
        <time>2012-12-02T07:45:18Z</time>
      </trkpt>
      <trkpt lat="48.42015" lon="2.7108">
        <ele>124.14733886719</ele>
        <time>2012-12-02T07:45:21Z</time>
      </trkpt>
      <trkpt lat="48.42024" lon="2.71083">
        <ele>124.62805175781</ele>
        <time>2012-12-02T07:45:26Z</time>
      </trkpt>
      <trkpt lat="48.42034" lon="2.71089">
        <ele>126.06994628906</ele>
        <time>2012-12-02T07:45:34Z</time>
      </trkpt>
      <trkpt lat="48.4204" lon="2.71097">
        <ele>127.03137207031</ele>
        <time>2012-12-02T07:45:40Z</time>
      </trkpt>
      <trkpt lat="48.42042" lon="2.71099">
        <ele>127.99255371094</ele>
        <time>2012-12-02T07:45:42Z</time>
      </trkpt>
      <trkpt lat="48.42048" lon="2.71106">
        <ele>128.9541015625</ele>
        <time>2012-12-02T07:45:48Z</time>
      </trkpt>
      <trkpt lat="48.42054" lon="2.71112">
        <ele>130.87670898438</ele>
        <time>2012-12-02T07:45:55Z</time>
      </trkpt>
      <trkpt lat="48.42061" lon="2.71117">
        <ele>132.31860351562</ele>
        <time>2012-12-02T07:46:00Z</time>
      </trkpt>
      <trkpt lat="48.42062" lon="2.71118">
        <ele>131.837890625</ele>
        <time>2012-12-02T07:46:01Z</time>
      </trkpt>
      <trkpt lat="48.42067" lon="2.71119">
        <ele>133.76049804688</ele>
        <time>2012-12-02T07:46:07Z</time>
      </trkpt>
      <trkpt lat="48.42065" lon="2.7112">
        <ele>132.31860351562</ele>
        <time>2012-12-02T07:46:10Z</time>
      </trkpt>
      <trkpt lat="48.42064" lon="2.71127">
        <ele>133.76049804688</ele>
        <time>2012-12-02T07:46:16Z</time>
      </trkpt>
      <trkpt lat="48.42065" lon="2.7113">
        <ele>133.76049804688</ele>
        <time>2012-12-02T07:46:18Z</time>
      </trkpt>
      <trkpt lat="48.42067" lon="2.71137">
        <ele>135.68310546875</ele>
        <time>2012-12-02T07:46:23Z</time>
      </trkpt>
      <trkpt lat="48.42072" lon="2.71138">
        <ele>135.68310546875</ele>
        <time>2012-12-02T07:46:29Z</time>
      </trkpt>
      <trkpt lat="48.42073" lon="2.7114">
        <ele>135.68310546875</ele>
        <time>2012-12-02T07:46:34Z</time>
      </trkpt>
      <trkpt lat="48.42074" lon="2.71143">
        <ele>136.64465332031</ele>
        <time>2012-12-02T07:46:40Z</time>
      </trkpt>
      <trkpt lat="48.42075" lon="2.71146">
        <ele>136.64465332031</ele>
        <time>2012-12-02T07:46:46Z</time>
      </trkpt>
      <trkpt lat="48.42076" lon="2.71148">
        <ele>136.16394042969</ele>
        <time>2012-12-02T07:46:48Z</time>
      </trkpt>
      <trkpt lat="48.42085" lon="2.71152">
        <ele>137.12524414062</ele>
        <time>2012-12-02T07:46:55Z</time>
      </trkpt>
      <trkpt lat="48.42093" lon="2.71154">
        <ele>138.56726074219</ele>
        <time>2012-12-02T07:47:03Z</time>
      </trkpt>
      <trkpt lat="48.42096" lon="2.71156">
        <ele>138.08654785156</ele>
        <time>2012-12-02T07:47:06Z</time>
      </trkpt>
      <trkpt lat="48.42101" lon="2.7116">
        <ele>139.0478515625</ele>
        <time>2012-12-02T07:47:10Z</time>
      </trkpt>
      <trkpt lat="48.42107" lon="2.71161">
        <ele>139.0478515625</ele>
        <time>2012-12-02T07:47:15Z</time>
      </trkpt>
      <trkpt lat="48.42108" lon="2.71161">
        <ele>138.56726074219</ele>
        <time>2012-12-02T07:47:21Z</time>
      </trkpt>
      <trkpt lat="48.42107" lon="2.71163">
        <ele>138.56726074219</ele>
        <time>2012-12-02T07:47:29Z</time>
      </trkpt>
      <trkpt lat="48.42111" lon="2.71163">
        <ele>138.56726074219</ele>
        <time>2012-12-02T07:47:42Z</time>
      </trkpt>
      <trkpt lat="48.42111" lon="2.71163">
        <ele>139.0478515625</ele>
        <time>2012-12-02T07:47:54Z</time>
      </trkpt>
      <trkpt lat="48.42112" lon="2.71164">
        <ele>139.0478515625</ele>
        <time>2012-12-02T07:48:00Z</time>
      </trkpt>
      <trkpt lat="48.42115" lon="2.71173">
        <ele>137.12524414062</ele>
        <time>2012-12-02T07:48:04Z</time>
      </trkpt>
      <trkpt lat="48.42122" lon="2.71177">
        <ele>137.12524414062</ele>
        <time>2012-12-02T07:48:10Z</time>
      </trkpt>
      <trkpt lat="48.42126" lon="2.71177">
        <ele>137.60583496094</ele>
        <time>2012-12-02T07:48:12Z</time>
      </trkpt>
      <trkpt lat="48.42136" lon="2.71183">
        <ele>137.60583496094</ele>
        <time>2012-12-02T07:48:19Z</time>
      </trkpt>
      <trkpt lat="48.42143" lon="2.71177">
        <ele>138.08654785156</ele>
        <time>2012-12-02T07:48:23Z</time>
      </trkpt>
      <trkpt lat="48.42149" lon="2.71174">
        <ele>138.56726074219</ele>
        <time>2012-12-02T07:48:28Z</time>
      </trkpt>
      <trkpt lat="48.42153" lon="2.71171">
        <ele>138.56726074219</ele>
        <time>2012-12-02T07:48:33Z</time>
      </trkpt>
      <trkpt lat="48.42154" lon="2.71169">
        <ele>139.52844238281</ele>
        <time>2012-12-02T07:48:38Z</time>
      </trkpt>
      <trkpt lat="48.42156" lon="2.71171">
        <ele>139.0478515625</ele>
        <time>2012-12-02T07:48:44Z</time>
      </trkpt>
      <trkpt lat="48.42156" lon="2.71175">
        <ele>139.52844238281</ele>
        <time>2012-12-02T07:48:49Z</time>
      </trkpt>
      <trkpt lat="48.42157" lon="2.71179">
        <ele>139.52844238281</ele>
        <time>2012-12-02T07:48:53Z</time>
      </trkpt>
      <trkpt lat="48.42157" lon="2.71184">
        <ele>139.52844238281</ele>
        <time>2012-12-02T07:49:00Z</time>
      </trkpt>
      <trkpt lat="48.42157" lon="2.71181">
        <ele>139.52844238281</ele>
        <time>2012-12-02T07:49:07Z</time>
      </trkpt>
      <trkpt lat="48.42157" lon="2.71179">
        <ele>139.52844238281</ele>
        <time>2012-12-02T07:49:14Z</time>
      </trkpt>
      <trkpt lat="48.42157" lon="2.71178">
        <ele>138.56726074219</ele>
        <time>2012-12-02T07:49:21Z</time>
      </trkpt>
      <trkpt lat="48.42157" lon="2.71176">
        <ele>139.0478515625</ele>
        <time>2012-12-02T07:49:27Z</time>
      </trkpt>
      <trkpt lat="48.42157" lon="2.71176">
        <ele>138.56726074219</ele>
        <time>2012-12-02T07:49:37Z</time>
      </trkpt>
      <trkpt lat="48.42157" lon="2.7118">
        <ele>139.0478515625</ele>
        <time>2012-12-02T07:49:42Z</time>
      </trkpt>
      <trkpt lat="48.42157" lon="2.7118">
        <ele>139.0478515625</ele>
        <time>2012-12-02T07:49:47Z</time>
      </trkpt>
      <trkpt lat="48.42158" lon="2.71176">
        <ele>139.0478515625</ele>
        <time>2012-12-02T07:49:54Z</time>
      </trkpt>
      <trkpt lat="48.42165" lon="2.71179">
        <ele>139.0478515625</ele>
        <time>2012-12-02T07:50:06Z</time>
      </trkpt>
      <trkpt lat="48.42167" lon="2.71183">
        <ele>136.16394042969</ele>
        <time>2012-12-02T07:50:10Z</time>
      </trkpt>
      <trkpt lat="48.42169" lon="2.71184">
        <ele>133.76049804688</ele>
        <time>2012-12-02T07:50:13Z</time>
      </trkpt>
      <trkpt lat="48.42173" lon="2.71187">
        <ele>131.837890625</ele>
        <time>2012-12-02T07:50:16Z</time>
      </trkpt>
      <trkpt lat="48.42182" lon="2.71192">
        <ele>131.837890625</ele>
        <time>2012-12-02T07:50:22Z</time>
      </trkpt>
      <trkpt lat="48.42186" lon="2.71195">
        <ele>131.35729980469</ele>
        <time>2012-12-02T07:50:31Z</time>
      </trkpt>
      <trkpt lat="48.42186" lon="2.71196">
        <ele>131.35729980469</ele>
        <time>2012-12-02T07:50:33Z</time>
      </trkpt>
      <trkpt lat="48.42185" lon="2.71194">
        <ele>130.87670898438</ele>
        <time>2012-12-02T07:50:38Z</time>
      </trkpt>
      <trkpt lat="48.42185" lon="2.71189">
        <ele>133.27990722656</ele>
        <time>2012-12-02T07:50:45Z</time>
      </trkpt>
      <trkpt lat="48.42186" lon="2.71189">
        <ele>134.72192382812</ele>
        <time>2012-12-02T07:50:48Z</time>
      </trkpt>
      <trkpt lat="48.42189" lon="2.71192">
        <ele>136.64465332031</ele>
        <time>2012-12-02T07:50:56Z</time>
      </trkpt>
      <trkpt lat="48.42192" lon="2.71196">
        <ele>136.64465332031</ele>
        <time>2012-12-02T07:51:03Z</time>
      </trkpt>
      <trkpt lat="48.42192" lon="2.71196">
        <ele>136.64465332031</ele>
        <time>2012-12-02T07:51:09Z</time>
      </trkpt>
      <trkpt lat="48.42193" lon="2.71197">
        <ele>136.16394042969</ele>
        <time>2012-12-02T07:51:14Z</time>
      </trkpt>
      <trkpt lat="48.42196" lon="2.71198">
        <ele>136.64465332031</ele>
        <time>2012-12-02T07:51:17Z</time>
      </trkpt>
      <trkpt lat="48.42208" lon="2.71197">
        <ele>138.08654785156</ele>
        <time>2012-12-02T07:51:24Z</time>
      </trkpt>
      <trkpt lat="48.42219" lon="2.71199">
        <ele>140.97045898438</ele>
        <time>2012-12-02T07:51:31Z</time>
      </trkpt>
      <trkpt lat="48.42221" lon="2.71197">
        <ele>140.48986816406</ele>
        <time>2012-12-02T07:51:37Z</time>
      </trkpt>
      <trkpt lat="48.42224" lon="2.71195">
        <ele>139.0478515625</ele>
        <time>2012-12-02T07:51:40Z</time>
      </trkpt>
      <trkpt lat="48.42228" lon="2.71195">
        <ele>137.12524414062</ele>
        <time>2012-12-02T07:51:45Z</time>
      </trkpt>
      <trkpt lat="48.42231" lon="2.71196">
        <ele>137.60583496094</ele>
        <time>2012-12-02T07:51:49Z</time>
      </trkpt>
      <trkpt lat="48.42239" lon="2.71188">
        <ele>136.16394042969</ele>
        <time>2012-12-02T07:51:56Z</time>
      </trkpt>
      <trkpt lat="48.42244" lon="2.71182">
        <ele>136.16394042969</ele>
        <time>2012-12-02T07:52:01Z</time>
      </trkpt>
      <trkpt lat="48.42245" lon="2.7118">
        <ele>136.16394042969</ele>
        <time>2012-12-02T07:52:02Z</time>
      </trkpt>
      <trkpt lat="48.4225" lon="2.71179">
        <ele>133.76049804688</ele>
        <time>2012-12-02T07:52:05Z</time>
      </trkpt>
      <trkpt lat="48.42256" lon="2.71183">
        <ele>131.837890625</ele>
        <time>2012-12-02T07:52:07Z</time>
      </trkpt>
      <trkpt lat="48.4226" lon="2.71188">
        <ele>131.35729980469</ele>
        <time>2012-12-02T07:52:09Z</time>
      </trkpt>
      <trkpt lat="48.4227" lon="2.71188">
        <ele>127.99255371094</ele>
        <time>2012-12-02T07:52:13Z</time>
      </trkpt>
      <trkpt lat="48.42274" lon="2.71187">
        <ele>127.03137207031</ele>
        <time>2012-12-02T07:52:15Z</time>
      </trkpt>
      <trkpt lat="48.42283" lon="2.71185">
        <ele>125.58935546875</ele>
        <time>2012-12-02T07:52:20Z</time>
      </trkpt>
      <trkpt lat="48.42295" lon="2.71193">
        <ele>126.06994628906</ele>
        <time>2012-12-02T07:52:26Z</time>
      </trkpt>
      <trkpt lat="48.42307" lon="2.71193">
        <ele>127.99255371094</ele>
        <time>2012-12-02T07:52:31Z</time>
      </trkpt>
      <trkpt lat="48.42312" lon="2.71189">
        <ele>128.9541015625</ele>
        <time>2012-12-02T07:52:36Z</time>
      </trkpt>
      <trkpt lat="48.42316" lon="2.7119">
        <ele>129.91528320312</ele>
        <time>2012-12-02T07:52:42Z</time>
      </trkpt>
      <trkpt lat="48.42318" lon="2.71189">
        <ele>130.39599609375</ele>
        <time>2012-12-02T07:52:49Z</time>
      </trkpt>
      <trkpt lat="48.42321" lon="2.71191">
        <ele>131.837890625</ele>
        <time>2012-12-02T07:52:55Z</time>
      </trkpt>
      <trkpt lat="48.42324" lon="2.71194">
        <ele>133.76049804688</ele>
        <time>2012-12-02T07:53:01Z</time>
      </trkpt>
      <trkpt lat="48.4233" lon="2.71198">
        <ele>134.72192382812</ele>
        <time>2012-12-02T07:53:09Z</time>
      </trkpt>
      <trkpt lat="48.4233" lon="2.712">
        <ele>135.68310546875</ele>
        <time>2012-12-02T07:53:15Z</time>
      </trkpt>
      <trkpt lat="48.42332" lon="2.71203">
        <ele>135.20251464844</ele>
        <time>2012-12-02T07:53:36Z</time>
      </trkpt>
      <trkpt lat="48.42333" lon="2.712">
        <ele>134.72192382812</ele>
        <time>2012-12-02T07:53:45Z</time>
      </trkpt>
      <trkpt lat="48.4234" lon="2.71193">
        <ele>135.20251464844</ele>
        <time>2012-12-02T07:53:50Z</time>
      </trkpt>
      <trkpt lat="48.42349" lon="2.71181">
        <ele>134.72192382812</ele>
        <time>2012-12-02T07:53:57Z</time>
      </trkpt>
      <trkpt lat="48.4236" lon="2.71182">
        <ele>137.12524414062</ele>
        <time>2012-12-02T07:54:03Z</time>
      </trkpt>
      <trkpt lat="48.42364" lon="2.71176">
        <ele>137.60583496094</ele>
        <time>2012-12-02T07:54:07Z</time>
      </trkpt>
      <trkpt lat="48.42374" lon="2.71165">
        <ele>137.12524414062</ele>
        <time>2012-12-02T07:54:14Z</time>
      </trkpt>
      <trkpt lat="48.42384" lon="2.71159">
        <ele>137.12524414062</ele>
        <time>2012-12-02T07:54:19Z</time>
      </trkpt>
      <trkpt lat="48.42393" lon="2.71144">
        <ele>138.56726074219</ele>
        <time>2012-12-02T07:54:25Z</time>
      </trkpt>
      <trkpt lat="48.42398" lon="2.71127">
        <ele>139.52844238281</ele>
        <time>2012-12-02T07:54:30Z</time>
      </trkpt>
      <trkpt lat="48.42407" lon="2.71113">
        <ele>139.52844238281</ele>
        <time>2012-12-02T07:54:36Z</time>
      </trkpt>
      <trkpt lat="48.42414" lon="2.71098">
        <ele>138.56726074219</ele>
        <time>2012-12-02T07:54:40Z</time>
      </trkpt>
      <trkpt lat="48.42429" lon="2.71087">
        <ele>139.52844238281</ele>
        <time>2012-12-02T07:54:46Z</time>
      </trkpt>
      <trkpt lat="48.42435" lon="2.71081">
        <ele>139.52844238281</ele>
        <time>2012-12-02T07:54:49Z</time>
      </trkpt>
      <trkpt lat="48.42442" lon="2.71063">
        <ele>140.00915527344</ele>
        <time>2012-12-02T07:54:56Z</time>
      </trkpt>
      <trkpt lat="48.42445" lon="2.71057">
        <ele>140.48986816406</ele>
        <time>2012-12-02T07:55:00Z</time>
      </trkpt>
      <trkpt lat="48.42445" lon="2.71052">
        <ele>140.48986816406</ele>
        <time>2012-12-02T07:55:05Z</time>
      </trkpt>
      <trkpt lat="48.42443" lon="2.71045">
        <ele>140.97045898438</ele>
        <time>2012-12-02T07:55:09Z</time>
      </trkpt>
      <trkpt lat="48.4245" lon="2.71032">
        <ele>141.93176269531</ele>
        <time>2012-12-02T07:55:15Z</time>
      </trkpt>
      <trkpt lat="48.42455" lon="2.71023">
        <ele>144.81579589844</ele>
        <time>2012-12-02T07:55:20Z</time>
      </trkpt>
      <trkpt lat="48.42467" lon="2.70998">
        <ele>145.29638671875</ele>
        <time>2012-12-02T07:55:28Z</time>
      </trkpt>
      <trkpt lat="48.42477" lon="2.70986">
        <ele>145.29638671875</ele>
        <time>2012-12-02T07:55:33Z</time>
      </trkpt>
      <trkpt lat="48.42487" lon="2.70986">
        <ele>145.29638671875</ele>
        <time>2012-12-02T07:55:37Z</time>
      </trkpt>
      <trkpt lat="48.42496" lon="2.70996">
        <ele>146.73840332031</ele>
        <time>2012-12-02T07:55:43Z</time>
      </trkpt>
      <trkpt lat="48.42498" lon="2.70999">
        <ele>145.77709960938</ele>
        <time>2012-12-02T07:55:44Z</time>
      </trkpt>
      <trkpt lat="48.42507" lon="2.71003">
        <ele>141.93176269531</ele>
        <time>2012-12-02T07:55:48Z</time>
      </trkpt>
      <trkpt lat="48.42517" lon="2.71012">
        <ele>140.00915527344</ele>
        <time>2012-12-02T07:55:52Z</time>
      </trkpt>
      <trkpt lat="48.4253" lon="2.71024">
        <ele>139.52844238281</ele>
        <time>2012-12-02T07:55:57Z</time>
      </trkpt>
      <trkpt lat="48.42542" lon="2.71052">
        <ele>140.00915527344</ele>
        <time>2012-12-02T07:56:03Z</time>
      </trkpt>
      <trkpt lat="48.42543" lon="2.71077">
        <ele>140.48986816406</ele>
        <time>2012-12-02T07:56:08Z</time>
      </trkpt>
      <trkpt lat="48.42545" lon="2.71096">
        <ele>140.00915527344</ele>
        <time>2012-12-02T07:56:12Z</time>
      </trkpt>
      <trkpt lat="48.42536" lon="2.71113">
        <ele>140.48986816406</ele>
        <time>2012-12-02T07:56:17Z</time>
      </trkpt>
      <trkpt lat="48.42535" lon="2.71134">
        <ele>140.00915527344</ele>
        <time>2012-12-02T07:56:21Z</time>
      </trkpt>
      <trkpt lat="48.42538" lon="2.71156">
        <ele>140.97045898438</ele>
        <time>2012-12-02T07:56:26Z</time>
      </trkpt>
      <trkpt lat="48.42538" lon="2.71183">
        <ele>140.00915527344</ele>
        <time>2012-12-02T07:56:31Z</time>
      </trkpt>
      <trkpt lat="48.42535" lon="2.71201">
        <ele>141.93176269531</ele>
        <time>2012-12-02T07:56:35Z</time>
      </trkpt>
      <trkpt lat="48.4253" lon="2.71212">
        <ele>143.37365722656</ele>
        <time>2012-12-02T07:56:38Z</time>
      </trkpt>
      <trkpt lat="48.42527" lon="2.71226">
        <ele>143.85437011719</ele>
        <time>2012-12-02T07:56:43Z</time>
      </trkpt>
      <trkpt lat="48.42525" lon="2.71245">
        <ele>141.93176269531</ele>
        <time>2012-12-02T07:56:48Z</time>
      </trkpt>
      <trkpt lat="48.42519" lon="2.71264">
        <ele>145.29638671875</ele>
        <time>2012-12-02T07:56:52Z</time>
      </trkpt>
      <trkpt lat="48.42511" lon="2.7128">
        <ele>146.2578125</ele>
        <time>2012-12-02T07:56:57Z</time>
      </trkpt>
      <trkpt lat="48.42505" lon="2.71301">
        <ele>146.2578125</ele>
        <time>2012-12-02T07:57:02Z</time>
      </trkpt>
      <trkpt lat="48.425" lon="2.71313">
        <ele>144.81579589844</ele>
        <time>2012-12-02T07:57:05Z</time>
      </trkpt>
      <trkpt lat="48.42496" lon="2.71338">
        <ele>146.2578125</ele>
        <time>2012-12-02T07:57:09Z</time>
      </trkpt>
      <trkpt lat="48.42496" lon="2.71342">
        <ele>146.2578125</ele>
        <time>2012-12-02T07:57:12Z</time>
      </trkpt>
      <trkpt lat="48.42497" lon="2.71348">
        <ele>146.73840332031</ele>
        <time>2012-12-02T07:57:19Z</time>
      </trkpt>
      <trkpt lat="48.42492" lon="2.71351">
        <ele>147.69970703125</ele>
        <time>2012-12-02T07:57:23Z</time>
      </trkpt>
      <trkpt lat="48.4248" lon="2.71349">
        <ele>147.69970703125</ele>
        <time>2012-12-02T07:57:29Z</time>
      </trkpt>
      <trkpt lat="48.42478" lon="2.71349">
        <ele>148.18041992188</ele>
        <time>2012-12-02T07:57:30Z</time>
      </trkpt>
      <trkpt lat="48.42465" lon="2.7137">
        <ele>144.81579589844</ele>
        <time>2012-12-02T07:57:35Z</time>
      </trkpt>
      <trkpt lat="48.42463" lon="2.71376">
        <ele>147.21899414062</ele>
        <time>2012-12-02T07:57:37Z</time>
      </trkpt>
      <trkpt lat="48.42463" lon="2.7138">
        <ele>148.66101074219</ele>
        <time>2012-12-02T07:57:44Z</time>
      </trkpt>
      <trkpt lat="48.42463" lon="2.71382">
        <ele>148.66101074219</ele>
        <time>2012-12-02T07:57:45Z</time>
      </trkpt>
      <trkpt lat="48.42458" lon="2.71388">
        <ele>148.66101074219</ele>
        <time>2012-12-02T07:57:51Z</time>
      </trkpt>
      <trkpt lat="48.42456" lon="2.71389">
        <ele>149.62231445312</ele>
        <time>2012-12-02T07:57:54Z</time>
      </trkpt>
      <trkpt lat="48.4245" lon="2.71395">
        <ele>149.62231445312</ele>
        <time>2012-12-02T07:58:01Z</time>
      </trkpt>
      <trkpt lat="48.42451" lon="2.71398">
        <ele>149.62231445312</ele>
        <time>2012-12-02T07:58:11Z</time>
      </trkpt>
      <trkpt lat="48.42447" lon="2.714">
        <ele>150.10302734375</ele>
        <time>2012-12-02T07:58:31Z</time>
      </trkpt>
      <trkpt lat="48.42436" lon="2.71404">
        <ele>150.10302734375</ele>
        <time>2012-12-02T07:58:37Z</time>
      </trkpt>
      <trkpt lat="48.42434" lon="2.71402">
        <ele>149.62231445312</ele>
        <time>2012-12-02T07:58:41Z</time>
      </trkpt>
      <trkpt lat="48.42432" lon="2.71401">
        <ele>150.10302734375</ele>
        <time>2012-12-02T07:58:42Z</time>
      </trkpt>
      <trkpt lat="48.42428" lon="2.71401">
        <ele>148.18041992188</ele>
        <time>2012-12-02T07:58:44Z</time>
      </trkpt>
      <trkpt lat="48.42419" lon="2.71409">
        <ele>149.62231445312</ele>
        <time>2012-12-02T07:58:47Z</time>
      </trkpt>
      <trkpt lat="48.42416" lon="2.71411">
        <ele>149.62231445312</ele>
        <time>2012-12-02T07:58:48Z</time>
      </trkpt>
      <trkpt lat="48.42409" lon="2.71427">
        <ele>150.10302734375</ele>
        <time>2012-12-02T07:58:53Z</time>
      </trkpt>
      <trkpt lat="48.42416" lon="2.71433">
        <ele>150.10302734375</ele>
        <time>2012-12-02T07:58:59Z</time>
      </trkpt>
      <trkpt lat="48.42418" lon="2.71437">
        <ele>150.58361816406</ele>
        <time>2012-12-02T07:59:05Z</time>
      </trkpt>
      <trkpt lat="48.42416" lon="2.71441">
        <ele>150.10302734375</ele>
        <time>2012-12-02T07:59:12Z</time>
      </trkpt>
      <trkpt lat="48.42413" lon="2.7145">
        <ele>146.73840332031</ele>
        <time>2012-12-02T07:59:15Z</time>
      </trkpt>
      <trkpt lat="48.42412" lon="2.71455">
        <ele>146.2578125</ele>
        <time>2012-12-02T07:59:16Z</time>
      </trkpt>
      <trkpt lat="48.42406" lon="2.71469">
        <ele>143.85437011719</ele>
        <time>2012-12-02T07:59:19Z</time>
      </trkpt>
      <trkpt lat="48.42404" lon="2.71493">
        <ele>142.89306640625</ele>
        <time>2012-12-02T07:59:22Z</time>
      </trkpt>
      <trkpt lat="48.42399" lon="2.71516">
        <ele>144.81579589844</ele>
        <time>2012-12-02T07:59:26Z</time>
      </trkpt>
      <trkpt lat="48.42398" lon="2.71516">
        <ele>144.81579589844</ele>
        <time>2012-12-02T07:59:30Z</time>
      </trkpt>
      <trkpt lat="48.42399" lon="2.71515">
        <ele>145.77709960938</ele>
        <time>2012-12-02T07:59:36Z</time>
      </trkpt>
      <trkpt lat="48.42399" lon="2.71517">
        <ele>146.73840332031</ele>
        <time>2012-12-02T07:59:43Z</time>
      </trkpt>
      <trkpt lat="48.424" lon="2.71521">
        <ele>147.21899414062</ele>
        <time>2012-12-02T07:59:49Z</time>
      </trkpt>
      <trkpt lat="48.42402" lon="2.7152">
        <ele>147.21899414062</ele>
        <time>2012-12-02T08:00:04Z</time>
      </trkpt>
      <trkpt lat="48.42401" lon="2.71523">
        <ele>147.21899414062</ele>
        <time>2012-12-02T08:00:31Z</time>
      </trkpt>
      <trkpt lat="48.42401" lon="2.71523">
        <ele>147.21899414062</ele>
        <time>2012-12-02T08:00:33Z</time>
      </trkpt>
      <trkpt lat="48.42408" lon="2.71535">
        <ele>147.21899414062</ele>
        <time>2012-12-02T08:00:39Z</time>
      </trkpt>
      <trkpt lat="48.42413" lon="2.71532">
        <ele>146.73840332031</ele>
        <time>2012-12-02T08:00:43Z</time>
      </trkpt>
      <trkpt lat="48.42416" lon="2.71517">
        <ele>143.85437011719</ele>
        <time>2012-12-02T08:00:47Z</time>
      </trkpt>
      <trkpt lat="48.4241" lon="2.71503">
        <ele>143.37365722656</ele>
        <time>2012-12-02T08:00:50Z</time>
      </trkpt>
      <trkpt lat="48.42408" lon="2.71498">
        <ele>143.37365722656</ele>
        <time>2012-12-02T08:00:51Z</time>
      </trkpt>
      <trkpt lat="48.42403" lon="2.71475">
        <ele>143.37365722656</ele>
        <time>2012-12-02T08:00:57Z</time>
      </trkpt>
      <trkpt lat="48.42397" lon="2.71466">
        <ele>143.37365722656</ele>
        <time>2012-12-02T08:01:01Z</time>
      </trkpt>
      <trkpt lat="48.42402" lon="2.71468">
        <ele>143.37365722656</ele>
        <time>2012-12-02T08:01:04Z</time>
      </trkpt>
      <trkpt lat="48.42406" lon="2.71473">
        <ele>143.37365722656</ele>
        <time>2012-12-02T08:01:07Z</time>
      </trkpt>
      <trkpt lat="48.4241" lon="2.71495">
        <ele>142.89306640625</ele>
        <time>2012-12-02T08:01:11Z</time>
      </trkpt>
      <trkpt lat="48.42406" lon="2.71517">
        <ele>146.73840332031</ele>
        <time>2012-12-02T08:01:14Z</time>
      </trkpt>
      <trkpt lat="48.42405" lon="2.71522">
        <ele>145.77709960938</ele>
        <time>2012-12-02T08:01:15Z</time>
      </trkpt>
      <trkpt lat="48.42403" lon="2.71523">
        <ele>145.77709960938</ele>
        <time>2012-12-02T08:01:18Z</time>
      </trkpt>
      <trkpt lat="48.42402" lon="2.71526">
        <ele>147.21899414062</ele>
        <time>2012-12-02T08:01:25Z</time>
      </trkpt>
      <trkpt lat="48.42402" lon="2.7153">
        <ele>146.73840332031</ele>
        <time>2012-12-02T08:01:32Z</time>
      </trkpt>
      <trkpt lat="48.42408" lon="2.71536">
        <ele>146.2578125</ele>
        <time>2012-12-02T08:01:37Z</time>
      </trkpt>
      <trkpt lat="48.42413" lon="2.71532">
        <ele>145.77709960938</ele>
        <time>2012-12-02T08:01:39Z</time>
      </trkpt>
      <trkpt lat="48.42419" lon="2.71522">
        <ele>144.33520507812</ele>
        <time>2012-12-02T08:01:42Z</time>
      </trkpt>
      <trkpt lat="48.42416" lon="2.71504">
        <ele>142.89306640625</ele>
        <time>2012-12-02T08:01:46Z</time>
      </trkpt>
      <trkpt lat="48.42413" lon="2.71487">
        <ele>144.33520507812</ele>
        <time>2012-12-02T08:01:49Z</time>
      </trkpt>
      <trkpt lat="48.42403" lon="2.71468">
        <ele>143.37365722656</ele>
        <time>2012-12-02T08:01:55Z</time>
      </trkpt>
      <trkpt lat="48.42405" lon="2.71469">
        <ele>143.37365722656</ele>
        <time>2012-12-02T08:01:57Z</time>
      </trkpt>
      <trkpt lat="48.4241" lon="2.71476">
        <ele>143.85437011719</ele>
        <time>2012-12-02T08:02:00Z</time>
      </trkpt>
      <trkpt lat="48.42411" lon="2.71482">
        <ele>143.85437011719</ele>
        <time>2012-12-02T08:02:03Z</time>
      </trkpt>
      <trkpt lat="48.42411" lon="2.7149">
        <ele>143.85437011719</ele>
        <time>2012-12-02T08:02:07Z</time>
      </trkpt>
      <trkpt lat="48.42411" lon="2.71505">
        <ele>142.89306640625</ele>
        <time>2012-12-02T08:02:12Z</time>
      </trkpt>
      <trkpt lat="48.42413" lon="2.71509">
        <ele>143.37365722656</ele>
        <time>2012-12-02T08:02:14Z</time>
      </trkpt>
      <trkpt lat="48.42414" lon="2.71512">
        <ele>143.37365722656</ele>
        <time>2012-12-02T08:02:16Z</time>
      </trkpt>
      <trkpt lat="48.42417" lon="2.71517">
        <ele>143.85437011719</ele>
        <time>2012-12-02T08:02:21Z</time>
      </trkpt>
      <trkpt lat="48.42411" lon="2.71508">
        <ele>144.33520507812</ele>
        <time>2012-12-02T08:02:26Z</time>
      </trkpt>
      <trkpt lat="48.4241" lon="2.7149">
        <ele>143.85437011719</ele>
        <time>2012-12-02T08:02:30Z</time>
      </trkpt>
      <trkpt lat="48.42407" lon="2.71472">
        <ele>143.85437011719</ele>
        <time>2012-12-02T08:02:34Z</time>
      </trkpt>
      <trkpt lat="48.42402" lon="2.71472">
        <ele>143.37365722656</ele>
        <time>2012-12-02T08:02:37Z</time>
      </trkpt>
      <trkpt lat="48.42404" lon="2.71478">
        <ele>143.37365722656</ele>
        <time>2012-12-02T08:02:40Z</time>
      </trkpt>
      <trkpt lat="48.42406" lon="2.71482">
        <ele>143.85437011719</ele>
        <time>2012-12-02T08:02:41Z</time>
      </trkpt>
      <trkpt lat="48.42409" lon="2.71492">
        <ele>142.89306640625</ele>
        <time>2012-12-02T08:02:43Z</time>
      </trkpt>
      <trkpt lat="48.42406" lon="2.71515">
        <ele>146.2578125</ele>
        <time>2012-12-02T08:02:46Z</time>
      </trkpt>
      <trkpt lat="48.42402" lon="2.7152">
        <ele>146.2578125</ele>
        <time>2012-12-02T08:02:49Z</time>
      </trkpt>
      <trkpt lat="48.42407" lon="2.71511">
        <ele>145.29638671875</ele>
        <time>2012-12-02T08:02:59Z</time>
      </trkpt>
      <trkpt lat="48.42406" lon="2.71513">
        <ele>146.2578125</ele>
        <time>2012-12-02T08:03:06Z</time>
      </trkpt>
      <trkpt lat="48.42405" lon="2.71514">
        <ele>147.21899414062</ele>
        <time>2012-12-02T08:03:11Z</time>
      </trkpt>
      <trkpt lat="48.42403" lon="2.71519">
        <ele>147.69970703125</ele>
        <time>2012-12-02T08:03:17Z</time>
      </trkpt>
      <trkpt lat="48.42403" lon="2.71522">
        <ele>147.69970703125</ele>
        <time>2012-12-02T08:03:26Z</time>
      </trkpt>
      <trkpt lat="48.4241" lon="2.71525">
        <ele>147.21899414062</ele>
        <time>2012-12-02T08:03:46Z</time>
      </trkpt>
      <trkpt lat="48.4241" lon="2.71531">
        <ele>147.69970703125</ele>
        <time>2012-12-02T08:03:56Z</time>
      </trkpt>
      <trkpt lat="48.42412" lon="2.71535">
        <ele>147.21899414062</ele>
        <time>2012-12-02T08:04:00Z</time>
      </trkpt>
      <trkpt lat="48.42422" lon="2.71544">
        <ele>147.69970703125</ele>
        <time>2012-12-02T08:04:07Z</time>
      </trkpt>
      <trkpt lat="48.42428" lon="2.71556">
        <ele>148.18041992188</ele>
        <time>2012-12-02T08:04:14Z</time>
      </trkpt>
      <trkpt lat="48.42429" lon="2.71577">
        <ele>147.69970703125</ele>
        <time>2012-12-02T08:04:20Z</time>
      </trkpt>
      <trkpt lat="48.4243" lon="2.71587">
        <ele>148.18041992188</ele>
        <time>2012-12-02T08:04:22Z</time>
      </trkpt>
      <trkpt lat="48.42422" lon="2.7161">
        <ele>147.69970703125</ele>
        <time>2012-12-02T08:04:27Z</time>
      </trkpt>
      <trkpt lat="48.42408" lon="2.71634">
        <ele>147.69970703125</ele>
        <time>2012-12-02T08:04:31Z</time>
      </trkpt>
      <trkpt lat="48.42399" lon="2.71645">
        <ele>147.21899414062</ele>
        <time>2012-12-02T08:04:33Z</time>
      </trkpt>
      <trkpt lat="48.42387" lon="2.71644">
        <ele>147.21899414062</ele>
        <time>2012-12-02T08:04:37Z</time>
      </trkpt>
      <trkpt lat="48.42372" lon="2.71636">
        <ele>146.73840332031</ele>
        <time>2012-12-02T08:04:40Z</time>
      </trkpt>
      <trkpt lat="48.42367" lon="2.71633">
        <ele>146.2578125</ele>
        <time>2012-12-02T08:04:41Z</time>
      </trkpt>
      <trkpt lat="48.42326" lon="2.71605">
        <ele>146.73840332031</ele>
        <time>2012-12-02T08:04:49Z</time>
      </trkpt>
      <trkpt lat="48.42305" lon="2.71596">
        <ele>146.2578125</ele>
        <time>2012-12-02T08:04:53Z</time>
      </trkpt>
      <trkpt lat="48.42283" lon="2.71586">
        <ele>146.73840332031</ele>
        <time>2012-12-02T08:04:57Z</time>
      </trkpt>
      <trkpt lat="48.42263" lon="2.71575">
        <ele>146.2578125</ele>
        <time>2012-12-02T08:05:01Z</time>
      </trkpt>
      <trkpt lat="48.42235" lon="2.71565">
        <ele>145.77709960938</ele>
        <time>2012-12-02T08:05:07Z</time>
      </trkpt>
      <trkpt lat="48.42224" lon="2.7156">
        <ele>145.29638671875</ele>
        <time>2012-12-02T08:05:09Z</time>
      </trkpt>
      <trkpt lat="48.42209" lon="2.71548">
        <ele>145.29638671875</ele>
        <time>2012-12-02T08:05:12Z</time>
      </trkpt>
      <trkpt lat="48.42183" lon="2.7152">
        <ele>144.81579589844</ele>
        <time>2012-12-02T08:05:18Z</time>
      </trkpt>
      <trkpt lat="48.42171" lon="2.71506">
        <ele>145.77709960938</ele>
        <time>2012-12-02T08:05:21Z</time>
      </trkpt>
      <trkpt lat="48.42159" lon="2.71483">
        <ele>144.81579589844</ele>
        <time>2012-12-02T08:05:26Z</time>
      </trkpt>
      <trkpt lat="48.42155" lon="2.71479">
        <ele>144.33520507812</ele>
        <time>2012-12-02T08:05:27Z</time>
      </trkpt>
      <trkpt lat="48.42147" lon="2.71471">
        <ele>143.85437011719</ele>
        <time>2012-12-02T08:05:29Z</time>
      </trkpt>
      <trkpt lat="48.42128" lon="2.71458">
        <ele>144.33520507812</ele>
        <time>2012-12-02T08:05:33Z</time>
      </trkpt>
      <trkpt lat="48.42108" lon="2.71441">
        <ele>145.29638671875</ele>
        <time>2012-12-02T08:05:39Z</time>
      </trkpt>
      <trkpt lat="48.42108" lon="2.71427">
        <ele>145.29638671875</ele>
        <time>2012-12-02T08:05:43Z</time>
      </trkpt>
      <trkpt lat="48.42102" lon="2.71406">
        <ele>145.29638671875</ele>
        <time>2012-12-02T08:05:48Z</time>
      </trkpt>
      <trkpt lat="48.42094" lon="2.714">
        <ele>144.33520507812</ele>
        <time>2012-12-02T08:05:51Z</time>
      </trkpt>
      <trkpt lat="48.42091" lon="2.71401">
        <ele>144.33520507812</ele>
        <time>2012-12-02T08:05:52Z</time>
      </trkpt>
      <trkpt lat="48.4208" lon="2.71416">
        <ele>143.85437011719</ele>
        <time>2012-12-02T08:05:57Z</time>
      </trkpt>
      <trkpt lat="48.42072" lon="2.71434">
        <ele>144.33520507812</ele>
        <time>2012-12-02T08:06:02Z</time>
      </trkpt>
      <trkpt lat="48.42063" lon="2.71455">
        <ele>143.85437011719</ele>
        <time>2012-12-02T08:06:06Z</time>
      </trkpt>
      <trkpt lat="48.42055" lon="2.71476">
        <ele>143.37365722656</ele>
        <time>2012-12-02T08:06:10Z</time>
      </trkpt>
      <trkpt lat="48.42046" lon="2.71496">
        <ele>143.85437011719</ele>
        <time>2012-12-02T08:06:14Z</time>
      </trkpt>
      <trkpt lat="48.42031" lon="2.715">
        <ele>143.85437011719</ele>
        <time>2012-12-02T08:06:18Z</time>
      </trkpt>
      <trkpt lat="48.42027" lon="2.71499">
        <ele>143.37365722656</ele>
        <time>2012-12-02T08:06:19Z</time>
      </trkpt>
      <trkpt lat="48.41988" lon="2.7148">
        <ele>141.93176269531</ele>
        <time>2012-12-02T08:06:28Z</time>
      </trkpt>
      <trkpt lat="48.41974" lon="2.71474">
        <ele>141.45104980469</ele>
        <time>2012-12-02T08:06:33Z</time>
      </trkpt>
      <trkpt lat="48.41967" lon="2.71473">
        <ele>141.93176269531</ele>
        <time>2012-12-02T08:06:37Z</time>
      </trkpt>
      <trkpt lat="48.41966" lon="2.71472">
        <ele>141.45104980469</ele>
        <time>2012-12-02T08:06:48Z</time>
      </trkpt>
      <trkpt lat="48.41965" lon="2.7147">
        <ele>140.97045898438</ele>
        <time>2012-12-02T08:07:11Z</time>
      </trkpt>
      <trkpt lat="48.41975" lon="2.71471">
        <ele>141.93176269531</ele>
        <time>2012-12-02T08:08:34Z</time>
      </trkpt>
      <trkpt lat="48.41976" lon="2.71471">
        <ele>141.45104980469</ele>
        <time>2012-12-02T08:08:35Z</time>
      </trkpt>
      <trkpt lat="48.4198" lon="2.71483">
        <ele>141.45104980469</ele>
        <time>2012-12-02T08:08:41Z</time>
      </trkpt>
      <trkpt lat="48.41979" lon="2.71493">
        <ele>141.93176269531</ele>
        <time>2012-12-02T08:08:44Z</time>
      </trkpt>
      <trkpt lat="48.41982" lon="2.71506">
        <ele>140.97045898438</ele>
        <time>2012-12-02T08:08:47Z</time>
      </trkpt>
      <trkpt lat="48.41996" lon="2.71522">
        <ele>140.48986816406</ele>
        <time>2012-12-02T08:08:52Z</time>
      </trkpt>
      <trkpt lat="48.42007" lon="2.71522">
        <ele>141.45104980469</ele>
        <time>2012-12-02T08:08:55Z</time>
      </trkpt>
      <trkpt lat="48.4203" lon="2.71529">
        <ele>140.97045898438</ele>
        <time>2012-12-02T08:09:01Z</time>
      </trkpt>
      <trkpt lat="48.42039" lon="2.71535">
        <ele>141.93176269531</ele>
        <time>2012-12-02T08:09:05Z</time>
      </trkpt>
      <trkpt lat="48.42046" lon="2.71546">
        <ele>143.37365722656</ele>
        <time>2012-12-02T08:09:10Z</time>
      </trkpt>
      <trkpt lat="48.42059" lon="2.71561">
        <ele>143.37365722656</ele>
        <time>2012-12-02T08:09:16Z</time>
      </trkpt>
      <trkpt lat="48.42073" lon="2.71573">
        <ele>142.89306640625</ele>
        <time>2012-12-02T08:09:21Z</time>
      </trkpt>
      <trkpt lat="48.42084" lon="2.71569">
        <ele>143.85437011719</ele>
        <time>2012-12-02T08:09:26Z</time>
      </trkpt>
      <trkpt lat="48.42085" lon="2.71567">
        <ele>143.85437011719</ele>
        <time>2012-12-02T08:09:27Z</time>
      </trkpt>
      <trkpt lat="48.42095" lon="2.71575">
        <ele>143.37365722656</ele>
        <time>2012-12-02T08:09:31Z</time>
      </trkpt>
      <trkpt lat="48.42099" lon="2.71589">
        <ele>143.37365722656</ele>
        <time>2012-12-02T08:09:34Z</time>
      </trkpt>
      <trkpt lat="48.4211" lon="2.7162">
        <ele>142.41247558594</ele>
        <time>2012-12-02T08:09:41Z</time>
      </trkpt>
      <trkpt lat="48.4211" lon="2.71642">
        <ele>141.45104980469</ele>
        <time>2012-12-02T08:09:46Z</time>
      </trkpt>
      <trkpt lat="48.42109" lon="2.71648">
        <ele>140.48986816406</ele>
        <time>2012-12-02T08:09:51Z</time>
      </trkpt>
      <trkpt lat="48.42109" lon="2.71649">
        <ele>141.45104980469</ele>
        <time>2012-12-02T08:09:56Z</time>
      </trkpt>
      <trkpt lat="48.42109" lon="2.71651">
        <ele>141.45104980469</ele>
        <time>2012-12-02T08:09:58Z</time>
      </trkpt>
      <trkpt lat="48.42107" lon="2.71657">
        <ele>142.41247558594</ele>
        <time>2012-12-02T08:10:02Z</time>
      </trkpt>
      <trkpt lat="48.42107" lon="2.71662">
        <ele>142.41247558594</ele>
        <time>2012-12-02T08:10:08Z</time>
      </trkpt>
      <trkpt lat="48.42107" lon="2.71663">
        <ele>142.89306640625</ele>
        <time>2012-12-02T08:10:09Z</time>
      </trkpt>
      <trkpt lat="48.42107" lon="2.71667">
        <ele>142.89306640625</ele>
        <time>2012-12-02T08:10:11Z</time>
      </trkpt>
      <trkpt lat="48.42106" lon="2.71681">
        <ele>143.37365722656</ele>
        <time>2012-12-02T08:10:18Z</time>
      </trkpt>
      <trkpt lat="48.42101" lon="2.71697">
        <ele>144.33520507812</ele>
        <time>2012-12-02T08:10:24Z</time>
      </trkpt>
      <trkpt lat="48.42098" lon="2.71714">
        <ele>142.89306640625</ele>
        <time>2012-12-02T08:10:28Z</time>
      </trkpt>
      <trkpt lat="48.4209" lon="2.71734">
        <ele>142.89306640625</ele>
        <time>2012-12-02T08:10:31Z</time>
      </trkpt>
      <trkpt lat="48.42083" lon="2.71748">
        <ele>142.41247558594</ele>
        <time>2012-12-02T08:10:33Z</time>
      </trkpt>
      <trkpt lat="48.42078" lon="2.71784">
        <ele>141.45104980469</ele>
        <time>2012-12-02T08:10:38Z</time>
      </trkpt>
      <trkpt lat="48.42078" lon="2.71796">
        <ele>140.97045898438</ele>
        <time>2012-12-02T08:10:40Z</time>
      </trkpt>
      <trkpt lat="48.4207" lon="2.71822">
        <ele>140.97045898438</ele>
        <time>2012-12-02T08:10:45Z</time>
      </trkpt>
      <trkpt lat="48.4206" lon="2.71838">
        <ele>140.97045898438</ele>
        <time>2012-12-02T08:10:49Z</time>
      </trkpt>
      <trkpt lat="48.42057" lon="2.71855">
        <ele>140.48986816406</ele>
        <time>2012-12-02T08:10:52Z</time>
      </trkpt>
      <trkpt lat="48.42061" lon="2.71905">
        <ele>141.45104980469</ele>
        <time>2012-12-02T08:10:59Z</time>
      </trkpt>
      <trkpt lat="48.4206" lon="2.71926">
        <ele>141.45104980469</ele>
        <time>2012-12-02T08:11:03Z</time>
      </trkpt>
      <trkpt lat="48.42059" lon="2.7194">
        <ele>140.48986816406</ele>
        <time>2012-12-02T08:11:07Z</time>
      </trkpt>
      <trkpt lat="48.42053" lon="2.71946">
        <ele>140.00915527344</ele>
        <time>2012-12-02T08:11:13Z</time>
      </trkpt>
      <trkpt lat="48.42046" lon="2.71947">
        <ele>140.00915527344</ele>
        <time>2012-12-02T08:11:17Z</time>
      </trkpt>
      <trkpt lat="48.42045" lon="2.71957">
        <ele>138.56726074219</ele>
        <time>2012-12-02T08:11:21Z</time>
      </trkpt>
      <trkpt lat="48.42053" lon="2.71978">
        <ele>138.08654785156</ele>
        <time>2012-12-02T08:11:28Z</time>
      </trkpt>
      <trkpt lat="48.42059" lon="2.71989">
        <ele>137.12524414062</ele>
        <time>2012-12-02T08:11:32Z</time>
      </trkpt>
      <trkpt lat="48.42067" lon="2.72001">
        <ele>136.64465332031</ele>
        <time>2012-12-02T08:11:36Z</time>
      </trkpt>
      <trkpt lat="48.42082" lon="2.72012">
        <ele>134.2412109375</ele>
        <time>2012-12-02T08:11:42Z</time>
      </trkpt>
      <trkpt lat="48.42093" lon="2.72012">
        <ele>135.68310546875</ele>
        <time>2012-12-02T08:11:46Z</time>
      </trkpt>
      <trkpt lat="48.42104" lon="2.72017">
        <ele>134.72192382812</ele>
        <time>2012-12-02T08:11:50Z</time>
      </trkpt>
      <trkpt lat="48.42119" lon="2.72022">
        <ele>134.2412109375</ele>
        <time>2012-12-02T08:11:55Z</time>
      </trkpt>
      <trkpt lat="48.42126" lon="2.72011">
        <ele>134.72192382812</ele>
        <time>2012-12-02T08:12:00Z</time>
      </trkpt>
      <trkpt lat="48.42133" lon="2.72003">
        <ele>135.20251464844</ele>
        <time>2012-12-02T08:12:05Z</time>
      </trkpt>
      <trkpt lat="48.42139" lon="2.71997">
        <ele>136.16394042969</ele>
        <time>2012-12-02T08:12:10Z</time>
      </trkpt>
      <trkpt lat="48.42146" lon="2.71988">
        <ele>135.68310546875</ele>
        <time>2012-12-02T08:12:15Z</time>
      </trkpt>
      <trkpt lat="48.42152" lon="2.71981">
        <ele>137.12524414062</ele>
        <time>2012-12-02T08:12:20Z</time>
      </trkpt>
      <trkpt lat="48.42159" lon="2.71981">
        <ele>136.16394042969</ele>
        <time>2012-12-02T08:12:25Z</time>
      </trkpt>
      <trkpt lat="48.4217" lon="2.71989">
        <ele>137.12524414062</ele>
        <time>2012-12-02T08:12:32Z</time>
      </trkpt>
      <trkpt lat="48.42176" lon="2.72">
        <ele>138.08654785156</ele>
        <time>2012-12-02T08:12:38Z</time>
      </trkpt>
      <trkpt lat="48.4218" lon="2.72003">
        <ele>137.12524414062</ele>
        <time>2012-12-02T08:12:44Z</time>
      </trkpt>
      <trkpt lat="48.42181" lon="2.72003">
        <ele>138.08654785156</ele>
        <time>2012-12-02T08:12:45Z</time>
      </trkpt>
      <trkpt lat="48.42189" lon="2.72008">
        <ele>136.64465332031</ele>
        <time>2012-12-02T08:12:51Z</time>
      </trkpt>
      <trkpt lat="48.42191" lon="2.72007">
        <ele>136.16394042969</ele>
        <time>2012-12-02T08:12:52Z</time>
      </trkpt>
      <trkpt lat="48.42203" lon="2.72">
        <ele>135.68310546875</ele>
        <time>2012-12-02T08:12:57Z</time>
      </trkpt>
      <trkpt lat="48.42213" lon="2.71992">
        <ele>135.20251464844</ele>
        <time>2012-12-02T08:13:02Z</time>
      </trkpt>
      <trkpt lat="48.42215" lon="2.71989">
        <ele>135.20251464844</ele>
        <time>2012-12-02T08:13:03Z</time>
      </trkpt>
      <trkpt lat="48.42224" lon="2.71974">
        <ele>134.72192382812</ele>
        <time>2012-12-02T08:13:08Z</time>
      </trkpt>
      <trkpt lat="48.42236" lon="2.71965">
        <ele>135.20251464844</ele>
        <time>2012-12-02T08:13:13Z</time>
      </trkpt>
      <trkpt lat="48.42244" lon="2.71964">
        <ele>135.20251464844</ele>
        <time>2012-12-02T08:13:21Z</time>
      </trkpt>
      <trkpt lat="48.42249" lon="2.71959">
        <ele>135.20251464844</ele>
        <time>2012-12-02T08:13:50Z</time>
      </trkpt>
      <trkpt lat="48.42253" lon="2.71949">
        <ele>135.68310546875</ele>
        <time>2012-12-02T08:13:57Z</time>
      </trkpt>
      <trkpt lat="48.42253" lon="2.71946">
        <ele>135.68310546875</ele>
        <time>2012-12-02T08:13:58Z</time>
      </trkpt>
      <trkpt lat="48.42251" lon="2.71943">
        <ele>135.20251464844</ele>
        <time>2012-12-02T08:14:03Z</time>
      </trkpt>
      <trkpt lat="48.42251" lon="2.71942">
        <ele>135.20251464844</ele>
        <time>2012-12-02T08:14:17Z</time>
      </trkpt>
      <trkpt lat="48.42252" lon="2.71941">
        <ele>135.68310546875</ele>
        <time>2012-12-02T08:14:30Z</time>
      </trkpt>
      <trkpt lat="48.42251" lon="2.71936">
        <ele>135.68310546875</ele>
        <time>2012-12-02T08:14:38Z</time>
      </trkpt>
      <trkpt lat="48.4225" lon="2.71932">
        <ele>136.16394042969</ele>
        <time>2012-12-02T08:14:41Z</time>
      </trkpt>
      <trkpt lat="48.42255" lon="2.71923">
        <ele>137.12524414062</ele>
        <time>2012-12-02T08:14:47Z</time>
      </trkpt>
      <trkpt lat="48.42265" lon="2.71912">
        <ele>137.60583496094</ele>
        <time>2012-12-02T08:14:53Z</time>
      </trkpt>
      <trkpt lat="48.42277" lon="2.71895">
        <ele>138.56726074219</ele>
        <time>2012-12-02T08:14:59Z</time>
      </trkpt>
      <trkpt lat="48.42278" lon="2.71888">
        <ele>139.0478515625</ele>
        <time>2012-12-02T08:15:01Z</time>
      </trkpt>
      <trkpt lat="48.42286" lon="2.71883">
        <ele>138.08654785156</ele>
        <time>2012-12-02T08:15:05Z</time>
      </trkpt>
      <trkpt lat="48.423" lon="2.71884">
        <ele>136.64465332031</ele>
        <time>2012-12-02T08:15:09Z</time>
      </trkpt>
      <trkpt lat="48.42303" lon="2.71885">
        <ele>137.60583496094</ele>
        <time>2012-12-02T08:15:10Z</time>
      </trkpt>
      <trkpt lat="48.42318" lon="2.71893">
        <ele>137.60583496094</ele>
        <time>2012-12-02T08:15:14Z</time>
      </trkpt>
      <trkpt lat="48.42341" lon="2.71902">
        <ele>138.56726074219</ele>
        <time>2012-12-02T08:15:19Z</time>
      </trkpt>
      <trkpt lat="48.42354" lon="2.71918">
        <ele>139.0478515625</ele>
        <time>2012-12-02T08:15:23Z</time>
      </trkpt>
      <trkpt lat="48.42368" lon="2.71927">
        <ele>139.0478515625</ele>
        <time>2012-12-02T08:15:28Z</time>
      </trkpt>
      <trkpt lat="48.42379" lon="2.71928">
        <ele>139.52844238281</ele>
        <time>2012-12-02T08:15:32Z</time>
      </trkpt>
      <trkpt lat="48.42388" lon="2.7194">
        <ele>139.52844238281</ele>
        <time>2012-12-02T08:15:35Z</time>
      </trkpt>
      <trkpt lat="48.42397" lon="2.71951">
        <ele>139.0478515625</ele>
        <time>2012-12-02T08:15:38Z</time>
      </trkpt>
      <trkpt lat="48.42415" lon="2.71962">
        <ele>137.60583496094</ele>
        <time>2012-12-02T08:15:42Z</time>
      </trkpt>
      <trkpt lat="48.42427" lon="2.71963">
        <ele>136.16394042969</ele>
        <time>2012-12-02T08:15:45Z</time>
      </trkpt>
      <trkpt lat="48.42437" lon="2.71967">
        <ele>135.20251464844</ele>
        <time>2012-12-02T08:15:48Z</time>
      </trkpt>
      <trkpt lat="48.4244" lon="2.71987">
        <ele>133.27990722656</ele>
        <time>2012-12-02T08:15:51Z</time>
      </trkpt>
      <trkpt lat="48.42446" lon="2.72022">
        <ele>133.76049804688</ele>
        <time>2012-12-02T08:15:56Z</time>
      </trkpt>
      <trkpt lat="48.42448" lon="2.72051">
        <ele>133.76049804688</ele>
        <time>2012-12-02T08:16:00Z</time>
      </trkpt>
      <trkpt lat="48.42458" lon="2.72082">
        <ele>131.837890625</ele>
        <time>2012-12-02T08:16:04Z</time>
      </trkpt>
      <trkpt lat="48.42461" lon="2.72103">
        <ele>132.31860351562</ele>
        <time>2012-12-02T08:16:06Z</time>
      </trkpt>
      <trkpt lat="48.42478" lon="2.72133">
        <ele>133.76049804688</ele>
        <time>2012-12-02T08:16:11Z</time>
      </trkpt>
      <trkpt lat="48.42487" lon="2.7213">
        <ele>133.76049804688</ele>
        <time>2012-12-02T08:16:13Z</time>
      </trkpt>
      <trkpt lat="48.42511" lon="2.72115">
        <ele>135.20251464844</ele>
        <time>2012-12-02T08:16:19Z</time>
      </trkpt>
      <trkpt lat="48.42514" lon="2.72115">
        <ele>135.20251464844</ele>
        <time>2012-12-02T08:16:20Z</time>
      </trkpt>
      <trkpt lat="48.42526" lon="2.7212">
        <ele>136.64465332031</ele>
        <time>2012-12-02T08:16:26Z</time>
      </trkpt>
      <trkpt lat="48.42533" lon="2.72118">
        <ele>135.68310546875</ele>
        <time>2012-12-02T08:16:31Z</time>
      </trkpt>
      <trkpt lat="48.42535" lon="2.72114">
        <ele>136.64465332031</ele>
        <time>2012-12-02T08:16:37Z</time>
      </trkpt>
      <trkpt lat="48.42538" lon="2.72111">
        <ele>136.64465332031</ele>
        <time>2012-12-02T08:16:42Z</time>
      </trkpt>
      <trkpt lat="48.42539" lon="2.72108">
        <ele>136.16394042969</ele>
        <time>2012-12-02T08:16:54Z</time>
      </trkpt>
      <trkpt lat="48.42539" lon="2.72107">
        <ele>136.16394042969</ele>
        <time>2012-12-02T08:16:55Z</time>
      </trkpt>
      <trkpt lat="48.42541" lon="2.721">
        <ele>136.16394042969</ele>
        <time>2012-12-02T08:17:00Z</time>
      </trkpt>
      <trkpt lat="48.42544" lon="2.72095">
        <ele>136.64465332031</ele>
        <time>2012-12-02T08:17:04Z</time>
      </trkpt>
      <trkpt lat="48.42554" lon="2.72086">
        <ele>135.68310546875</ele>
        <time>2012-12-02T08:17:10Z</time>
      </trkpt>
      <trkpt lat="48.42556" lon="2.72085">
        <ele>135.68310546875</ele>
        <time>2012-12-02T08:17:11Z</time>
      </trkpt>
      <trkpt lat="48.4257" lon="2.72087">
        <ele>136.16394042969</ele>
        <time>2012-12-02T08:17:18Z</time>
      </trkpt>
      <trkpt lat="48.42578" lon="2.72086">
        <ele>134.72192382812</ele>
        <time>2012-12-02T08:17:21Z</time>
      </trkpt>
      <trkpt lat="48.42593" lon="2.72084">
        <ele>137.12524414062</ele>
        <time>2012-12-02T08:17:26Z</time>
      </trkpt>
      <trkpt lat="48.42595" lon="2.72084">
        <ele>136.64465332031</ele>
        <time>2012-12-02T08:17:27Z</time>
      </trkpt>
      <trkpt lat="48.42608" lon="2.72097">
        <ele>134.72192382812</ele>
        <time>2012-12-02T08:17:32Z</time>
      </trkpt>
      <trkpt lat="48.42619" lon="2.72095">
        <ele>135.68310546875</ele>
        <time>2012-12-02T08:17:37Z</time>
      </trkpt>
      <trkpt lat="48.42621" lon="2.72093">
        <ele>135.20251464844</ele>
        <time>2012-12-02T08:17:38Z</time>
      </trkpt>
      <trkpt lat="48.4263" lon="2.72084">
        <ele>135.20251464844</ele>
        <time>2012-12-02T08:17:43Z</time>
      </trkpt>
      <trkpt lat="48.42634" lon="2.72071">
        <ele>133.76049804688</ele>
        <time>2012-12-02T08:17:47Z</time>
      </trkpt>
      <trkpt lat="48.42643" lon="2.72049">
        <ele>134.72192382812</ele>
        <time>2012-12-02T08:17:53Z</time>
      </trkpt>
      <trkpt lat="48.42647" lon="2.72034">
        <ele>135.20251464844</ele>
        <time>2012-12-02T08:17:58Z</time>
      </trkpt>
      <trkpt lat="48.42648" lon="2.72029">
        <ele>134.72192382812</ele>
        <time>2012-12-02T08:17:59Z</time>
      </trkpt>
      <trkpt lat="48.42648" lon="2.72021">
        <ele>136.16394042969</ele>
        <time>2012-12-02T08:18:02Z</time>
      </trkpt>
      <trkpt lat="48.42655" lon="2.72012">
        <ele>137.12524414062</ele>
        <time>2012-12-02T08:18:08Z</time>
      </trkpt>
      <trkpt lat="48.42659" lon="2.71999">
        <ele>138.56726074219</ele>
        <time>2012-12-02T08:18:13Z</time>
      </trkpt>
      <trkpt lat="48.42663" lon="2.71985">
        <ele>139.52844238281</ele>
        <time>2012-12-02T08:18:18Z</time>
      </trkpt>
      <trkpt lat="48.42665" lon="2.71983">
        <ele>140.00915527344</ele>
        <time>2012-12-02T08:18:20Z</time>
      </trkpt>
      <trkpt lat="48.42675" lon="2.71986">
        <ele>140.00915527344</ele>
        <time>2012-12-02T08:18:26Z</time>
      </trkpt>
      <trkpt lat="48.42676" lon="2.71989">
        <ele>139.0478515625</ele>
        <time>2012-12-02T08:18:31Z</time>
      </trkpt>
      <trkpt lat="48.4268" lon="2.71992">
        <ele>138.56726074219</ele>
        <time>2012-12-02T08:18:35Z</time>
      </trkpt>
      <trkpt lat="48.42697" lon="2.71991">
        <ele>138.08654785156</ele>
        <time>2012-12-02T08:18:42Z</time>
      </trkpt>
      <trkpt lat="48.42709" lon="2.72001">
        <ele>139.52844238281</ele>
        <time>2012-12-02T08:18:47Z</time>
      </trkpt>
      <trkpt lat="48.42722" lon="2.72003">
        <ele>139.0478515625</ele>
        <time>2012-12-02T08:18:51Z</time>
      </trkpt>
      <trkpt lat="48.42738" lon="2.71997">
        <ele>137.60583496094</ele>
        <time>2012-12-02T08:18:55Z</time>
      </trkpt>
      <trkpt lat="48.42756" lon="2.71997">
        <ele>135.20251464844</ele>
        <time>2012-12-02T08:19:00Z</time>
      </trkpt>
      <trkpt lat="48.42758" lon="2.71999">
        <ele>135.20251464844</ele>
        <time>2012-12-02T08:19:01Z</time>
      </trkpt>
      <trkpt lat="48.42764" lon="2.72009">
        <ele>135.68310546875</ele>
        <time>2012-12-02T08:19:04Z</time>
      </trkpt>
      <trkpt lat="48.42767" lon="2.72037">
        <ele>133.76049804688</ele>
        <time>2012-12-02T08:19:10Z</time>
      </trkpt>
      <trkpt lat="48.42766" lon="2.72055">
        <ele>130.87670898438</ele>
        <time>2012-12-02T08:19:13Z</time>
      </trkpt>
      <trkpt lat="48.42765" lon="2.72063">
        <ele>131.35729980469</ele>
        <time>2012-12-02T08:19:14Z</time>
      </trkpt>
      <trkpt lat="48.42764" lon="2.72071">
        <ele>131.35729980469</ele>
        <time>2012-12-02T08:19:15Z</time>
      </trkpt>
      <trkpt lat="48.42765" lon="2.7211">
        <ele>129.91528320312</ele>
        <time>2012-12-02T08:19:20Z</time>
      </trkpt>
      <trkpt lat="48.42766" lon="2.7212">
        <ele>129.43469238281</ele>
        <time>2012-12-02T08:19:22Z</time>
      </trkpt>
      <trkpt lat="48.42773" lon="2.72116">
        <ele>127.51196289062</ele>
        <time>2012-12-02T08:19:26Z</time>
      </trkpt>
      <trkpt lat="48.42783" lon="2.72083">
        <ele>125.58935546875</ele>
        <time>2012-12-02T08:19:32Z</time>
      </trkpt>
      <trkpt lat="48.42787" lon="2.72068">
        <ele>124.62805175781</ele>
        <time>2012-12-02T08:19:34Z</time>
      </trkpt>
      <trkpt lat="48.42793" lon="2.72047">
        <ele>124.14733886719</ele>
        <time>2012-12-02T08:19:37Z</time>
      </trkpt>
      <trkpt lat="48.42807" lon="2.72029">
        <ele>121.26354980469</ele>
        <time>2012-12-02T08:19:42Z</time>
      </trkpt>
      <trkpt lat="48.42808" lon="2.72033">
        <ele>121.26354980469</ele>
        <time>2012-12-02T08:19:43Z</time>
      </trkpt>
      <trkpt lat="48.42811" lon="2.72042">
        <ele>120.78283691406</ele>
        <time>2012-12-02T08:19:45Z</time>
      </trkpt>
      <trkpt lat="48.42818" lon="2.72063">
        <ele>118.86010742188</ele>
        <time>2012-12-02T08:19:48Z</time>
      </trkpt>
      <trkpt lat="48.42822" lon="2.72072">
        <ele>118.86010742188</ele>
        <time>2012-12-02T08:19:49Z</time>
      </trkpt>
      <trkpt lat="48.42834" lon="2.72106">
        <ele>120.30212402344</ele>
        <time>2012-12-02T08:19:53Z</time>
      </trkpt>
      <trkpt lat="48.42843" lon="2.72137">
        <ele>118.86010742188</ele>
        <time>2012-12-02T08:19:57Z</time>
      </trkpt>
      <trkpt lat="48.42855" lon="2.72181">
        <ele>119.3408203125</ele>
        <time>2012-12-02T08:20:03Z</time>
      </trkpt>
      <trkpt lat="48.42858" lon="2.72193">
        <ele>119.3408203125</ele>
        <time>2012-12-02T08:20:05Z</time>
      </trkpt>
      <trkpt lat="48.42866" lon="2.7223">
        <ele>116.9375</ele>
        <time>2012-12-02T08:20:10Z</time>
      </trkpt>
      <trkpt lat="48.4287" lon="2.72256">
        <ele>116.45678710938</ele>
        <time>2012-12-02T08:20:13Z</time>
      </trkpt>
      <trkpt lat="48.42881" lon="2.7231">
        <ele>114.5341796875</ele>
        <time>2012-12-02T08:20:19Z</time>
      </trkpt>
      <trkpt lat="48.4289" lon="2.72354">
        <ele>114.5341796875</ele>
        <time>2012-12-02T08:20:24Z</time>
      </trkpt>
      <trkpt lat="48.42895" lon="2.72371">
        <ele>114.5341796875</ele>
        <time>2012-12-02T08:20:26Z</time>
      </trkpt>
      <trkpt lat="48.42902" lon="2.724">
        <ele>114.05358886719</ele>
        <time>2012-12-02T08:20:30Z</time>
      </trkpt>
      <trkpt lat="48.42912" lon="2.72421">
        <ele>114.5341796875</ele>
        <time>2012-12-02T08:20:33Z</time>
      </trkpt>
      <trkpt lat="48.42923" lon="2.72453">
        <ele>114.05358886719</ele>
        <time>2012-12-02T08:20:37Z</time>
      </trkpt>
      <trkpt lat="48.42936" lon="2.72484">
        <ele>114.5341796875</ele>
        <time>2012-12-02T08:20:41Z</time>
      </trkpt>
      <trkpt lat="48.42957" lon="2.72513">
        <ele>114.05358886719</ele>
        <time>2012-12-02T08:20:45Z</time>
      </trkpt>
      <trkpt lat="48.42967" lon="2.72524">
        <ele>113.57299804688</ele>
        <time>2012-12-02T08:20:47Z</time>
      </trkpt>
      <trkpt lat="48.42995" lon="2.72547">
        <ele>113.57299804688</ele>
        <time>2012-12-02T08:20:52Z</time>
      </trkpt>
      <trkpt lat="48.43022" lon="2.72565">
        <ele>113.09228515625</ele>
        <time>2012-12-02T08:20:57Z</time>
      </trkpt>
      <trkpt lat="48.43042" lon="2.72565">
        <ele>113.09228515625</ele>
        <time>2012-12-02T08:21:01Z</time>
      </trkpt>
      <trkpt lat="48.43054" lon="2.72563">
        <ele>113.57299804688</ele>
        <time>2012-12-02T08:21:03Z</time>
      </trkpt>
      <trkpt lat="48.4307" lon="2.72557">
        <ele>112.13098144531</ele>
        <time>2012-12-02T08:21:06Z</time>
      </trkpt>
      <trkpt lat="48.43096" lon="2.72549">
        <ele>112.13098144531</ele>
        <time>2012-12-02T08:21:10Z</time>
      </trkpt>
      <trkpt lat="48.43115" lon="2.72551">
        <ele>111.65026855469</ele>
        <time>2012-12-02T08:21:13Z</time>
      </trkpt>
      <trkpt lat="48.4312" lon="2.7255">
        <ele>112.13098144531</ele>
        <time>2012-12-02T08:21:14Z</time>
      </trkpt>
      <trkpt lat="48.43151" lon="2.72546">
        <ele>112.13098144531</ele>
        <time>2012-12-02T08:21:20Z</time>
      </trkpt>
      <trkpt lat="48.43165" lon="2.72549">
        <ele>110.68884277344</ele>
        <time>2012-12-02T08:21:24Z</time>
      </trkpt>
      <trkpt lat="48.43172" lon="2.72557">
        <ele>108.28564453125</ele>
        <time>2012-12-02T08:21:26Z</time>
      </trkpt>
      <trkpt lat="48.43186" lon="2.72567">
        <ele>106.36303710938</ele>
        <time>2012-12-02T08:21:30Z</time>
      </trkpt>
      <trkpt lat="48.43192" lon="2.72561">
        <ele>106.84362792969</ele>
        <time>2012-12-02T08:21:34Z</time>
      </trkpt>
      <trkpt lat="48.43193" lon="2.72557">
        <ele>107.32434082031</ele>
        <time>2012-12-02T08:21:37Z</time>
      </trkpt>
      <trkpt lat="48.43189" lon="2.72557">
        <ele>107.80505371094</ele>
        <time>2012-12-02T08:21:42Z</time>
      </trkpt>
      <trkpt lat="48.43192" lon="2.72562">
        <ele>106.84362792969</ele>
        <time>2012-12-02T08:21:46Z</time>
      </trkpt>
      <trkpt lat="48.43193" lon="2.72562">
        <ele>107.32434082031</ele>
        <time>2012-12-02T08:21:52Z</time>
      </trkpt>
      <trkpt lat="48.43196" lon="2.72561">
        <ele>106.84362792969</ele>
        <time>2012-12-02T08:22:21Z</time>
      </trkpt>
      <trkpt lat="48.43194" lon="2.7256">
        <ele>107.32434082031</ele>
        <time>2012-12-02T08:22:50Z</time>
      </trkpt>
      <trkpt lat="48.43195" lon="2.72561">
        <ele>107.80505371094</ele>
        <time>2012-12-02T08:22:59Z</time>
      </trkpt>
      <trkpt lat="48.43196" lon="2.72559">
        <ele>107.80505371094</ele>
        <time>2012-12-02T08:23:01Z</time>
      </trkpt>
      <trkpt lat="48.43196" lon="2.72552">
        <ele>108.28564453125</ele>
        <time>2012-12-02T08:23:05Z</time>
      </trkpt>
      <trkpt lat="48.43204" lon="2.72544">
        <ele>110.20825195312</ele>
        <time>2012-12-02T08:23:11Z</time>
      </trkpt>
      <trkpt lat="48.43214" lon="2.72525">
        <ele>111.16955566406</ele>
        <time>2012-12-02T08:23:18Z</time>
      </trkpt>
      <trkpt lat="48.43224" lon="2.72503">
        <ele>110.68884277344</ele>
        <time>2012-12-02T08:23:23Z</time>
      </trkpt>
      <trkpt lat="48.43234" lon="2.72481">
        <ele>111.16955566406</ele>
        <time>2012-12-02T08:23:29Z</time>
      </trkpt>
      <trkpt lat="48.43245" lon="2.72463">
        <ele>110.68884277344</ele>
        <time>2012-12-02T08:23:34Z</time>
      </trkpt>
      <trkpt lat="48.43257" lon="2.72438">
        <ele>111.16955566406</ele>
        <time>2012-12-02T08:23:41Z</time>
      </trkpt>
      <trkpt lat="48.43271" lon="2.72426">
        <ele>111.65026855469</ele>
        <time>2012-12-02T08:23:46Z</time>
      </trkpt>
      <trkpt lat="48.43281" lon="2.72415">
        <ele>112.61157226562</ele>
        <time>2012-12-02T08:23:50Z</time>
      </trkpt>
      <trkpt lat="48.43285" lon="2.72407">
        <ele>113.09228515625</ele>
        <time>2012-12-02T08:23:52Z</time>
      </trkpt>
      <trkpt lat="48.43295" lon="2.72401">
        <ele>113.57299804688</ele>
        <time>2012-12-02T08:23:56Z</time>
      </trkpt>
      <trkpt lat="48.43304" lon="2.72394">
        <ele>115.49560546875</ele>
        <time>2012-12-02T08:24:01Z</time>
      </trkpt>
      <trkpt lat="48.43317" lon="2.72387">
        <ele>116.45678710938</ele>
        <time>2012-12-02T08:24:08Z</time>
      </trkpt>
      <trkpt lat="48.43322" lon="2.72386">
        <ele>116.9375</ele>
        <time>2012-12-02T08:24:10Z</time>
      </trkpt>
      <trkpt lat="48.43332" lon="2.72386">
        <ele>118.86010742188</ele>
        <time>2012-12-02T08:24:15Z</time>
      </trkpt>
      <trkpt lat="48.4334" lon="2.7239">
        <ele>120.78283691406</ele>
        <time>2012-12-02T08:24:19Z</time>
      </trkpt>
      <trkpt lat="48.43341" lon="2.72393">
        <ele>121.744140625</ele>
        <time>2012-12-02T08:24:21Z</time>
      </trkpt>
      <trkpt lat="48.43342" lon="2.72404">
        <ele>122.70544433594</ele>
        <time>2012-12-02T08:24:26Z</time>
      </trkpt>
      <trkpt lat="48.43344" lon="2.72415">
        <ele>123.66674804688</ele>
        <time>2012-12-02T08:24:32Z</time>
      </trkpt>
      <trkpt lat="48.43344" lon="2.72418">
        <ele>123.66674804688</ele>
        <time>2012-12-02T08:24:37Z</time>
      </trkpt>
      <trkpt lat="48.43347" lon="2.72424">
        <ele>125.58935546875</ele>
        <time>2012-12-02T08:24:43Z</time>
      </trkpt>
      <trkpt lat="48.4335" lon="2.72428">
        <ele>125.58935546875</ele>
        <time>2012-12-02T08:24:49Z</time>
      </trkpt>
      <trkpt lat="48.43351" lon="2.72432">
        <ele>126.06994628906</ele>
        <time>2012-12-02T08:24:53Z</time>
      </trkpt>
      <trkpt lat="48.43358" lon="2.72439">
        <ele>127.03137207031</ele>
        <time>2012-12-02T08:25:00Z</time>
      </trkpt>
      <trkpt lat="48.43367" lon="2.72439">
        <ele>129.91528320312</ele>
        <time>2012-12-02T08:25:07Z</time>
      </trkpt>
      <trkpt lat="48.43367" lon="2.72439">
        <ele>130.39599609375</ele>
        <time>2012-12-02T08:25:08Z</time>
      </trkpt>
      <trkpt lat="48.4338" lon="2.72435">
        <ele>132.31860351562</ele>
        <time>2012-12-02T08:25:17Z</time>
      </trkpt>
      <trkpt lat="48.43386" lon="2.72439">
        <ele>133.27990722656</ele>
        <time>2012-12-02T08:25:21Z</time>
      </trkpt>
      <trkpt lat="48.43393" lon="2.72449">
        <ele>133.27990722656</ele>
        <time>2012-12-02T08:25:28Z</time>
      </trkpt>
      <trkpt lat="48.43395" lon="2.72455">
        <ele>134.72192382812</ele>
        <time>2012-12-02T08:25:31Z</time>
      </trkpt>
      <trkpt lat="48.43399" lon="2.72458">
        <ele>134.72192382812</ele>
        <time>2012-12-02T08:25:37Z</time>
      </trkpt>
      <trkpt lat="48.43401" lon="2.72459">
        <ele>135.68310546875</ele>
        <time>2012-12-02T08:25:44Z</time>
      </trkpt>
      <trkpt lat="48.43398" lon="2.72467">
        <ele>135.20251464844</ele>
        <time>2012-12-02T08:26:12Z</time>
      </trkpt>
      <trkpt lat="48.43401" lon="2.72464">
        <ele>134.2412109375</ele>
        <time>2012-12-02T08:28:59Z</time>
      </trkpt>
      <trkpt lat="48.43401" lon="2.72466">
        <ele>134.2412109375</ele>
        <time>2012-12-02T08:29:04Z</time>
      </trkpt>
      <trkpt lat="48.43401" lon="2.72478">
        <ele>133.27990722656</ele>
        <time>2012-12-02T08:29:10Z</time>
      </trkpt>
      <trkpt lat="48.43396" lon="2.7249">
        <ele>133.76049804688</ele>
        <time>2012-12-02T08:29:15Z</time>
      </trkpt>
      <trkpt lat="48.43396" lon="2.72495">
        <ele>134.2412109375</ele>
        <time>2012-12-02T08:29:17Z</time>
      </trkpt>
      <trkpt lat="48.43394" lon="2.7251">
        <ele>134.72192382812</ele>
        <time>2012-12-02T08:29:24Z</time>
      </trkpt>
      <trkpt lat="48.43395" lon="2.72515">
        <ele>134.72192382812</ele>
        <time>2012-12-02T08:29:31Z</time>
      </trkpt>
      <trkpt lat="48.43397" lon="2.72534">
        <ele>134.2412109375</ele>
        <time>2012-12-02T08:29:37Z</time>
      </trkpt>
      <trkpt lat="48.43397" lon="2.72556">
        <ele>134.2412109375</ele>
        <time>2012-12-02T08:29:43Z</time>
      </trkpt>
      <trkpt lat="48.43399" lon="2.72567">
        <ele>133.76049804688</ele>
        <time>2012-12-02T08:29:47Z</time>
      </trkpt>
      <trkpt lat="48.434" lon="2.72573">
        <ele>133.27990722656</ele>
        <time>2012-12-02T08:29:49Z</time>
      </trkpt>
      <trkpt lat="48.43392" lon="2.72588">
        <ele>133.27990722656</ele>
        <time>2012-12-02T08:29:55Z</time>
      </trkpt>
      <trkpt lat="48.43386" lon="2.72594">
        <ele>133.27990722656</ele>
        <time>2012-12-02T08:30:00Z</time>
      </trkpt>
      <trkpt lat="48.43381" lon="2.72584">
        <ele>133.27990722656</ele>
        <time>2012-12-02T08:30:05Z</time>
      </trkpt>
      <trkpt lat="48.43383" lon="2.72579">
        <ele>133.27990722656</ele>
        <time>2012-12-02T08:30:08Z</time>
      </trkpt>
      <trkpt lat="48.43384" lon="2.7258">
        <ele>133.27990722656</ele>
        <time>2012-12-02T08:30:13Z</time>
      </trkpt>
      <trkpt lat="48.43386" lon="2.72591">
        <ele>133.27990722656</ele>
        <time>2012-12-02T08:30:18Z</time>
      </trkpt>
      <trkpt lat="48.4338" lon="2.72601">
        <ele>133.27990722656</ele>
        <time>2012-12-02T08:30:22Z</time>
      </trkpt>
      <trkpt lat="48.43379" lon="2.72603">
        <ele>133.76049804688</ele>
        <time>2012-12-02T08:30:26Z</time>
      </trkpt>
      <trkpt lat="48.4338" lon="2.72606">
        <ele>131.837890625</ele>
        <time>2012-12-02T08:30:41Z</time>
      </trkpt>
      <trkpt lat="48.4338" lon="2.72607">
        <ele>132.79931640625</ele>
        <time>2012-12-02T08:31:03Z</time>
      </trkpt>
      <trkpt lat="48.43381" lon="2.72607">
        <ele>132.79931640625</ele>
        <time>2012-12-02T08:31:27Z</time>
      </trkpt>
      <trkpt lat="48.4338" lon="2.72607">
        <ele>131.837890625</ele>
        <time>2012-12-02T08:33:03Z</time>
      </trkpt>
      <trkpt lat="48.43378" lon="2.72606">
        <ele>131.837890625</ele>
        <time>2012-12-02T08:36:17Z</time>
      </trkpt>
      <trkpt lat="48.43378" lon="2.72605">
        <ele>131.35729980469</ele>
        <time>2012-12-02T08:36:45Z</time>
      </trkpt>
      <trkpt lat="48.43378" lon="2.72602">
        <ele>132.79931640625</ele>
        <time>2012-12-02T08:39:10Z</time>
      </trkpt>
      <trkpt lat="48.4338" lon="2.726">
        <ele>131.837890625</ele>
        <time>2012-12-02T08:39:15Z</time>
      </trkpt>
      <trkpt lat="48.4338" lon="2.72597">
        <ele>131.35729980469</ele>
        <time>2012-12-02T08:39:20Z</time>
      </trkpt>
      <trkpt lat="48.4338" lon="2.72598">
        <ele>130.39599609375</ele>
        <time>2012-12-02T08:39:30Z</time>
      </trkpt>
      <trkpt lat="48.43379" lon="2.72599">
        <ele>132.31860351562</ele>
        <time>2012-12-02T08:41:07Z</time>
      </trkpt>
      <trkpt lat="48.4338" lon="2.72597">
        <ele>132.31860351562</ele>
        <time>2012-12-02T08:41:10Z</time>
      </trkpt>
      <trkpt lat="48.43385" lon="2.72595">
        <ele>132.31860351562</ele>
        <time>2012-12-02T08:41:14Z</time>
      </trkpt>
      <trkpt lat="48.43383" lon="2.72599">
        <ele>132.31860351562</ele>
        <time>2012-12-02T08:41:17Z</time>
      </trkpt>
      <trkpt lat="48.43382" lon="2.72598">
        <ele>132.31860351562</ele>
        <time>2012-12-02T08:41:20Z</time>
      </trkpt>
      <trkpt lat="48.43384" lon="2.72589">
        <ele>131.837890625</ele>
        <time>2012-12-02T08:41:26Z</time>
      </trkpt>
      <trkpt lat="48.43387" lon="2.72594">
        <ele>131.837890625</ele>
        <time>2012-12-02T08:41:30Z</time>
      </trkpt>
      <trkpt lat="48.43384" lon="2.72598">
        <ele>131.837890625</ele>
        <time>2012-12-02T08:41:34Z</time>
      </trkpt>
      <trkpt lat="48.4338" lon="2.72594">
        <ele>131.837890625</ele>
        <time>2012-12-02T08:41:39Z</time>
      </trkpt>
      <trkpt lat="48.43385" lon="2.72587">
        <ele>131.837890625</ele>
        <time>2012-12-02T08:41:44Z</time>
      </trkpt>
      <trkpt lat="48.43388" lon="2.72592">
        <ele>131.837890625</ele>
        <time>2012-12-02T08:41:47Z</time>
      </trkpt>
      <trkpt lat="48.43386" lon="2.72594">
        <ele>131.837890625</ele>
        <time>2012-12-02T08:41:52Z</time>
      </trkpt>
      <trkpt lat="48.43386" lon="2.72594">
        <ele>131.837890625</ele>
        <time>2012-12-02T08:41:56Z</time>
      </trkpt>
      <trkpt lat="48.43381" lon="2.726">
        <ele>131.837890625</ele>
        <time>2012-12-02T08:42:02Z</time>
      </trkpt>
      <trkpt lat="48.4338" lon="2.726">
        <ele>131.35729980469</ele>
        <time>2012-12-02T08:42:04Z</time>
      </trkpt>
      <trkpt lat="48.43379" lon="2.72597">
        <ele>131.837890625</ele>
        <time>2012-12-02T08:42:07Z</time>
      </trkpt>
      <trkpt lat="48.43385" lon="2.72592">
        <ele>131.837890625</ele>
        <time>2012-12-02T08:42:12Z</time>
      </trkpt>
      <trkpt lat="48.43383" lon="2.72599">
        <ele>131.837890625</ele>
        <time>2012-12-02T08:42:15Z</time>
      </trkpt>
      <trkpt lat="48.43378" lon="2.72603">
        <ele>131.35729980469</ele>
        <time>2012-12-02T08:42:18Z</time>
      </trkpt>
      <trkpt lat="48.43372" lon="2.72605">
        <ele>128.47338867188</ele>
        <time>2012-12-02T08:42:22Z</time>
      </trkpt>
      <trkpt lat="48.4337" lon="2.72607">
        <ele>127.51196289062</ele>
        <time>2012-12-02T08:42:23Z</time>
      </trkpt>
      <trkpt lat="48.43368" lon="2.72612">
        <ele>127.03137207031</ele>
        <time>2012-12-02T08:42:28Z</time>
      </trkpt>
      <trkpt lat="48.43369" lon="2.72609">
        <ele>127.51196289062</ele>
        <time>2012-12-02T08:42:34Z</time>
      </trkpt>
      <trkpt lat="48.43367" lon="2.72613">
        <ele>126.06994628906</ele>
        <time>2012-12-02T08:42:43Z</time>
      </trkpt>
      <trkpt lat="48.43362" lon="2.72616">
        <ele>121.26354980469</ele>
        <time>2012-12-02T08:42:45Z</time>
      </trkpt>
      <trkpt lat="48.43359" lon="2.72617">
        <ele>122.70544433594</ele>
        <time>2012-12-02T08:42:46Z</time>
      </trkpt>
      <trkpt lat="48.43358" lon="2.72619">
        <ele>122.70544433594</ele>
        <time>2012-12-02T08:42:49Z</time>
      </trkpt>
      <trkpt lat="48.43359" lon="2.72632">
        <ele>124.14733886719</ele>
        <time>2012-12-02T08:42:54Z</time>
      </trkpt>
      <trkpt lat="48.43364" lon="2.72656">
        <ele>124.62805175781</ele>
        <time>2012-12-02T08:43:01Z</time>
      </trkpt>
      <trkpt lat="48.43382" lon="2.72666">
        <ele>125.58935546875</ele>
        <time>2012-12-02T08:43:08Z</time>
      </trkpt>
      <trkpt lat="48.43397" lon="2.72652">
        <ele>127.99255371094</ele>
        <time>2012-12-02T08:43:14Z</time>
      </trkpt>
      <trkpt lat="48.43399" lon="2.72649">
        <ele>127.99255371094</ele>
        <time>2012-12-02T08:43:15Z</time>
      </trkpt>
      <trkpt lat="48.43404" lon="2.72619">
        <ele>128.9541015625</ele>
        <time>2012-12-02T08:43:22Z</time>
      </trkpt>
      <trkpt lat="48.43398" lon="2.72596">
        <ele>130.87670898438</ele>
        <time>2012-12-02T08:43:28Z</time>
      </trkpt>
      <trkpt lat="48.43397" lon="2.72594">
        <ele>130.39599609375</ele>
        <time>2012-12-02T08:43:32Z</time>
      </trkpt>
      <trkpt lat="48.43396" lon="2.72594">
        <ele>130.39599609375</ele>
        <time>2012-12-02T08:43:43Z</time>
      </trkpt>
      <trkpt lat="48.43398" lon="2.72581">
        <ele>130.39599609375</ele>
        <time>2012-12-02T08:43:48Z</time>
      </trkpt>
      <trkpt lat="48.43398" lon="2.72575">
        <ele>130.87670898438</ele>
        <time>2012-12-02T08:43:51Z</time>
      </trkpt>
      <trkpt lat="48.43397" lon="2.72572">
        <ele>131.837890625</ele>
        <time>2012-12-02T08:43:54Z</time>
      </trkpt>
      <trkpt lat="48.43394" lon="2.7256">
        <ele>133.27990722656</ele>
        <time>2012-12-02T08:44:03Z</time>
      </trkpt>
      <trkpt lat="48.43395" lon="2.72557">
        <ele>132.79931640625</ele>
        <time>2012-12-02T08:44:07Z</time>
      </trkpt>
      <trkpt lat="48.43396" lon="2.7254">
        <ele>132.31860351562</ele>
        <time>2012-12-02T08:44:12Z</time>
      </trkpt>
      <trkpt lat="48.43393" lon="2.72519">
        <ele>133.27990722656</ele>
        <time>2012-12-02T08:44:17Z</time>
      </trkpt>
      <trkpt lat="48.43393" lon="2.72516">
        <ele>133.76049804688</ele>
        <time>2012-12-02T08:44:18Z</time>
      </trkpt>
      <trkpt lat="48.43398" lon="2.72482">
        <ele>132.31860351562</ele>
        <time>2012-12-02T08:44:25Z</time>
      </trkpt>
      <trkpt lat="48.43401" lon="2.72471">
        <ele>130.87670898438</ele>
        <time>2012-12-02T08:44:27Z</time>
      </trkpt>
      <trkpt lat="48.43409" lon="2.72443">
        <ele>129.43469238281</ele>
        <time>2012-12-02T08:44:32Z</time>
      </trkpt>
      <trkpt lat="48.43415" lon="2.72413">
        <ele>128.47338867188</ele>
        <time>2012-12-02T08:44:37Z</time>
      </trkpt>
      <trkpt lat="48.43414" lon="2.72395">
        <ele>127.99255371094</ele>
        <time>2012-12-02T08:44:42Z</time>
      </trkpt>
      <trkpt lat="48.4341" lon="2.72382">
        <ele>128.47338867188</ele>
        <time>2012-12-02T08:44:49Z</time>
      </trkpt>
      <trkpt lat="48.43406" lon="2.7237">
        <ele>128.47338867188</ele>
        <time>2012-12-02T08:44:54Z</time>
      </trkpt>
      <trkpt lat="48.43401" lon="2.72355">
        <ele>128.9541015625</ele>
        <time>2012-12-02T08:44:59Z</time>
      </trkpt>
      <trkpt lat="48.43396" lon="2.72336">
        <ele>128.47338867188</ele>
        <time>2012-12-02T08:45:03Z</time>
      </trkpt>
      <trkpt lat="48.43401" lon="2.72315">
        <ele>127.99255371094</ele>
        <time>2012-12-02T08:45:08Z</time>
      </trkpt>
      <trkpt lat="48.43405" lon="2.72303">
        <ele>126.55065917969</ele>
        <time>2012-12-02T08:45:11Z</time>
      </trkpt>
      <trkpt lat="48.43411" lon="2.72289">
        <ele>124.14733886719</ele>
        <time>2012-12-02T08:45:15Z</time>
      </trkpt>
      <trkpt lat="48.43413" lon="2.72278">
        <ele>124.14733886719</ele>
        <time>2012-12-02T08:45:21Z</time>
      </trkpt>
      <trkpt lat="48.43416" lon="2.72277">
        <ele>124.62805175781</ele>
        <time>2012-12-02T08:45:32Z</time>
      </trkpt>
      <trkpt lat="48.43416" lon="2.72276">
        <ele>124.14733886719</ele>
        <time>2012-12-02T08:45:33Z</time>
      </trkpt>
      <trkpt lat="48.43417" lon="2.72268">
        <ele>122.70544433594</ele>
        <time>2012-12-02T08:45:37Z</time>
      </trkpt>
      <trkpt lat="48.4342" lon="2.72261">
        <ele>122.22473144531</ele>
        <time>2012-12-02T08:45:40Z</time>
      </trkpt>
      <trkpt lat="48.43421" lon="2.72247">
        <ele>120.78283691406</ele>
        <time>2012-12-02T08:45:44Z</time>
      </trkpt>
      <trkpt lat="48.43428" lon="2.72229">
        <ele>118.86010742188</ele>
        <time>2012-12-02T08:45:50Z</time>
      </trkpt>
      <trkpt lat="48.43429" lon="2.72222">
        <ele>118.86010742188</ele>
        <time>2012-12-02T08:45:53Z</time>
      </trkpt>
      <trkpt lat="48.43429" lon="2.72208">
        <ele>118.86010742188</ele>
        <time>2012-12-02T08:45:57Z</time>
      </trkpt>
      <trkpt lat="48.43429" lon="2.72192">
        <ele>117.41821289062</ele>
        <time>2012-12-02T08:46:02Z</time>
      </trkpt>
      <trkpt lat="48.43428" lon="2.72183">
        <ele>117.89880371094</ele>
        <time>2012-12-02T08:46:06Z</time>
      </trkpt>
      <trkpt lat="48.43427" lon="2.72181">
        <ele>117.41821289062</ele>
        <time>2012-12-02T08:46:11Z</time>
      </trkpt>
      <trkpt lat="48.4343" lon="2.72172">
        <ele>116.45678710938</ele>
        <time>2012-12-02T08:46:18Z</time>
      </trkpt>
      <trkpt lat="48.43431" lon="2.72169">
        <ele>116.45678710938</ele>
        <time>2012-12-02T08:46:24Z</time>
      </trkpt>
      <trkpt lat="48.43438" lon="2.72167">
        <ele>113.57299804688</ele>
        <time>2012-12-02T08:46:29Z</time>
      </trkpt>
      <trkpt lat="48.43444" lon="2.72155">
        <ele>111.65026855469</ele>
        <time>2012-12-02T08:46:33Z</time>
      </trkpt>
      <trkpt lat="48.43451" lon="2.72139">
        <ele>110.20825195312</ele>
        <time>2012-12-02T08:46:37Z</time>
      </trkpt>
      <trkpt lat="48.43451" lon="2.72122">
        <ele>109.72766113281</ele>
        <time>2012-12-02T08:46:41Z</time>
      </trkpt>
      <trkpt lat="48.43457" lon="2.72106">
        <ele>109.24694824219</ele>
        <time>2012-12-02T08:46:45Z</time>
      </trkpt>
      <trkpt lat="48.43465" lon="2.72086">
        <ele>108.28564453125</ele>
        <time>2012-12-02T08:46:50Z</time>
      </trkpt>
      <trkpt lat="48.43475" lon="2.72064">
        <ele>105.88244628906</ele>
        <time>2012-12-02T08:46:55Z</time>
      </trkpt>
      <trkpt lat="48.43477" lon="2.72045">
        <ele>105.40173339844</ele>
        <time>2012-12-02T08:46:59Z</time>
      </trkpt>
      <trkpt lat="48.43478" lon="2.72032">
        <ele>103.47900390625</ele>
        <time>2012-12-02T08:47:02Z</time>
      </trkpt>
      <trkpt lat="48.43477" lon="2.72022">
        <ele>102.51770019531</ele>
        <time>2012-12-02T08:47:06Z</time>
      </trkpt>
      <trkpt lat="48.43478" lon="2.72021">
        <ele>102.99829101562</ele>
        <time>2012-12-02T08:47:13Z</time>
      </trkpt>
      <trkpt lat="48.43476" lon="2.72018">
        <ele>102.99829101562</ele>
        <time>2012-12-02T08:47:29Z</time>
      </trkpt>
      <trkpt lat="48.43473" lon="2.72011">
        <ele>102.99829101562</ele>
        <time>2012-12-02T08:47:35Z</time>
      </trkpt>
      <trkpt lat="48.43472" lon="2.72007">
        <ele>102.99829101562</ele>
        <time>2012-12-02T08:47:36Z</time>
      </trkpt>
      <trkpt lat="48.43473" lon="2.71992">
        <ele>102.99829101562</ele>
        <time>2012-12-02T08:47:40Z</time>
      </trkpt>
      <trkpt lat="48.43473" lon="2.71968">
        <ele>102.037109375</ele>
        <time>2012-12-02T08:47:45Z</time>
      </trkpt>
      <trkpt lat="48.43477" lon="2.7195">
        <ele>102.037109375</ele>
        <time>2012-12-02T08:47:49Z</time>
      </trkpt>
      <trkpt lat="48.43478" lon="2.71932">
        <ele>100.59509277344</ele>
        <time>2012-12-02T08:47:54Z</time>
      </trkpt>
      <trkpt lat="48.43477" lon="2.71906">
        <ele>100.59509277344</ele>
        <time>2012-12-02T08:48:00Z</time>
      </trkpt>
      <trkpt lat="48.43475" lon="2.71885">
        <ele>101.07568359375</ele>
        <time>2012-12-02T08:48:05Z</time>
      </trkpt>
      <trkpt lat="48.43477" lon="2.71869">
        <ele>102.51770019531</ele>
        <time>2012-12-02T08:48:10Z</time>
      </trkpt>
      <trkpt lat="48.43478" lon="2.71852">
        <ele>103.95971679688</ele>
        <time>2012-12-02T08:48:15Z</time>
      </trkpt>
      <trkpt lat="48.43483" lon="2.71842">
        <ele>104.4404296875</ele>
        <time>2012-12-02T08:48:19Z</time>
      </trkpt>
      <trkpt lat="48.43495" lon="2.71813">
        <ele>104.92102050781</ele>
        <time>2012-12-02T08:48:27Z</time>
      </trkpt>
      <trkpt lat="48.43498" lon="2.71805">
        <ele>104.4404296875</ele>
        <time>2012-12-02T08:48:29Z</time>
      </trkpt>
      <trkpt lat="48.43498" lon="2.71798">
        <ele>104.4404296875</ele>
        <time>2012-12-02T08:48:31Z</time>
      </trkpt>
      <trkpt lat="48.43499" lon="2.71784">
        <ele>105.88244628906</ele>
        <time>2012-12-02T08:48:36Z</time>
      </trkpt>
      <trkpt lat="48.43495" lon="2.71774">
        <ele>107.80505371094</ele>
        <time>2012-12-02T08:48:41Z</time>
      </trkpt>
      <trkpt lat="48.43499" lon="2.7176">
        <ele>108.76623535156</ele>
        <time>2012-12-02T08:48:47Z</time>
      </trkpt>
      <trkpt lat="48.43501" lon="2.71745">
        <ele>109.72766113281</ele>
        <time>2012-12-02T08:48:53Z</time>
      </trkpt>
      <trkpt lat="48.43501" lon="2.71735">
        <ele>110.68884277344</ele>
        <time>2012-12-02T08:48:59Z</time>
      </trkpt>
      <trkpt lat="48.43502" lon="2.71726">
        <ele>112.13098144531</ele>
        <time>2012-12-02T08:49:07Z</time>
      </trkpt>
      <trkpt lat="48.43502" lon="2.71721">
        <ele>111.65026855469</ele>
        <time>2012-12-02T08:49:15Z</time>
      </trkpt>
      <trkpt lat="48.43505" lon="2.71714">
        <ele>112.13098144531</ele>
        <time>2012-12-02T08:49:31Z</time>
      </trkpt>
      <trkpt lat="48.43505" lon="2.71713">
        <ele>112.61157226562</ele>
        <time>2012-12-02T08:49:32Z</time>
      </trkpt>
      <trkpt lat="48.43513" lon="2.71704">
        <ele>111.16955566406</ele>
        <time>2012-12-02T08:49:38Z</time>
      </trkpt>
      <trkpt lat="48.43516" lon="2.71697">
        <ele>110.68884277344</ele>
        <time>2012-12-02T08:49:42Z</time>
      </trkpt>
      <trkpt lat="48.43517" lon="2.71685">
        <ele>111.16955566406</ele>
        <time>2012-12-02T08:49:48Z</time>
      </trkpt>
      <trkpt lat="48.43518" lon="2.71683">
        <ele>111.65026855469</ele>
        <time>2012-12-02T08:49:49Z</time>
      </trkpt>
      <trkpt lat="48.4352" lon="2.71669">
        <ele>110.68884277344</ele>
        <time>2012-12-02T08:49:56Z</time>
      </trkpt>
      <trkpt lat="48.4352" lon="2.71655">
        <ele>109.72766113281</ele>
        <time>2012-12-02T08:49:59Z</time>
      </trkpt>
      <trkpt lat="48.43525" lon="2.71635">
        <ele>108.28564453125</ele>
        <time>2012-12-02T08:50:03Z</time>
      </trkpt>
      <trkpt lat="48.43526" lon="2.71616">
        <ele>109.24694824219</ele>
        <time>2012-12-02T08:50:10Z</time>
      </trkpt>
      <trkpt lat="48.43538" lon="2.71604">
        <ele>109.24694824219</ele>
        <time>2012-12-02T08:50:16Z</time>
      </trkpt>
      <trkpt lat="48.43543" lon="2.71586">
        <ele>109.72766113281</ele>
        <time>2012-12-02T08:50:22Z</time>
      </trkpt>
      <trkpt lat="48.43544" lon="2.71582">
        <ele>109.24694824219</ele>
        <time>2012-12-02T08:50:23Z</time>
      </trkpt>
      <trkpt lat="48.43548" lon="2.7157">
        <ele>109.24694824219</ele>
        <time>2012-12-02T08:50:26Z</time>
      </trkpt>
      <trkpt lat="48.43555" lon="2.71559">
        <ele>106.36303710938</ele>
        <time>2012-12-02T08:50:30Z</time>
      </trkpt>
      <trkpt lat="48.43557" lon="2.71553">
        <ele>106.36303710938</ele>
        <time>2012-12-02T08:50:35Z</time>
      </trkpt>
      <trkpt lat="48.43557" lon="2.71552">
        <ele>106.84362792969</ele>
        <time>2012-12-02T08:50:43Z</time>
      </trkpt>
      <trkpt lat="48.43557" lon="2.71547">
        <ele>106.36303710938</ele>
        <time>2012-12-02T08:50:49Z</time>
      </trkpt>
      <trkpt lat="48.43561" lon="2.71536">
        <ele>104.92102050781</ele>
        <time>2012-12-02T08:50:53Z</time>
      </trkpt>
      <trkpt lat="48.43562" lon="2.7153">
        <ele>103.47900390625</ele>
        <time>2012-12-02T08:50:56Z</time>
      </trkpt>
      <trkpt lat="48.43559" lon="2.71521">
        <ele>102.99829101562</ele>
        <time>2012-12-02T08:51:23Z</time>
      </trkpt>
      <trkpt lat="48.4356" lon="2.71526">
        <ele>102.99829101562</ele>
        <time>2012-12-02T08:51:44Z</time>
      </trkpt>
      <trkpt lat="48.43559" lon="2.71529">
        <ele>104.4404296875</ele>
        <time>2012-12-02T08:52:00Z</time>
      </trkpt>
      <trkpt lat="48.43561" lon="2.71528">
        <ele>103.47900390625</ele>
        <time>2012-12-02T08:52:11Z</time>
      </trkpt>
      <trkpt lat="48.43566" lon="2.71526">
        <ele>103.95971679688</ele>
        <time>2012-12-02T08:52:22Z</time>
      </trkpt>
      <trkpt lat="48.43573" lon="2.71523">
        <ele>100.59509277344</ele>
        <time>2012-12-02T08:52:26Z</time>
      </trkpt>
      <trkpt lat="48.43579" lon="2.71516">
        <ele>96.749877929688</ele>
        <time>2012-12-02T08:52:29Z</time>
      </trkpt>
      <trkpt lat="48.43582" lon="2.71514">
        <ele>96.269287109375</ele>
        <time>2012-12-02T08:52:31Z</time>
      </trkpt>
      <trkpt lat="48.43587" lon="2.71516">
        <ele>94.8271484375</ele>
        <time>2012-12-02T08:52:37Z</time>
      </trkpt>
      <trkpt lat="48.43587" lon="2.71513">
        <ele>93.385131835938</ele>
        <time>2012-12-02T08:52:44Z</time>
      </trkpt>
      <trkpt lat="48.43589" lon="2.71506">
        <ele>95.788452148438</ele>
        <time>2012-12-02T08:54:29Z</time>
      </trkpt>
      <trkpt lat="48.43589" lon="2.71506">
        <ele>95.307739257812</ele>
        <time>2012-12-02T08:54:39Z</time>
      </trkpt>
      <trkpt lat="48.43589" lon="2.71505">
        <ele>95.788452148438</ele>
        <time>2012-12-02T08:54:40Z</time>
      </trkpt>
      <trkpt lat="48.43599" lon="2.71501">
        <ele>95.307739257812</ele>
        <time>2012-12-02T08:54:46Z</time>
      </trkpt>
      <trkpt lat="48.43606" lon="2.71497">
        <ele>95.788452148438</ele>
        <time>2012-12-02T08:54:49Z</time>
      </trkpt>
      <trkpt lat="48.43615" lon="2.71476">
        <ele>95.788452148438</ele>
        <time>2012-12-02T08:54:56Z</time>
      </trkpt>
      <trkpt lat="48.43616" lon="2.71468">
        <ele>97.711181640625</ele>
        <time>2012-12-02T08:54:59Z</time>
      </trkpt>
      <trkpt lat="48.43618" lon="2.71461">
        <ele>97.711181640625</ele>
        <time>2012-12-02T08:55:05Z</time>
      </trkpt>
      <trkpt lat="48.43618" lon="2.7146">
        <ele>97.711181640625</ele>
        <time>2012-12-02T08:55:09Z</time>
      </trkpt>
      <trkpt lat="48.43617" lon="2.7145">
        <ele>97.711181640625</ele>
        <time>2012-12-02T08:55:14Z</time>
      </trkpt>
      <trkpt lat="48.43614" lon="2.71448">
        <ele>98.19189453125</ele>
        <time>2012-12-02T08:55:17Z</time>
      </trkpt>
      <trkpt lat="48.43599" lon="2.71442">
        <ele>99.153076171875</ele>
        <time>2012-12-02T08:55:23Z</time>
      </trkpt>
      <trkpt lat="48.43569" lon="2.71428">
        <ele>101.55639648438</ele>
        <time>2012-12-02T08:55:33Z</time>
      </trkpt>
      <trkpt lat="48.43541" lon="2.71414">
        <ele>104.4404296875</ele>
        <time>2012-12-02T08:55:43Z</time>
      </trkpt>
      <trkpt lat="48.43513" lon="2.71401">
        <ele>105.40173339844</ele>
        <time>2012-12-02T08:55:53Z</time>
      </trkpt>
      <trkpt lat="48.43491" lon="2.71391">
        <ele>105.88244628906</ele>
        <time>2012-12-02T08:56:01Z</time>
      </trkpt>
      <trkpt lat="48.43478" lon="2.71385">
        <ele>106.36303710938</ele>
        <time>2012-12-02T08:56:06Z</time>
      </trkpt>
      <trkpt lat="48.43457" lon="2.71374">
        <ele>107.32434082031</ele>
        <time>2012-12-02T08:56:14Z</time>
      </trkpt>
      <trkpt lat="48.43435" lon="2.71364">
        <ele>109.24694824219</ele>
        <time>2012-12-02T08:56:23Z</time>
      </trkpt>
      <trkpt lat="48.43428" lon="2.71357">
        <ele>109.72766113281</ele>
        <time>2012-12-02T08:56:27Z</time>
      </trkpt>
      <trkpt lat="48.43429" lon="2.71343">
        <ele>112.13098144531</ele>
        <time>2012-12-02T08:56:33Z</time>
      </trkpt>
      <trkpt lat="48.43431" lon="2.71336">
        <ele>113.09228515625</ele>
        <time>2012-12-02T08:56:36Z</time>
      </trkpt>
      <trkpt lat="48.43436" lon="2.71316">
        <ele>113.57299804688</ele>
        <time>2012-12-02T08:56:42Z</time>
      </trkpt>
      <trkpt lat="48.4344" lon="2.71297">
        <ele>113.57299804688</ele>
        <time>2012-12-02T08:56:48Z</time>
      </trkpt>
      <trkpt lat="48.43446" lon="2.71276">
        <ele>113.57299804688</ele>
        <time>2012-12-02T08:56:53Z</time>
      </trkpt>
      <trkpt lat="48.43449" lon="2.71259">
        <ele>112.61157226562</ele>
        <time>2012-12-02T08:56:56Z</time>
      </trkpt>
      <trkpt lat="48.43455" lon="2.71225">
        <ele>111.16955566406</ele>
        <time>2012-12-02T08:57:01Z</time>
      </trkpt>
      <trkpt lat="48.43458" lon="2.71192">
        <ele>110.68884277344</ele>
        <time>2012-12-02T08:57:05Z</time>
      </trkpt>
      <trkpt lat="48.4346" lon="2.71163">
        <ele>110.20825195312</ele>
        <time>2012-12-02T08:57:08Z</time>
      </trkpt>
      <trkpt lat="48.43465" lon="2.71114">
        <ele>110.20825195312</ele>
        <time>2012-12-02T08:57:14Z</time>
      </trkpt>
      <trkpt lat="48.43468" lon="2.71091">
        <ele>110.20825195312</ele>
        <time>2012-12-02T08:57:17Z</time>
      </trkpt>
      <trkpt lat="48.43474" lon="2.71059">
        <ele>110.68884277344</ele>
        <time>2012-12-02T08:57:22Z</time>
      </trkpt>
      <trkpt lat="48.43475" lon="2.71055">
        <ele>111.16955566406</ele>
        <time>2012-12-02T08:57:23Z</time>
      </trkpt>
      <trkpt lat="48.43486" lon="2.71051">
        <ele>111.65026855469</ele>
        <time>2012-12-02T08:57:28Z</time>
      </trkpt>
      <trkpt lat="48.43509" lon="2.71076">
        <ele>112.61157226562</ele>
        <time>2012-12-02T08:57:36Z</time>
      </trkpt>
      <trkpt lat="48.43523" lon="2.71084">
        <ele>114.05358886719</ele>
        <time>2012-12-02T08:57:41Z</time>
      </trkpt>
      <trkpt lat="48.43542" lon="2.71077">
        <ele>115.01489257812</ele>
        <time>2012-12-02T08:57:47Z</time>
      </trkpt>
      <trkpt lat="48.43561" lon="2.71067">
        <ele>116.9375</ele>
        <time>2012-12-02T08:57:53Z</time>
      </trkpt>
      <trkpt lat="48.43576" lon="2.71057">
        <ele>118.86010742188</ele>
        <time>2012-12-02T08:57:59Z</time>
      </trkpt>
      <trkpt lat="48.43591" lon="2.71042">
        <ele>120.78283691406</ele>
        <time>2012-12-02T08:58:05Z</time>
      </trkpt>
      <trkpt lat="48.43608" lon="2.71013">
        <ele>122.70544433594</ele>
        <time>2012-12-02T08:58:13Z</time>
      </trkpt>
      <trkpt lat="48.43622" lon="2.70987">
        <ele>123.66674804688</ele>
        <time>2012-12-02T08:58:21Z</time>
      </trkpt>
      <trkpt lat="48.43633" lon="2.70966">
        <ele>125.10876464844</ele>
        <time>2012-12-02T08:58:28Z</time>
      </trkpt>
      <trkpt lat="48.43641" lon="2.70949">
        <ele>126.55065917969</ele>
        <time>2012-12-02T08:58:33Z</time>
      </trkpt>
      <trkpt lat="48.43644" lon="2.70942">
        <ele>127.51196289062</ele>
        <time>2012-12-02T08:58:35Z</time>
      </trkpt>
      <trkpt lat="48.43656" lon="2.70922">
        <ele>128.47338867188</ele>
        <time>2012-12-02T08:58:41Z</time>
      </trkpt>
      <trkpt lat="48.43665" lon="2.70906">
        <ele>129.43469238281</ele>
        <time>2012-12-02T08:58:46Z</time>
      </trkpt>
      <trkpt lat="48.43672" lon="2.70894">
        <ele>132.31860351562</ele>
        <time>2012-12-02T08:58:50Z</time>
      </trkpt>
      <trkpt lat="48.43682" lon="2.70875">
        <ele>133.27990722656</ele>
        <time>2012-12-02T08:58:56Z</time>
      </trkpt>
      <trkpt lat="48.43689" lon="2.70858">
        <ele>133.76049804688</ele>
        <time>2012-12-02T08:59:01Z</time>
      </trkpt>
      <trkpt lat="48.43701" lon="2.70842">
        <ele>133.76049804688</ele>
        <time>2012-12-02T08:59:07Z</time>
      </trkpt>
      <trkpt lat="48.43711" lon="2.70837">
        <ele>134.2412109375</ele>
        <time>2012-12-02T08:59:11Z</time>
      </trkpt>
      <trkpt lat="48.43726" lon="2.70831">
        <ele>135.20251464844</ele>
        <time>2012-12-02T08:59:17Z</time>
      </trkpt>
      <trkpt lat="48.43749" lon="2.70834">
        <ele>135.68310546875</ele>
        <time>2012-12-02T08:59:25Z</time>
      </trkpt>
      <trkpt lat="48.43763" lon="2.70834">
        <ele>136.64465332031</ele>
        <time>2012-12-02T08:59:31Z</time>
      </trkpt>
      <trkpt lat="48.43776" lon="2.70816">
        <ele>137.12524414062</ele>
        <time>2012-12-02T08:59:37Z</time>
      </trkpt>
      <trkpt lat="48.43777" lon="2.70813">
        <ele>137.12524414062</ele>
        <time>2012-12-02T08:59:38Z</time>
      </trkpt>
      <trkpt lat="48.43777" lon="2.70797">
        <ele>137.60583496094</ele>
        <time>2012-12-02T08:59:42Z</time>
      </trkpt>
      <trkpt lat="48.43769" lon="2.70775">
        <ele>137.12524414062</ele>
        <time>2012-12-02T08:59:48Z</time>
      </trkpt>
      <trkpt lat="48.43757" lon="2.70765">
        <ele>137.60583496094</ele>
        <time>2012-12-02T08:59:53Z</time>
      </trkpt>
      <trkpt lat="48.43741" lon="2.70759">
        <ele>137.12524414062</ele>
        <time>2012-12-02T08:59:59Z</time>
      </trkpt>
      <trkpt lat="48.43726" lon="2.70751">
        <ele>137.60583496094</ele>
        <time>2012-12-02T09:00:05Z</time>
      </trkpt>
      <trkpt lat="48.43712" lon="2.70742">
        <ele>137.60583496094</ele>
        <time>2012-12-02T09:00:11Z</time>
      </trkpt>
      <trkpt lat="48.43698" lon="2.70728">
        <ele>138.08654785156</ele>
        <time>2012-12-02T09:00:18Z</time>
      </trkpt>
      <trkpt lat="48.43694" lon="2.70709">
        <ele>137.60583496094</ele>
        <time>2012-12-02T09:00:23Z</time>
      </trkpt>
      <trkpt lat="48.43697" lon="2.70689">
        <ele>137.12524414062</ele>
        <time>2012-12-02T09:00:31Z</time>
      </trkpt>
      <trkpt lat="48.43701" lon="2.70672">
        <ele>136.16394042969</ele>
        <time>2012-12-02T09:00:35Z</time>
      </trkpt>
      <trkpt lat="48.43707" lon="2.70646">
        <ele>135.68310546875</ele>
        <time>2012-12-02T09:00:40Z</time>
      </trkpt>
      <trkpt lat="48.43709" lon="2.70639">
        <ele>135.68310546875</ele>
        <time>2012-12-02T09:00:41Z</time>
      </trkpt>
      <trkpt lat="48.43724" lon="2.70593">
        <ele>134.72192382812</ele>
        <time>2012-12-02T09:00:49Z</time>
      </trkpt>
      <trkpt lat="48.43732" lon="2.70582">
        <ele>135.20251464844</ele>
        <time>2012-12-02T09:00:52Z</time>
      </trkpt>
      <trkpt lat="48.43749" lon="2.7058">
        <ele>136.16394042969</ele>
        <time>2012-12-02T09:00:57Z</time>
      </trkpt>
      <trkpt lat="48.4377" lon="2.70588">
        <ele>136.64465332031</ele>
        <time>2012-12-02T09:01:04Z</time>
      </trkpt>
      <trkpt lat="48.43773" lon="2.70589">
        <ele>136.16394042969</ele>
        <time>2012-12-02T09:01:05Z</time>
      </trkpt>
      <trkpt lat="48.43776" lon="2.70587">
        <ele>135.68310546875</ele>
        <time>2012-12-02T09:01:10Z</time>
      </trkpt>
      <trkpt lat="48.43784" lon="2.70588">
        <ele>132.79931640625</ele>
        <time>2012-12-02T09:08:39Z</time>
      </trkpt>
      <trkpt lat="48.43783" lon="2.70588">
        <ele>133.76049804688</ele>
        <time>2012-12-02T09:09:19Z</time>
      </trkpt>
      <trkpt lat="48.43782" lon="2.7059">
        <ele>133.76049804688</ele>
        <time>2012-12-02T09:09:27Z</time>
      </trkpt>
      <trkpt lat="48.4378" lon="2.70591">
        <ele>133.76049804688</ele>
        <time>2012-12-02T09:09:39Z</time>
      </trkpt>
      <trkpt lat="48.43777" lon="2.70592">
        <ele>133.27990722656</ele>
        <time>2012-12-02T09:09:43Z</time>
      </trkpt>
      <trkpt lat="48.4377" lon="2.70589">
        <ele>133.76049804688</ele>
        <time>2012-12-02T09:09:49Z</time>
      </trkpt>
      <trkpt lat="48.43769" lon="2.70587">
        <ele>133.76049804688</ele>
        <time>2012-12-02T09:09:50Z</time>
      </trkpt>
      <trkpt lat="48.43753" lon="2.70579">
        <ele>133.76049804688</ele>
        <time>2012-12-02T09:09:56Z</time>
      </trkpt>
      <trkpt lat="48.43738" lon="2.70575">
        <ele>132.79931640625</ele>
        <time>2012-12-02T09:10:01Z</time>
      </trkpt>
      <trkpt lat="48.4373" lon="2.70578">
        <ele>132.31860351562</ele>
        <time>2012-12-02T09:10:05Z</time>
      </trkpt>
      <trkpt lat="48.43719" lon="2.7057">
        <ele>132.79931640625</ele>
        <time>2012-12-02T09:10:10Z</time>
      </trkpt>
      <trkpt lat="48.43711" lon="2.70561">
        <ele>133.76049804688</ele>
        <time>2012-12-02T09:10:15Z</time>
      </trkpt>
      <trkpt lat="48.4371" lon="2.70551">
        <ele>134.2412109375</ele>
        <time>2012-12-02T09:10:19Z</time>
      </trkpt>
      <trkpt lat="48.43708" lon="2.70546">
        <ele>135.20251464844</ele>
        <time>2012-12-02T09:10:24Z</time>
      </trkpt>
      <trkpt lat="48.43706" lon="2.7054">
        <ele>135.68310546875</ele>
        <time>2012-12-02T09:10:28Z</time>
      </trkpt>
      <trkpt lat="48.437" lon="2.7054">
        <ele>136.16394042969</ele>
        <time>2012-12-02T09:10:36Z</time>
      </trkpt>
      <trkpt lat="48.43699" lon="2.70542">
        <ele>135.68310546875</ele>
        <time>2012-12-02T09:10:44Z</time>
      </trkpt>
      <trkpt lat="48.43694" lon="2.70541">
        <ele>135.68310546875</ele>
        <time>2012-12-02T09:10:49Z</time>
      </trkpt>
      <trkpt lat="48.4369" lon="2.70541">
        <ele>136.16394042969</ele>
        <time>2012-12-02T09:10:52Z</time>
      </trkpt>
      <trkpt lat="48.43683" lon="2.70543">
        <ele>137.12524414062</ele>
        <time>2012-12-02T09:10:57Z</time>
      </trkpt>
      <trkpt lat="48.43678" lon="2.70549">
        <ele>137.12524414062</ele>
        <time>2012-12-02T09:11:00Z</time>
      </trkpt>
      <trkpt lat="48.43671" lon="2.7056">
        <ele>137.60583496094</ele>
        <time>2012-12-02T09:11:05Z</time>
      </trkpt>
      <trkpt lat="48.4367" lon="2.70561">
        <ele>137.12524414062</ele>
        <time>2012-12-02T09:11:06Z</time>
      </trkpt>
      <trkpt lat="48.43654" lon="2.7057">
        <ele>137.60583496094</ele>
        <time>2012-12-02T09:11:12Z</time>
      </trkpt>
      <trkpt lat="48.43652" lon="2.70571">
        <ele>137.12524414062</ele>
        <time>2012-12-02T09:11:13Z</time>
      </trkpt>
      <trkpt lat="48.43647" lon="2.70583">
        <ele>138.56726074219</ele>
        <time>2012-12-02T09:11:17Z</time>
      </trkpt>
      <trkpt lat="48.43645" lon="2.70591">
        <ele>138.56726074219</ele>
        <time>2012-12-02T09:11:22Z</time>
      </trkpt>
      <trkpt lat="48.43639" lon="2.706">
        <ele>137.60583496094</ele>
        <time>2012-12-02T09:11:28Z</time>
      </trkpt>
      <trkpt lat="48.43638" lon="2.70605">
        <ele>136.64465332031</ele>
        <time>2012-12-02T09:11:30Z</time>
      </trkpt>
      <trkpt lat="48.43634" lon="2.70613">
        <ele>136.64465332031</ele>
        <time>2012-12-02T09:11:33Z</time>
      </trkpt>
      <trkpt lat="48.43639" lon="2.70621">
        <ele>137.12524414062</ele>
        <time>2012-12-02T09:11:38Z</time>
      </trkpt>
      <trkpt lat="48.43634" lon="2.70626">
        <ele>137.12524414062</ele>
        <time>2012-12-02T09:11:43Z</time>
      </trkpt>
      <trkpt lat="48.43629" lon="2.70634">
        <ele>136.64465332031</ele>
        <time>2012-12-02T09:11:48Z</time>
      </trkpt>
      <trkpt lat="48.43624" lon="2.70637">
        <ele>136.16394042969</ele>
        <time>2012-12-02T09:11:51Z</time>
      </trkpt>
      <trkpt lat="48.43618" lon="2.70649">
        <ele>136.64465332031</ele>
        <time>2012-12-02T09:11:55Z</time>
      </trkpt>
      <trkpt lat="48.43616" lon="2.70673">
        <ele>136.64465332031</ele>
        <time>2012-12-02T09:12:01Z</time>
      </trkpt>
      <trkpt lat="48.43617" lon="2.70676">
        <ele>136.64465332031</ele>
        <time>2012-12-02T09:12:02Z</time>
      </trkpt>
      <trkpt lat="48.43625" lon="2.70682">
        <ele>137.12524414062</ele>
        <time>2012-12-02T09:12:07Z</time>
      </trkpt>
      <trkpt lat="48.43628" lon="2.70686">
        <ele>136.64465332031</ele>
        <time>2012-12-02T09:12:09Z</time>
      </trkpt>
      <trkpt lat="48.43633" lon="2.70693">
        <ele>136.16394042969</ele>
        <time>2012-12-02T09:12:11Z</time>
      </trkpt>
      <trkpt lat="48.43635" lon="2.70706">
        <ele>136.64465332031</ele>
        <time>2012-12-02T09:12:14Z</time>
      </trkpt>
      <trkpt lat="48.43643" lon="2.70718">
        <ele>136.64465332031</ele>
        <time>2012-12-02T09:12:19Z</time>
      </trkpt>
      <trkpt lat="48.43649" lon="2.70721">
        <ele>136.16394042969</ele>
        <time>2012-12-02T09:12:22Z</time>
      </trkpt>
      <trkpt lat="48.43649" lon="2.7074">
        <ele>136.16394042969</ele>
        <time>2012-12-02T09:12:28Z</time>
      </trkpt>
      <trkpt lat="48.43646" lon="2.70741">
        <ele>136.64465332031</ele>
        <time>2012-12-02T09:12:29Z</time>
      </trkpt>
      <trkpt lat="48.43632" lon="2.70758">
        <ele>136.16394042969</ele>
        <time>2012-12-02T09:12:36Z</time>
      </trkpt>
      <trkpt lat="48.43629" lon="2.70762">
        <ele>136.16394042969</ele>
        <time>2012-12-02T09:12:38Z</time>
      </trkpt>
      <trkpt lat="48.43618" lon="2.70774">
        <ele>135.68310546875</ele>
        <time>2012-12-02T09:12:45Z</time>
      </trkpt>
      <trkpt lat="48.43611" lon="2.70789">
        <ele>135.68310546875</ele>
        <time>2012-12-02T09:12:51Z</time>
      </trkpt>
      <trkpt lat="48.43609" lon="2.70801">
        <ele>135.68310546875</ele>
        <time>2012-12-02T09:12:54Z</time>
      </trkpt>
      <trkpt lat="48.43608" lon="2.70814">
        <ele>135.68310546875</ele>
        <time>2012-12-02T09:13:00Z</time>
      </trkpt>
      <trkpt lat="48.43607" lon="2.70817">
        <ele>135.20251464844</ele>
        <time>2012-12-02T09:13:03Z</time>
      </trkpt>
      <trkpt lat="48.43612" lon="2.70829">
        <ele>135.20251464844</ele>
        <time>2012-12-02T09:13:09Z</time>
      </trkpt>
      <trkpt lat="48.43608" lon="2.70841">
        <ele>134.72192382812</ele>
        <time>2012-12-02T09:13:15Z</time>
      </trkpt>
      <trkpt lat="48.43607" lon="2.70851">
        <ele>135.20251464844</ele>
        <time>2012-12-02T09:13:20Z</time>
      </trkpt>
      <trkpt lat="48.43608" lon="2.70865">
        <ele>134.72192382812</ele>
        <time>2012-12-02T09:13:26Z</time>
      </trkpt>
      <trkpt lat="48.43605" lon="2.7088">
        <ele>135.20251464844</ele>
        <time>2012-12-02T09:13:31Z</time>
      </trkpt>
      <trkpt lat="48.43604" lon="2.70886">
        <ele>135.20251464844</ele>
        <time>2012-12-02T09:13:33Z</time>
      </trkpt>
      <trkpt lat="48.43604" lon="2.70894">
        <ele>135.20251464844</ele>
        <time>2012-12-02T09:13:36Z</time>
      </trkpt>
      <trkpt lat="48.436" lon="2.70901">
        <ele>134.72192382812</ele>
        <time>2012-12-02T09:13:40Z</time>
      </trkpt>
      <trkpt lat="48.43597" lon="2.70914">
        <ele>134.2412109375</ele>
        <time>2012-12-02T09:13:44Z</time>
      </trkpt>
      <trkpt lat="48.43591" lon="2.70928">
        <ele>133.76049804688</ele>
        <time>2012-12-02T09:13:49Z</time>
      </trkpt>
      <trkpt lat="48.43582" lon="2.70956">
        <ele>134.2412109375</ele>
        <time>2012-12-02T09:13:56Z</time>
      </trkpt>
      <trkpt lat="48.43582" lon="2.70974">
        <ele>133.76049804688</ele>
        <time>2012-12-02T09:14:01Z</time>
      </trkpt>
      <trkpt lat="48.43583" lon="2.70984">
        <ele>133.76049804688</ele>
        <time>2012-12-02T09:14:06Z</time>
      </trkpt>
      <trkpt lat="48.43583" lon="2.70987">
        <ele>133.27990722656</ele>
        <time>2012-12-02T09:14:13Z</time>
      </trkpt>
      <trkpt lat="48.43587" lon="2.7099">
        <ele>132.31860351562</ele>
        <time>2012-12-02T09:14:21Z</time>
      </trkpt>
      <trkpt lat="48.43586" lon="2.7099">
        <ele>132.79931640625</ele>
        <time>2012-12-02T09:14:27Z</time>
      </trkpt>
      <trkpt lat="48.43586" lon="2.70993">
        <ele>130.39599609375</ele>
        <time>2012-12-02T09:14:33Z</time>
      </trkpt>
      <trkpt lat="48.43587" lon="2.70999">
        <ele>129.43469238281</ele>
        <time>2012-12-02T09:14:39Z</time>
      </trkpt>
      <trkpt lat="48.43587" lon="2.71001">
        <ele>129.43469238281</ele>
        <time>2012-12-02T09:14:42Z</time>
      </trkpt>
      <trkpt lat="48.43586" lon="2.71006">
        <ele>127.99255371094</ele>
        <time>2012-12-02T09:14:46Z</time>
      </trkpt>
      <trkpt lat="48.43584" lon="2.7101">
        <ele>127.03137207031</ele>
        <time>2012-12-02T09:14:51Z</time>
      </trkpt>
      <trkpt lat="48.43584" lon="2.71014">
        <ele>125.58935546875</ele>
        <time>2012-12-02T09:14:53Z</time>
      </trkpt>
      <trkpt lat="48.43583" lon="2.71018">
        <ele>124.62805175781</ele>
        <time>2012-12-02T09:14:56Z</time>
      </trkpt>
      <trkpt lat="48.43581" lon="2.71021">
        <ele>124.62805175781</ele>
        <time>2012-12-02T09:14:59Z</time>
      </trkpt>
      <trkpt lat="48.43571" lon="2.71021">
        <ele>122.70544433594</ele>
        <time>2012-12-02T09:15:05Z</time>
      </trkpt>
      <trkpt lat="48.43566" lon="2.71022">
        <ele>121.26354980469</ele>
        <time>2012-12-02T09:15:09Z</time>
      </trkpt>
      <trkpt lat="48.43565" lon="2.71024">
        <ele>120.30212402344</ele>
        <time>2012-12-02T09:15:11Z</time>
      </trkpt>
      <trkpt lat="48.43558" lon="2.71028">
        <ele>117.41821289062</ele>
        <time>2012-12-02T09:15:15Z</time>
      </trkpt>
      <trkpt lat="48.43553" lon="2.71028">
        <ele>115.49560546875</ele>
        <time>2012-12-02T09:15:17Z</time>
      </trkpt>
      <trkpt lat="48.43546" lon="2.71021">
        <ele>114.05358886719</ele>
        <time>2012-12-02T09:15:20Z</time>
      </trkpt>
      <trkpt lat="48.43538" lon="2.71006">
        <ele>112.61157226562</ele>
        <time>2012-12-02T09:15:24Z</time>
      </trkpt>
      <trkpt lat="48.43533" lon="2.71">
        <ele>111.65026855469</ele>
        <time>2012-12-02T09:15:26Z</time>
      </trkpt>
      <trkpt lat="48.43523" lon="2.71011">
        <ele>109.24694824219</ele>
        <time>2012-12-02T09:15:31Z</time>
      </trkpt>
      <trkpt lat="48.43513" lon="2.71024">
        <ele>107.32434082031</ele>
        <time>2012-12-02T09:15:34Z</time>
      </trkpt>
      <trkpt lat="48.43491" lon="2.71037">
        <ele>107.32434082031</ele>
        <time>2012-12-02T09:15:40Z</time>
      </trkpt>
      <trkpt lat="48.43488" lon="2.7104">
        <ele>107.32434082031</ele>
        <time>2012-12-02T09:15:43Z</time>
      </trkpt>
      <trkpt lat="48.43483" lon="2.7104">
        <ele>106.84362792969</ele>
        <time>2012-12-02T09:15:48Z</time>
      </trkpt>
      <trkpt lat="48.43483" lon="2.71043">
        <ele>106.84362792969</ele>
        <time>2012-12-02T09:15:54Z</time>
      </trkpt>
      <trkpt lat="48.43478" lon="2.71043">
        <ele>107.32434082031</ele>
        <time>2012-12-02T09:16:14Z</time>
      </trkpt>
      <trkpt lat="48.43479" lon="2.71045">
        <ele>107.32434082031</ele>
        <time>2012-12-02T09:16:32Z</time>
      </trkpt>
      <trkpt lat="48.43481" lon="2.71045">
        <ele>107.80505371094</ele>
        <time>2012-12-02T09:16:50Z</time>
      </trkpt>
      <trkpt lat="48.43481" lon="2.71045">
        <ele>107.32434082031</ele>
        <time>2012-12-02T09:19:15Z</time>
      </trkpt>
      <trkpt lat="48.43481" lon="2.71049">
        <ele>106.84362792969</ele>
        <time>2012-12-02T09:19:37Z</time>
      </trkpt>
      <trkpt lat="48.43478" lon="2.71052">
        <ele>110.20825195312</ele>
        <time>2012-12-02T09:23:08Z</time>
      </trkpt>
      <trkpt lat="48.43478" lon="2.71048">
        <ele>109.72766113281</ele>
        <time>2012-12-02T09:23:54Z</time>
      </trkpt>
      <trkpt lat="48.43478" lon="2.71039">
        <ele>110.20825195312</ele>
        <time>2012-12-02T09:24:05Z</time>
      </trkpt>
      <trkpt lat="48.4348" lon="2.71026">
        <ele>110.20825195312</ele>
        <time>2012-12-02T09:24:10Z</time>
      </trkpt>
      <trkpt lat="48.4348" lon="2.71003">
        <ele>110.68884277344</ele>
        <time>2012-12-02T09:24:15Z</time>
      </trkpt>
      <trkpt lat="48.43477" lon="2.70976">
        <ele>110.20825195312</ele>
        <time>2012-12-02T09:24:19Z</time>
      </trkpt>
      <trkpt lat="48.43476" lon="2.70958">
        <ele>111.16955566406</ele>
        <time>2012-12-02T09:24:23Z</time>
      </trkpt>
      <trkpt lat="48.43473" lon="2.7092">
        <ele>110.68884277344</ele>
        <time>2012-12-02T09:24:29Z</time>
      </trkpt>
      <trkpt lat="48.43467" lon="2.7089">
        <ele>110.68884277344</ele>
        <time>2012-12-02T09:24:34Z</time>
      </trkpt>
      <trkpt lat="48.43462" lon="2.70862">
        <ele>112.13098144531</ele>
        <time>2012-12-02T09:24:39Z</time>
      </trkpt>
      <trkpt lat="48.43459" lon="2.70847">
        <ele>113.09228515625</ele>
        <time>2012-12-02T09:24:41Z</time>
      </trkpt>
      <trkpt lat="48.43457" lon="2.70824">
        <ele>114.5341796875</ele>
        <time>2012-12-02T09:24:45Z</time>
      </trkpt>
      <trkpt lat="48.43456" lon="2.708">
        <ele>115.49560546875</ele>
        <time>2012-12-02T09:24:50Z</time>
      </trkpt>
      <trkpt lat="48.43454" lon="2.70784">
        <ele>116.9375</ele>
        <time>2012-12-02T09:24:54Z</time>
      </trkpt>
      <trkpt lat="48.43453" lon="2.70764">
        <ele>117.89880371094</ele>
        <time>2012-12-02T09:24:59Z</time>
      </trkpt>
      <trkpt lat="48.43448" lon="2.70744">
        <ele>118.86010742188</ele>
        <time>2012-12-02T09:25:04Z</time>
      </trkpt>
      <trkpt lat="48.43444" lon="2.70723">
        <ele>121.26354980469</ele>
        <time>2012-12-02T09:25:10Z</time>
      </trkpt>
      <trkpt lat="48.43441" lon="2.70703">
        <ele>120.78283691406</ele>
        <time>2012-12-02T09:25:15Z</time>
      </trkpt>
      <trkpt lat="48.43434" lon="2.70678">
        <ele>122.22473144531</ele>
        <time>2012-12-02T09:25:21Z</time>
      </trkpt>
      <trkpt lat="48.43431" lon="2.7067">
        <ele>122.70544433594</ele>
        <time>2012-12-02T09:25:26Z</time>
      </trkpt>
      <trkpt lat="48.43427" lon="2.70657">
        <ele>126.55065917969</ele>
        <time>2012-12-02T09:25:33Z</time>
      </trkpt>
      <trkpt lat="48.43426" lon="2.70655">
        <ele>126.55065917969</ele>
        <time>2012-12-02T09:25:34Z</time>
      </trkpt>
      <trkpt lat="48.43423" lon="2.70642">
        <ele>127.99255371094</ele>
        <time>2012-12-02T09:25:40Z</time>
      </trkpt>
      <trkpt lat="48.43419" lon="2.70629">
        <ele>129.43469238281</ele>
        <time>2012-12-02T09:25:46Z</time>
      </trkpt>
      <trkpt lat="48.43411" lon="2.70618">
        <ele>130.87670898438</ele>
        <time>2012-12-02T09:25:53Z</time>
      </trkpt>
      <trkpt lat="48.43403" lon="2.70609">
        <ele>132.79931640625</ele>
        <time>2012-12-02T09:25:59Z</time>
      </trkpt>
      <trkpt lat="48.43394" lon="2.70601">
        <ele>133.76049804688</ele>
        <time>2012-12-02T09:26:05Z</time>
      </trkpt>
      <trkpt lat="48.4338" lon="2.70596">
        <ele>134.2412109375</ele>
        <time>2012-12-02T09:26:12Z</time>
      </trkpt>
      <trkpt lat="48.43367" lon="2.70599">
        <ele>134.72192382812</ele>
        <time>2012-12-02T09:26:18Z</time>
      </trkpt>
      <trkpt lat="48.43353" lon="2.70608">
        <ele>135.20251464844</ele>
        <time>2012-12-02T09:26:24Z</time>
      </trkpt>
      <trkpt lat="48.43333" lon="2.70618">
        <ele>135.20251464844</ele>
        <time>2012-12-02T09:26:31Z</time>
      </trkpt>
      <trkpt lat="48.43322" lon="2.70621">
        <ele>135.68310546875</ele>
        <time>2012-12-02T09:26:35Z</time>
      </trkpt>
      <trkpt lat="48.43308" lon="2.70615">
        <ele>136.16394042969</ele>
        <time>2012-12-02T09:26:40Z</time>
      </trkpt>
      <trkpt lat="48.43303" lon="2.70614">
        <ele>136.64465332031</ele>
        <time>2012-12-02T09:26:42Z</time>
      </trkpt>
      <trkpt lat="48.43285" lon="2.70615">
        <ele>136.64465332031</ele>
        <time>2012-12-02T09:26:48Z</time>
      </trkpt>
      <trkpt lat="48.43279" lon="2.70614">
        <ele>136.64465332031</ele>
        <time>2012-12-02T09:26:50Z</time>
      </trkpt>
      <trkpt lat="48.43261" lon="2.70617">
        <ele>137.12524414062</ele>
        <time>2012-12-02T09:26:56Z</time>
      </trkpt>
      <trkpt lat="48.43242" lon="2.70614">
        <ele>137.60583496094</ele>
        <time>2012-12-02T09:27:02Z</time>
      </trkpt>
      <trkpt lat="48.43234" lon="2.70626">
        <ele>138.08654785156</ele>
        <time>2012-12-02T09:27:09Z</time>
      </trkpt>
      <trkpt lat="48.43225" lon="2.70639">
        <ele>137.60583496094</ele>
        <time>2012-12-02T09:27:15Z</time>
      </trkpt>
      <trkpt lat="48.43217" lon="2.70651">
        <ele>137.60583496094</ele>
        <time>2012-12-02T09:27:20Z</time>
      </trkpt>
      <trkpt lat="48.43204" lon="2.70656">
        <ele>138.08654785156</ele>
        <time>2012-12-02T09:27:25Z</time>
      </trkpt>
      <trkpt lat="48.43192" lon="2.70661">
        <ele>138.08654785156</ele>
        <time>2012-12-02T09:27:28Z</time>
      </trkpt>
      <trkpt lat="48.43173" lon="2.70664">
        <ele>138.08654785156</ele>
        <time>2012-12-02T09:27:32Z</time>
      </trkpt>
      <trkpt lat="48.43154" lon="2.70677">
        <ele>138.08654785156</ele>
        <time>2012-12-02T09:27:36Z</time>
      </trkpt>
      <trkpt lat="48.4314" lon="2.70694">
        <ele>137.12524414062</ele>
        <time>2012-12-02T09:27:39Z</time>
      </trkpt>
      <trkpt lat="48.4312" lon="2.70704">
        <ele>137.12524414062</ele>
        <time>2012-12-02T09:27:43Z</time>
      </trkpt>
      <trkpt lat="48.43093" lon="2.70693">
        <ele>137.60583496094</ele>
        <time>2012-12-02T09:27:49Z</time>
      </trkpt>
      <trkpt lat="48.4308" lon="2.70692">
        <ele>137.60583496094</ele>
        <time>2012-12-02T09:27:52Z</time>
      </trkpt>
      <trkpt lat="48.43076" lon="2.7069">
        <ele>137.60583496094</ele>
        <time>2012-12-02T09:27:53Z</time>
      </trkpt>
      <trkpt lat="48.43046" lon="2.70676">
        <ele>137.60583496094</ele>
        <time>2012-12-02T09:28:00Z</time>
      </trkpt>
      <trkpt lat="48.43025" lon="2.70682">
        <ele>137.60583496094</ele>
        <time>2012-12-02T09:28:05Z</time>
      </trkpt>
      <trkpt lat="48.43013" lon="2.70698">
        <ele>137.60583496094</ele>
        <time>2012-12-02T09:28:08Z</time>
      </trkpt>
      <trkpt lat="48.42991" lon="2.70721">
        <ele>138.08654785156</ele>
        <time>2012-12-02T09:28:13Z</time>
      </trkpt>
      <trkpt lat="48.42979" lon="2.70731">
        <ele>138.56726074219</ele>
        <time>2012-12-02T09:28:16Z</time>
      </trkpt>
      <trkpt lat="48.42958" lon="2.70747">
        <ele>139.52844238281</ele>
        <time>2012-12-02T09:28:22Z</time>
      </trkpt>
      <trkpt lat="48.4295" lon="2.70751">
        <ele>139.52844238281</ele>
        <time>2012-12-02T09:28:24Z</time>
      </trkpt>
      <trkpt lat="48.42934" lon="2.70758">
        <ele>140.48986816406</ele>
        <time>2012-12-02T09:28:28Z</time>
      </trkpt>
      <trkpt lat="48.42908" lon="2.7076">
        <ele>140.97045898438</ele>
        <time>2012-12-02T09:28:35Z</time>
      </trkpt>
      <trkpt lat="48.42892" lon="2.70757">
        <ele>142.41247558594</ele>
        <time>2012-12-02T09:28:40Z</time>
      </trkpt>
      <trkpt lat="48.42872" lon="2.70759">
        <ele>142.41247558594</ele>
        <time>2012-12-02T09:28:46Z</time>
      </trkpt>
      <trkpt lat="48.42853" lon="2.70761">
        <ele>143.37365722656</ele>
        <time>2012-12-02T09:28:51Z</time>
      </trkpt>
      <trkpt lat="48.42835" lon="2.70765">
        <ele>142.41247558594</ele>
        <time>2012-12-02T09:28:56Z</time>
      </trkpt>
      <trkpt lat="48.42816" lon="2.70767">
        <ele>142.41247558594</ele>
        <time>2012-12-02T09:29:01Z</time>
      </trkpt>
      <trkpt lat="48.42786" lon="2.7077">
        <ele>142.89306640625</ele>
        <time>2012-12-02T09:29:08Z</time>
      </trkpt>
      <trkpt lat="48.42767" lon="2.70766">
        <ele>143.85437011719</ele>
        <time>2012-12-02T09:29:13Z</time>
      </trkpt>
      <trkpt lat="48.42748" lon="2.70768">
        <ele>143.85437011719</ele>
        <time>2012-12-02T09:29:18Z</time>
      </trkpt>
      <trkpt lat="48.42735" lon="2.70758">
        <ele>143.85437011719</ele>
        <time>2012-12-02T09:29:22Z</time>
      </trkpt>
      <trkpt lat="48.42727" lon="2.70756">
        <ele>143.37365722656</ele>
        <time>2012-12-02T09:29:24Z</time>
      </trkpt>
      <trkpt lat="48.42704" lon="2.70764">
        <ele>143.85437011719</ele>
        <time>2012-12-02T09:29:29Z</time>
      </trkpt>
      <trkpt lat="48.42675" lon="2.70778">
        <ele>142.89306640625</ele>
        <time>2012-12-02T09:29:35Z</time>
      </trkpt>
      <trkpt lat="48.42643" lon="2.70791">
        <ele>142.41247558594</ele>
        <time>2012-12-02T09:29:41Z</time>
      </trkpt>
      <trkpt lat="48.42615" lon="2.70802">
        <ele>141.93176269531</ele>
        <time>2012-12-02T09:29:47Z</time>
      </trkpt>
      <trkpt lat="48.42577" lon="2.70818">
        <ele>141.93176269531</ele>
        <time>2012-12-02T09:29:55Z</time>
      </trkpt>
      <trkpt lat="48.42567" lon="2.70844">
        <ele>141.45104980469</ele>
        <time>2012-12-02T09:30:00Z</time>
      </trkpt>
      <trkpt lat="48.42557" lon="2.70865">
        <ele>141.45104980469</ele>
        <time>2012-12-02T09:30:04Z</time>
      </trkpt>
      <trkpt lat="48.42545" lon="2.70882">
        <ele>141.45104980469</ele>
        <time>2012-12-02T09:30:08Z</time>
      </trkpt>
      <trkpt lat="48.42539" lon="2.70889">
        <ele>141.45104980469</ele>
        <time>2012-12-02T09:30:10Z</time>
      </trkpt>
      <trkpt lat="48.42533" lon="2.709">
        <ele>141.45104980469</ele>
        <time>2012-12-02T09:30:16Z</time>
      </trkpt>
      <trkpt lat="48.42532" lon="2.70904">
        <ele>141.93176269531</ele>
        <time>2012-12-02T09:30:21Z</time>
      </trkpt>
      <trkpt lat="48.42533" lon="2.70906">
        <ele>141.93176269531</ele>
        <time>2012-12-02T09:30:32Z</time>
      </trkpt>
      <trkpt lat="48.42532" lon="2.70911">
        <ele>141.45104980469</ele>
        <time>2012-12-02T09:30:48Z</time>
      </trkpt>
      <trkpt lat="48.42529" lon="2.70913">
        <ele>140.97045898438</ele>
        <time>2012-12-02T09:30:53Z</time>
      </trkpt>
      <trkpt lat="48.42518" lon="2.70905">
        <ele>141.45104980469</ele>
        <time>2012-12-02T09:30:58Z</time>
      </trkpt>
      <trkpt lat="48.42496" lon="2.70884">
        <ele>140.97045898438</ele>
        <time>2012-12-02T09:31:04Z</time>
      </trkpt>
      <trkpt lat="48.42455" lon="2.70843">
        <ele>140.00915527344</ele>
        <time>2012-12-02T09:31:14Z</time>
      </trkpt>
      <trkpt lat="48.42427" lon="2.7082">
        <ele>139.0478515625</ele>
        <time>2012-12-02T09:31:20Z</time>
      </trkpt>
      <trkpt lat="48.42424" lon="2.70817">
        <ele>139.52844238281</ele>
        <time>2012-12-02T09:31:21Z</time>
      </trkpt>
      <trkpt lat="48.42418" lon="2.70825">
        <ele>138.56726074219</ele>
        <time>2012-12-02T09:31:25Z</time>
      </trkpt>
      <trkpt lat="48.4242" lon="2.70829">
        <ele>138.56726074219</ele>
        <time>2012-12-02T09:31:26Z</time>
      </trkpt>
      <trkpt lat="48.42425" lon="2.70846">
        <ele>139.0478515625</ele>
        <time>2012-12-02T09:31:33Z</time>
      </trkpt>
      <trkpt lat="48.42426" lon="2.70849">
        <ele>139.0478515625</ele>
        <time>2012-12-02T09:31:35Z</time>
      </trkpt>
      <trkpt lat="48.42421" lon="2.70855">
        <ele>138.56726074219</ele>
        <time>2012-12-02T09:31:39Z</time>
      </trkpt>
      <trkpt lat="48.42414" lon="2.70858">
        <ele>138.08654785156</ele>
        <time>2012-12-02T09:31:45Z</time>
      </trkpt>
      <trkpt lat="48.42412" lon="2.70863">
        <ele>138.08654785156</ele>
        <time>2012-12-02T09:31:49Z</time>
      </trkpt>
      <trkpt lat="48.424" lon="2.70864">
        <ele>137.60583496094</ele>
        <time>2012-12-02T09:31:54Z</time>
      </trkpt>
      <trkpt lat="48.42381" lon="2.7088">
        <ele>138.08654785156</ele>
        <time>2012-12-02T09:32:01Z</time>
      </trkpt>
      <trkpt lat="48.42365" lon="2.70893">
        <ele>138.08654785156</ele>
        <time>2012-12-02T09:32:06Z</time>
      </trkpt>
      <trkpt lat="48.42348" lon="2.709">
        <ele>138.08654785156</ele>
        <time>2012-12-02T09:32:12Z</time>
      </trkpt>
      <trkpt lat="48.42326" lon="2.7091">
        <ele>137.12524414062</ele>
        <time>2012-12-02T09:32:17Z</time>
      </trkpt>
      <trkpt lat="48.42313" lon="2.70915">
        <ele>136.64465332031</ele>
        <time>2012-12-02T09:32:20Z</time>
      </trkpt>
      <trkpt lat="48.42305" lon="2.7091">
        <ele>135.68310546875</ele>
        <time>2012-12-02T09:32:22Z</time>
      </trkpt>
      <trkpt lat="48.42295" lon="2.70893">
        <ele>135.20251464844</ele>
        <time>2012-12-02T09:32:25Z</time>
      </trkpt>
      <trkpt lat="48.42283" lon="2.7087">
        <ele>136.16394042969</ele>
        <time>2012-12-02T09:32:29Z</time>
      </trkpt>
      <trkpt lat="48.42273" lon="2.7086">
        <ele>137.60583496094</ele>
        <time>2012-12-02T09:32:33Z</time>
      </trkpt>
      <trkpt lat="48.42253" lon="2.70854">
        <ele>136.16394042969</ele>
        <time>2012-12-02T09:32:39Z</time>
      </trkpt>
      <trkpt lat="48.42245" lon="2.70856">
        <ele>135.20251464844</ele>
        <time>2012-12-02T09:32:42Z</time>
      </trkpt>
      <trkpt lat="48.42241" lon="2.70854">
        <ele>134.2412109375</ele>
        <time>2012-12-02T09:32:45Z</time>
      </trkpt>
      <trkpt lat="48.42237" lon="2.70849">
        <ele>134.72192382812</ele>
        <time>2012-12-02T09:32:51Z</time>
      </trkpt>
      <trkpt lat="48.42236" lon="2.70849">
        <ele>134.2412109375</ele>
        <time>2012-12-02T09:32:58Z</time>
      </trkpt>
      <trkpt lat="48.42235" lon="2.70851">
        <ele>133.76049804688</ele>
        <time>2012-12-02T09:33:04Z</time>
      </trkpt>
      <trkpt lat="48.42237" lon="2.70858">
        <ele>134.2412109375</ele>
        <time>2012-12-02T09:33:07Z</time>
      </trkpt>
      <trkpt lat="48.42236" lon="2.70869">
        <ele>133.76049804688</ele>
        <time>2012-12-02T09:33:11Z</time>
      </trkpt>
      <trkpt lat="48.42233" lon="2.70872">
        <ele>133.76049804688</ele>
        <time>2012-12-02T09:33:16Z</time>
      </trkpt>
      <trkpt lat="48.42232" lon="2.70872">
        <ele>133.76049804688</ele>
        <time>2012-12-02T09:33:25Z</time>
      </trkpt>
      <trkpt lat="48.42231" lon="2.70872">
        <ele>133.76049804688</ele>
        <time>2012-12-02T09:33:26Z</time>
      </trkpt>
      <trkpt lat="48.42223" lon="2.70872">
        <ele>132.31860351562</ele>
        <time>2012-12-02T09:33:29Z</time>
      </trkpt>
      <trkpt lat="48.42207" lon="2.70865">
        <ele>131.35729980469</ele>
        <time>2012-12-02T09:33:33Z</time>
      </trkpt>
      <trkpt lat="48.42203" lon="2.70865">
        <ele>131.35729980469</ele>
        <time>2012-12-02T09:33:34Z</time>
      </trkpt>
      <trkpt lat="48.42195" lon="2.70865">
        <ele>130.87670898438</ele>
        <time>2012-12-02T09:33:36Z</time>
      </trkpt>
      <trkpt lat="48.42176" lon="2.70862">
        <ele>125.58935546875</ele>
        <time>2012-12-02T09:33:40Z</time>
      </trkpt>
      <trkpt lat="48.42161" lon="2.70852">
        <ele>121.744140625</ele>
        <time>2012-12-02T09:33:45Z</time>
      </trkpt>
      <trkpt lat="48.42155" lon="2.70849">
        <ele>118.86010742188</ele>
        <time>2012-12-02T09:33:47Z</time>
      </trkpt>
      <trkpt lat="48.4214" lon="2.70841">
        <ele>115.97619628906</ele>
        <time>2012-12-02T09:33:51Z</time>
      </trkpt>
      <trkpt lat="48.42136" lon="2.70843">
        <ele>115.49560546875</ele>
        <time>2012-12-02T09:33:52Z</time>
      </trkpt>
      <trkpt lat="48.42118" lon="2.70839">
        <ele>111.65026855469</ele>
        <time>2012-12-02T09:33:56Z</time>
      </trkpt>
      <trkpt lat="48.42115" lon="2.70833">
        <ele>110.68884277344</ele>
        <time>2012-12-02T09:33:57Z</time>
      </trkpt>
      <trkpt lat="48.42097" lon="2.70797">
        <ele>108.28564453125</ele>
        <time>2012-12-02T09:34:02Z</time>
      </trkpt>
      <trkpt lat="48.4208" lon="2.70789">
        <ele>107.80505371094</ele>
        <time>2012-12-02T09:34:06Z</time>
      </trkpt>
      <trkpt lat="48.42068" lon="2.7079">
        <ele>106.84362792969</ele>
        <time>2012-12-02T09:34:08Z</time>
      </trkpt>
      <trkpt lat="48.42053" lon="2.70796">
        <ele>102.99829101562</ele>
        <time>2012-12-02T09:34:11Z</time>
      </trkpt>
      <trkpt lat="48.42025" lon="2.70797">
        <ele>100.59509277344</ele>
        <time>2012-12-02T09:34:16Z</time>
      </trkpt>
      <trkpt lat="48.42014" lon="2.70803">
        <ele>96.749877929688</ele>
        <time>2012-12-02T09:34:19Z</time>
      </trkpt>
      <trkpt lat="48.42011" lon="2.70807">
        <ele>95.307739257812</ele>
        <time>2012-12-02T09:34:20Z</time>
      </trkpt>
      <trkpt lat="48.41994" lon="2.70802">
        <ele>93.865844726562</ele>
        <time>2012-12-02T09:34:24Z</time>
      </trkpt>
      <trkpt lat="48.41978" lon="2.70786">
        <ele>92.423950195312</ele>
        <time>2012-12-02T09:34:27Z</time>
      </trkpt>
      <trkpt lat="48.41966" lon="2.70762">
        <ele>91.943237304688</ele>
        <time>2012-12-02T09:34:31Z</time>
      </trkpt>
      <trkpt lat="48.41964" lon="2.70763">
        <ele>91.462524414062</ele>
        <time>2012-12-02T09:34:34Z</time>
      </trkpt>
      <trkpt lat="48.41965" lon="2.70761">
        <ele>91.943237304688</ele>
        <time>2012-12-02T09:34:40Z</time>
      </trkpt>
      <trkpt lat="48.41965" lon="2.70761">
        <ele>92.423950195312</ele>
        <time>2012-12-02T09:34:48Z</time>
      </trkpt>
      <trkpt lat="48.41966" lon="2.70762">
        <ele>92.423950195312</ele>
        <time>2012-12-02T09:35:15Z</time>
      </trkpt>
      <trkpt lat="48.41964" lon="2.70771">
        <ele>91.943237304688</ele>
        <time>2012-12-02T09:35:30Z</time>
      </trkpt>
      <trkpt lat="48.41962" lon="2.70776">
        <ele>91.943237304688</ele>
        <time>2012-12-02T09:35:43Z</time>
      </trkpt>
      <trkpt lat="48.41963" lon="2.70775">
        <ele>92.904541015625</ele>
        <time>2012-12-02T09:35:54Z</time>
      </trkpt>
      <trkpt lat="48.41964" lon="2.70776">
        <ele>92.904541015625</ele>
        <time>2012-12-02T09:36:00Z</time>
      </trkpt>
      <trkpt lat="48.41966" lon="2.70785">
        <ele>92.904541015625</ele>
        <time>2012-12-02T09:36:06Z</time>
      </trkpt>
      <trkpt lat="48.41967" lon="2.70784">
        <ele>92.904541015625</ele>
        <time>2012-12-02T09:36:14Z</time>
      </trkpt>
      <trkpt lat="48.41974" lon="2.70791">
        <ele>92.904541015625</ele>
        <time>2012-12-02T09:36:19Z</time>
      </trkpt>
      <trkpt lat="48.41986" lon="2.70803">
        <ele>93.385131835938</ele>
        <time>2012-12-02T09:36:25Z</time>
      </trkpt>
      <trkpt lat="48.41999" lon="2.70813">
        <ele>93.865844726562</ele>
        <time>2012-12-02T09:36:32Z</time>
      </trkpt>
      <trkpt lat="48.42006" lon="2.70814">
        <ele>95.307739257812</ele>
        <time>2012-12-02T09:36:38Z</time>
      </trkpt>
      <trkpt lat="48.42007" lon="2.70814">
        <ele>95.307739257812</ele>
        <time>2012-12-02T09:36:39Z</time>
      </trkpt>
      <trkpt lat="48.42011" lon="2.70804">
        <ele>97.711181640625</ele>
        <time>2012-12-02T09:36:44Z</time>
      </trkpt>
      <trkpt lat="48.42016" lon="2.70802">
        <ele>100.59509277344</ele>
        <time>2012-12-02T09:36:48Z</time>
      </trkpt>
      <trkpt lat="48.42018" lon="2.708">
        <ele>102.99829101562</ele>
        <time>2012-12-02T09:36:54Z</time>
      </trkpt>
      <trkpt lat="48.42022" lon="2.70797">
        <ele>102.99829101562</ele>
        <time>2012-12-02T09:37:00Z</time>
      </trkpt>
      <trkpt lat="48.42028" lon="2.70797">
        <ele>103.47900390625</ele>
        <time>2012-12-02T09:37:05Z</time>
      </trkpt>
      <trkpt lat="48.42038" lon="2.70797">
        <ele>103.95971679688</ele>
        <time>2012-12-02T09:37:10Z</time>
      </trkpt>
      <trkpt lat="48.42046" lon="2.70795">
        <ele>103.47900390625</ele>
        <time>2012-12-02T09:37:16Z</time>
      </trkpt>
      <trkpt lat="48.42054" lon="2.7079">
        <ele>106.84362792969</ele>
        <time>2012-12-02T09:37:22Z</time>
      </trkpt>
      <trkpt lat="48.42058" lon="2.7079">
        <ele>107.80505371094</ele>
        <time>2012-12-02T09:37:28Z</time>
      </trkpt>
      <trkpt lat="48.42061" lon="2.70789">
        <ele>107.32434082031</ele>
        <time>2012-12-02T09:37:34Z</time>
      </trkpt>
      <trkpt lat="48.42067" lon="2.70787">
        <ele>108.28564453125</ele>
        <time>2012-12-02T09:37:40Z</time>
      </trkpt>
      <trkpt lat="48.42078" lon="2.70785">
        <ele>109.72766113281</ele>
        <time>2012-12-02T09:37:48Z</time>
      </trkpt>
      <trkpt lat="48.42082" lon="2.70788">
        <ele>108.76623535156</ele>
        <time>2012-12-02T09:37:50Z</time>
      </trkpt>
      <trkpt lat="48.42086" lon="2.70792">
        <ele>109.72766113281</ele>
        <time>2012-12-02T09:37:53Z</time>
      </trkpt>
      <trkpt lat="48.42095" lon="2.70808">
        <ele>108.76623535156</ele>
        <time>2012-12-02T09:37:57Z</time>
      </trkpt>
      <trkpt lat="48.42102" lon="2.7082">
        <ele>109.72766113281</ele>
        <time>2012-12-02T09:38:02Z</time>
      </trkpt>
      <trkpt lat="48.42111" lon="2.70832">
        <ele>111.16955566406</ele>
        <time>2012-12-02T09:38:09Z</time>
      </trkpt>
      <trkpt lat="48.42117" lon="2.70842">
        <ele>111.65026855469</ele>
        <time>2012-12-02T09:38:14Z</time>
      </trkpt>
      <trkpt lat="48.42125" lon="2.70845">
        <ele>113.57299804688</ele>
        <time>2012-12-02T09:38:22Z</time>
      </trkpt>
      <trkpt lat="48.42128" lon="2.70845">
        <ele>114.5341796875</ele>
        <time>2012-12-02T09:38:24Z</time>
      </trkpt>
      <trkpt lat="48.42132" lon="2.70839">
        <ele>116.45678710938</ele>
        <time>2012-12-02T09:38:29Z</time>
      </trkpt>
      <trkpt lat="48.42138" lon="2.70837">
        <ele>117.41821289062</ele>
        <time>2012-12-02T09:38:36Z</time>
      </trkpt>
      <trkpt lat="48.42145" lon="2.70836">
        <ele>118.86010742188</ele>
        <time>2012-12-02T09:38:41Z</time>
      </trkpt>
      <trkpt lat="48.42147" lon="2.70837">
        <ele>119.3408203125</ele>
        <time>2012-12-02T09:38:43Z</time>
      </trkpt>
      <trkpt lat="48.42151" lon="2.70843">
        <ele>121.26354980469</ele>
        <time>2012-12-02T09:38:50Z</time>
      </trkpt>
      <trkpt lat="48.42155" lon="2.7085">
        <ele>122.70544433594</ele>
        <time>2012-12-02T09:38:57Z</time>
      </trkpt>
      <trkpt lat="48.42159" lon="2.70846">
        <ele>123.66674804688</ele>
        <time>2012-12-02T09:39:00Z</time>
      </trkpt>
      <trkpt lat="48.42163" lon="2.70848">
        <ele>124.62805175781</ele>
        <time>2012-12-02T09:39:03Z</time>
      </trkpt>
      <trkpt lat="48.42169" lon="2.70856">
        <ele>125.58935546875</ele>
        <time>2012-12-02T09:39:10Z</time>
      </trkpt>
      <trkpt lat="48.42178" lon="2.70859">
        <ele>127.99255371094</ele>
        <time>2012-12-02T09:39:19Z</time>
      </trkpt>
      <trkpt lat="48.42184" lon="2.70862">
        <ele>130.39599609375</ele>
        <time>2012-12-02T09:39:25Z</time>
      </trkpt>
      <trkpt lat="48.42192" lon="2.70861">
        <ele>131.35729980469</ele>
        <time>2012-12-02T09:39:32Z</time>
      </trkpt>
      <trkpt lat="48.42199" lon="2.70861">
        <ele>131.35729980469</ele>
        <time>2012-12-02T09:39:39Z</time>
      </trkpt>
      <trkpt lat="48.42203" lon="2.70863">
        <ele>131.837890625</ele>
        <time>2012-12-02T09:39:42Z</time>
      </trkpt>
      <trkpt lat="48.42213" lon="2.70868">
        <ele>131.35729980469</ele>
        <time>2012-12-02T09:39:49Z</time>
      </trkpt>
      <trkpt lat="48.42221" lon="2.70868">
        <ele>132.31860351562</ele>
        <time>2012-12-02T09:39:56Z</time>
      </trkpt>
      <trkpt lat="48.42232" lon="2.70868">
        <ele>133.76049804688</ele>
        <time>2012-12-02T09:40:05Z</time>
      </trkpt>
      <trkpt lat="48.4224" lon="2.70865">
        <ele>135.68310546875</ele>
        <time>2012-12-02T09:40:13Z</time>
      </trkpt>
      <trkpt lat="48.42242" lon="2.70861">
        <ele>134.2412109375</ele>
        <time>2012-12-02T09:40:16Z</time>
      </trkpt>
      <trkpt lat="48.42241" lon="2.70856">
        <ele>133.76049804688</ele>
        <time>2012-12-02T09:40:20Z</time>
      </trkpt>
      <trkpt lat="48.42237" lon="2.70856">
        <ele>133.76049804688</ele>
        <time>2012-12-02T09:40:25Z</time>
      </trkpt>
      <trkpt lat="48.42236" lon="2.7086">
        <ele>133.27990722656</ele>
        <time>2012-12-02T09:40:37Z</time>
      </trkpt>
      <trkpt lat="48.42235" lon="2.70862">
        <ele>132.79931640625</ele>
        <time>2012-12-02T09:40:52Z</time>
      </trkpt>
      <trkpt lat="48.42234" lon="2.70869">
        <ele>132.79931640625</ele>
        <time>2012-12-02T09:41:30Z</time>
      </trkpt>
      <trkpt lat="48.4224" lon="2.70862">
        <ele>133.27990722656</ele>
        <time>2012-12-02T09:41:56Z</time>
      </trkpt>
      <trkpt lat="48.42244" lon="2.70861">
        <ele>133.27990722656</ele>
        <time>2012-12-02T09:42:07Z</time>
      </trkpt>
      <trkpt lat="48.42241" lon="2.70853">
        <ele>133.76049804688</ele>
        <time>2012-12-02T09:42:31Z</time>
      </trkpt>
      <trkpt lat="48.42236" lon="2.70851">
        <ele>134.2412109375</ele>
        <time>2012-12-02T09:42:52Z</time>
      </trkpt>
      <trkpt lat="48.42242" lon="2.70851">
        <ele>133.76049804688</ele>
        <time>2012-12-02T09:43:08Z</time>
      </trkpt>
      <trkpt lat="48.4224" lon="2.70858">
        <ele>134.2412109375</ele>
        <time>2012-12-02T09:43:54Z</time>
      </trkpt>
      <trkpt lat="48.42239" lon="2.70858">
        <ele>134.72192382812</ele>
        <time>2012-12-02T09:44:03Z</time>
      </trkpt>
      <trkpt lat="48.42239" lon="2.70859">
        <ele>135.20251464844</ele>
        <time>2012-12-02T09:44:07Z</time>
      </trkpt>
      <trkpt lat="48.42237" lon="2.70857">
        <ele>134.72192382812</ele>
        <time>2012-12-02T09:44:09Z</time>
      </trkpt>
      <trkpt lat="48.42234" lon="2.70842">
        <ele>135.20251464844</ele>
        <time>2012-12-02T09:44:15Z</time>
      </trkpt>
      <trkpt lat="48.42231" lon="2.70827">
        <ele>136.16394042969</ele>
        <time>2012-12-02T09:44:21Z</time>
      </trkpt>
      <trkpt lat="48.42227" lon="2.70813">
        <ele>138.08654785156</ele>
        <time>2012-12-02T09:44:27Z</time>
      </trkpt>
      <trkpt lat="48.42225" lon="2.70799">
        <ele>140.00915527344</ele>
        <time>2012-12-02T09:44:32Z</time>
      </trkpt>
      <trkpt lat="48.42224" lon="2.70782">
        <ele>139.52844238281</ele>
        <time>2012-12-02T09:44:36Z</time>
      </trkpt>
      <trkpt lat="48.42217" lon="2.70766">
        <ele>139.0478515625</ele>
        <time>2012-12-02T09:44:40Z</time>
      </trkpt>
      <trkpt lat="48.42216" lon="2.70761">
        <ele>138.08654785156</ele>
        <time>2012-12-02T09:44:41Z</time>
      </trkpt>
      <trkpt lat="48.42215" lon="2.70748">
        <ele>137.12524414062</ele>
        <time>2012-12-02T09:44:43Z</time>
      </trkpt>
      <trkpt lat="48.4221" lon="2.70724">
        <ele>138.56726074219</ele>
        <time>2012-12-02T09:44:47Z</time>
      </trkpt>
      <trkpt lat="48.42202" lon="2.70697">
        <ele>137.60583496094</ele>
        <time>2012-12-02T09:44:52Z</time>
      </trkpt>
      <trkpt lat="48.42194" lon="2.70691">
        <ele>136.64465332031</ele>
        <time>2012-12-02T09:44:54Z</time>
      </trkpt>
      <trkpt lat="48.42175" lon="2.7068">
        <ele>138.08654785156</ele>
        <time>2012-12-02T09:44:59Z</time>
      </trkpt>
      <trkpt lat="48.42168" lon="2.70677">
        <ele>138.56726074219</ele>
        <time>2012-12-02T09:45:01Z</time>
      </trkpt>
      <trkpt lat="48.42165" lon="2.7066">
        <ele>138.56726074219</ele>
        <time>2012-12-02T09:45:05Z</time>
      </trkpt>
      <trkpt lat="48.42167" lon="2.70647">
        <ele>139.52844238281</ele>
        <time>2012-12-02T09:45:08Z</time>
      </trkpt>
      <trkpt lat="48.42164" lon="2.70623">
        <ele>139.0478515625</ele>
        <time>2012-12-02T09:45:13Z</time>
      </trkpt>
      <trkpt lat="48.42161" lon="2.70599">
        <ele>137.60583496094</ele>
        <time>2012-12-02T09:45:18Z</time>
      </trkpt>
      <trkpt lat="48.42158" lon="2.70584">
        <ele>137.60583496094</ele>
        <time>2012-12-02T09:45:22Z</time>
      </trkpt>
      <trkpt lat="48.42162" lon="2.70566">
        <ele>138.08654785156</ele>
        <time>2012-12-02T09:45:26Z</time>
      </trkpt>
      <trkpt lat="48.42166" lon="2.70557">
        <ele>138.08654785156</ele>
        <time>2012-12-02T09:45:31Z</time>
      </trkpt>
      <trkpt lat="48.42165" lon="2.70555">
        <ele>138.08654785156</ele>
        <time>2012-12-02T09:45:32Z</time>
      </trkpt>
      <trkpt lat="48.4216" lon="2.70548">
        <ele>138.08654785156</ele>
        <time>2012-12-02T09:45:37Z</time>
      </trkpt>
      <trkpt lat="48.42164" lon="2.70536">
        <ele>138.56726074219</ele>
        <time>2012-12-02T09:45:43Z</time>
      </trkpt>
      <trkpt lat="48.42165" lon="2.70533">
        <ele>138.08654785156</ele>
        <time>2012-12-02T09:45:44Z</time>
      </trkpt>
      <trkpt lat="48.42173" lon="2.70516">
        <ele>138.56726074219</ele>
        <time>2012-12-02T09:45:50Z</time>
      </trkpt>
      <trkpt lat="48.42186" lon="2.70507">
        <ele>140.48986816406</ele>
        <time>2012-12-02T09:45:56Z</time>
      </trkpt>
      <trkpt lat="48.42204" lon="2.70502">
        <ele>139.0478515625</ele>
        <time>2012-12-02T09:46:02Z</time>
      </trkpt>
      <trkpt lat="48.42223" lon="2.70497">
        <ele>138.56726074219</ele>
        <time>2012-12-02T09:46:07Z</time>
      </trkpt>
      <trkpt lat="48.42238" lon="2.70493">
        <ele>138.08654785156</ele>
        <time>2012-12-02T09:46:10Z</time>
      </trkpt>
      <trkpt lat="48.42252" lon="2.7049">
        <ele>137.60583496094</ele>
        <time>2012-12-02T09:46:13Z</time>
      </trkpt>
      <trkpt lat="48.42282" lon="2.7048">
        <ele>135.20251464844</ele>
        <time>2012-12-02T09:46:18Z</time>
      </trkpt>
      <trkpt lat="48.42308" lon="2.70477">
        <ele>133.76049804688</ele>
        <time>2012-12-02T09:46:23Z</time>
      </trkpt>
      <trkpt lat="48.42314" lon="2.70478">
        <ele>134.2412109375</ele>
        <time>2012-12-02T09:46:25Z</time>
      </trkpt>
      <trkpt lat="48.42333" lon="2.70473">
        <ele>132.79931640625</ele>
        <time>2012-12-02T09:46:31Z</time>
      </trkpt>
      <trkpt lat="48.4234" lon="2.7047">
        <ele>131.35729980469</ele>
        <time>2012-12-02T09:46:33Z</time>
      </trkpt>
      <trkpt lat="48.42343" lon="2.70469">
        <ele>131.837890625</ele>
        <time>2012-12-02T09:46:34Z</time>
      </trkpt>
      <trkpt lat="48.42345" lon="2.7046">
        <ele>131.35729980469</ele>
        <time>2012-12-02T09:46:39Z</time>
      </trkpt>
      <trkpt lat="48.42338" lon="2.70439">
        <ele>130.87670898438</ele>
        <time>2012-12-02T09:46:46Z</time>
      </trkpt>
      <trkpt lat="48.42327" lon="2.70411">
        <ele>129.91528320312</ele>
        <time>2012-12-02T09:46:53Z</time>
      </trkpt>
      <trkpt lat="48.42322" lon="2.704">
        <ele>129.91528320312</ele>
        <time>2012-12-02T09:46:57Z</time>
      </trkpt>
      <trkpt lat="48.42321" lon="2.70397">
        <ele>129.43469238281</ele>
        <time>2012-12-02T09:46:58Z</time>
      </trkpt>
      <trkpt lat="48.42326" lon="2.70384">
        <ele>129.43469238281</ele>
        <time>2012-12-02T09:47:02Z</time>
      </trkpt>
      <trkpt lat="48.42335" lon="2.70369">
        <ele>129.91528320312</ele>
        <time>2012-12-02T09:47:07Z</time>
      </trkpt>
      <trkpt lat="48.4233" lon="2.70357">
        <ele>129.43469238281</ele>
        <time>2012-12-02T09:47:11Z</time>
      </trkpt>
      <trkpt lat="48.42323" lon="2.70344">
        <ele>130.39599609375</ele>
        <time>2012-12-02T09:47:14Z</time>
      </trkpt>
      <trkpt lat="48.42323" lon="2.70323">
        <ele>131.35729980469</ele>
        <time>2012-12-02T09:47:21Z</time>
      </trkpt>
      <trkpt lat="48.42318" lon="2.70313">
        <ele>131.35729980469</ele>
        <time>2012-12-02T09:47:25Z</time>
      </trkpt>
      <trkpt lat="48.42315" lon="2.70311">
        <ele>130.39599609375</ele>
        <time>2012-12-02T09:47:28Z</time>
      </trkpt>
      <trkpt lat="48.4231" lon="2.70302">
        <ele>128.9541015625</ele>
        <time>2012-12-02T09:47:34Z</time>
      </trkpt>
      <trkpt lat="48.4231" lon="2.70301">
        <ele>129.91528320312</ele>
        <time>2012-12-02T09:47:36Z</time>
      </trkpt>
      <trkpt lat="48.42311" lon="2.70292">
        <ele>129.91528320312</ele>
        <time>2012-12-02T09:47:44Z</time>
      </trkpt>
      <trkpt lat="48.42312" lon="2.70288">
        <ele>130.87670898438</ele>
        <time>2012-12-02T09:47:49Z</time>
      </trkpt>
      <trkpt lat="48.42313" lon="2.70284">
        <ele>130.87670898438</ele>
        <time>2012-12-02T09:47:56Z</time>
      </trkpt>
      <trkpt lat="48.42314" lon="2.70279">
        <ele>131.35729980469</ele>
        <time>2012-12-02T09:47:59Z</time>
      </trkpt>
      <trkpt lat="48.42319" lon="2.70274">
        <ele>132.79931640625</ele>
        <time>2012-12-02T09:48:05Z</time>
      </trkpt>
      <trkpt lat="48.42319" lon="2.70274">
        <ele>132.31860351562</ele>
        <time>2012-12-02T09:48:06Z</time>
      </trkpt>
      <trkpt lat="48.42319" lon="2.70268">
        <ele>132.79931640625</ele>
        <time>2012-12-02T09:48:11Z</time>
      </trkpt>
      <trkpt lat="48.42319" lon="2.70266">
        <ele>133.76049804688</ele>
        <time>2012-12-02T09:48:14Z</time>
      </trkpt>
      <trkpt lat="48.42318" lon="2.70253">
        <ele>133.27990722656</ele>
        <time>2012-12-02T09:48:19Z</time>
      </trkpt>
      <trkpt lat="48.42319" lon="2.70248">
        <ele>133.27990722656</ele>
        <time>2012-12-02T09:48:21Z</time>
      </trkpt>
      <trkpt lat="48.42324" lon="2.70234">
        <ele>135.68310546875</ele>
        <time>2012-12-02T09:48:28Z</time>
      </trkpt>
      <trkpt lat="48.42328" lon="2.70227">
        <ele>135.68310546875</ele>
        <time>2012-12-02T09:48:31Z</time>
      </trkpt>
      <trkpt lat="48.42325" lon="2.70208">
        <ele>136.16394042969</ele>
        <time>2012-12-02T09:48:38Z</time>
      </trkpt>
      <trkpt lat="48.42323" lon="2.70206">
        <ele>136.16394042969</ele>
        <time>2012-12-02T09:48:39Z</time>
      </trkpt>
      <trkpt lat="48.42316" lon="2.70198">
        <ele>135.68310546875</ele>
        <time>2012-12-02T09:48:42Z</time>
      </trkpt>
      <trkpt lat="48.42314" lon="2.7018">
        <ele>134.72192382812</ele>
        <time>2012-12-02T09:48:48Z</time>
      </trkpt>
      <trkpt lat="48.42316" lon="2.70173">
        <ele>134.72192382812</ele>
        <time>2012-12-02T09:48:53Z</time>
      </trkpt>
      <trkpt lat="48.42312" lon="2.70159">
        <ele>134.72192382812</ele>
        <time>2012-12-02T09:48:58Z</time>
      </trkpt>
      <trkpt lat="48.42311" lon="2.70155">
        <ele>135.20251464844</ele>
        <time>2012-12-02T09:49:01Z</time>
      </trkpt>
      <trkpt lat="48.42316" lon="2.70151">
        <ele>135.68310546875</ele>
        <time>2012-12-02T09:49:06Z</time>
      </trkpt>
      <trkpt lat="48.42319" lon="2.70147">
        <ele>136.16394042969</ele>
        <time>2012-12-02T09:49:11Z</time>
      </trkpt>
      <trkpt lat="48.4232" lon="2.70151">
        <ele>136.16394042969</ele>
        <time>2012-12-02T09:49:16Z</time>
      </trkpt>
      <trkpt lat="48.4233" lon="2.70153">
        <ele>136.16394042969</ele>
        <time>2012-12-02T09:49:22Z</time>
      </trkpt>
      <trkpt lat="48.42337" lon="2.70148">
        <ele>136.16394042969</ele>
        <time>2012-12-02T09:49:25Z</time>
      </trkpt>
      <trkpt lat="48.4234" lon="2.70135">
        <ele>136.16394042969</ele>
        <time>2012-12-02T09:49:29Z</time>
      </trkpt>
      <trkpt lat="48.4234" lon="2.70119">
        <ele>135.68310546875</ele>
        <time>2012-12-02T09:49:32Z</time>
      </trkpt>
      <trkpt lat="48.4234" lon="2.701">
        <ele>134.2412109375</ele>
        <time>2012-12-02T09:49:37Z</time>
      </trkpt>
      <trkpt lat="48.42342" lon="2.70097">
        <ele>133.27990722656</ele>
        <time>2012-12-02T09:49:38Z</time>
      </trkpt>
      <trkpt lat="48.42347" lon="2.70078">
        <ele>133.27990722656</ele>
        <time>2012-12-02T09:49:43Z</time>
      </trkpt>
      <trkpt lat="48.42345" lon="2.70062">
        <ele>133.27990722656</ele>
        <time>2012-12-02T09:49:46Z</time>
      </trkpt>
      <trkpt lat="48.42333" lon="2.70055">
        <ele>134.2412109375</ele>
        <time>2012-12-02T09:49:51Z</time>
      </trkpt>
      <trkpt lat="48.42326" lon="2.70054">
        <ele>135.20251464844</ele>
        <time>2012-12-02T09:49:55Z</time>
      </trkpt>
      <trkpt lat="48.42325" lon="2.70053">
        <ele>135.20251464844</ele>
        <time>2012-12-02T09:49:56Z</time>
      </trkpt>
      <trkpt lat="48.42315" lon="2.70057">
        <ele>134.2412109375</ele>
        <time>2012-12-02T09:50:01Z</time>
      </trkpt>
      <trkpt lat="48.42309" lon="2.70063">
        <ele>133.76049804688</ele>
        <time>2012-12-02T09:50:04Z</time>
      </trkpt>
      <trkpt lat="48.423" lon="2.70069">
        <ele>132.31860351562</ele>
        <time>2012-12-02T09:50:10Z</time>
      </trkpt>
      <trkpt lat="48.42297" lon="2.70069">
        <ele>132.31860351562</ele>
        <time>2012-12-02T09:50:15Z</time>
      </trkpt>
      <trkpt lat="48.42296" lon="2.70069">
        <ele>132.31860351562</ele>
        <time>2012-12-02T09:50:21Z</time>
      </trkpt>
      <trkpt lat="48.42292" lon="2.70067">
        <ele>131.837890625</ele>
        <time>2012-12-02T09:50:28Z</time>
      </trkpt>
      <trkpt lat="48.4229" lon="2.7006">
        <ele>130.87670898438</ele>
        <time>2012-12-02T09:50:34Z</time>
      </trkpt>
      <trkpt lat="48.42294" lon="2.70047">
        <ele>130.87670898438</ele>
        <time>2012-12-02T09:50:42Z</time>
      </trkpt>
      <trkpt lat="48.42294" lon="2.7004">
        <ele>130.39599609375</ele>
        <time>2012-12-02T09:50:48Z</time>
      </trkpt>
      <trkpt lat="48.42296" lon="2.70029">
        <ele>132.31860351562</ele>
        <time>2012-12-02T09:50:55Z</time>
      </trkpt>
      <trkpt lat="48.42298" lon="2.70026">
        <ele>131.837890625</ele>
        <time>2012-12-02T09:51:00Z</time>
      </trkpt>
      <trkpt lat="48.42302" lon="2.70023">
        <ele>132.31860351562</ele>
        <time>2012-12-02T09:51:09Z</time>
      </trkpt>
      <trkpt lat="48.42303" lon="2.70019">
        <ele>132.31860351562</ele>
        <time>2012-12-02T09:51:15Z</time>
      </trkpt>
      <trkpt lat="48.42306" lon="2.70013">
        <ele>132.79931640625</ele>
        <time>2012-12-02T09:51:22Z</time>
      </trkpt>
      <trkpt lat="48.4231" lon="2.70012">
        <ele>134.2412109375</ele>
        <time>2012-12-02T09:51:28Z</time>
      </trkpt>
      <trkpt lat="48.42312" lon="2.70006">
        <ele>135.20251464844</ele>
        <time>2012-12-02T09:51:34Z</time>
      </trkpt>
      <trkpt lat="48.42314" lon="2.70003">
        <ele>135.68310546875</ele>
        <time>2012-12-02T09:51:39Z</time>
      </trkpt>
      <trkpt lat="48.42321" lon="2.69997">
        <ele>135.68310546875</ele>
        <time>2012-12-02T09:51:46Z</time>
      </trkpt>
      <trkpt lat="48.42326" lon="2.69994">
        <ele>136.16394042969</ele>
        <time>2012-12-02T09:51:50Z</time>
      </trkpt>
      <trkpt lat="48.4233" lon="2.69992">
        <ele>136.16394042969</ele>
        <time>2012-12-02T09:51:53Z</time>
      </trkpt>
      <trkpt lat="48.42332" lon="2.6998">
        <ele>136.16394042969</ele>
        <time>2012-12-02T09:51:59Z</time>
      </trkpt>
      <trkpt lat="48.42334" lon="2.69971">
        <ele>136.16394042969</ele>
        <time>2012-12-02T09:52:05Z</time>
      </trkpt>
      <trkpt lat="48.42325" lon="2.69964">
        <ele>134.72192382812</ele>
        <time>2012-12-02T09:52:10Z</time>
      </trkpt>
      <trkpt lat="48.42321" lon="2.69964">
        <ele>134.72192382812</ele>
        <time>2012-12-02T09:52:11Z</time>
      </trkpt>
      <trkpt lat="48.42314" lon="2.69964">
        <ele>134.2412109375</ele>
        <time>2012-12-02T09:52:13Z</time>
      </trkpt>
      <trkpt lat="48.4231" lon="2.69954">
        <ele>134.2412109375</ele>
        <time>2012-12-02T09:52:17Z</time>
      </trkpt>
      <trkpt lat="48.42305" lon="2.69951">
        <ele>134.2412109375</ele>
        <time>2012-12-02T09:52:20Z</time>
      </trkpt>
      <trkpt lat="48.42289" lon="2.69953">
        <ele>134.2412109375</ele>
        <time>2012-12-02T09:52:26Z</time>
      </trkpt>
      <trkpt lat="48.42282" lon="2.69949">
        <ele>133.27990722656</ele>
        <time>2012-12-02T09:52:31Z</time>
      </trkpt>
      <trkpt lat="48.42279" lon="2.69946">
        <ele>133.76049804688</ele>
        <time>2012-12-02T09:52:33Z</time>
      </trkpt>
      <trkpt lat="48.4227" lon="2.69936">
        <ele>131.837890625</ele>
        <time>2012-12-02T09:52:39Z</time>
      </trkpt>
      <trkpt lat="48.42267" lon="2.69931">
        <ele>130.87670898438</ele>
        <time>2012-12-02T09:52:43Z</time>
      </trkpt>
      <trkpt lat="48.42271" lon="2.69923">
        <ele>131.837890625</ele>
        <time>2012-12-02T09:52:50Z</time>
      </trkpt>
      <trkpt lat="48.42272" lon="2.69922">
        <ele>131.837890625</ele>
        <time>2012-12-02T09:52:51Z</time>
      </trkpt>
      <trkpt lat="48.42275" lon="2.69915">
        <ele>132.31860351562</ele>
        <time>2012-12-02T09:52:58Z</time>
      </trkpt>
      <trkpt lat="48.42278" lon="2.69913">
        <ele>131.35729980469</ele>
        <time>2012-12-02T09:53:03Z</time>
      </trkpt>
      <trkpt lat="48.42282" lon="2.69909">
        <ele>130.39599609375</ele>
        <time>2012-12-02T09:53:10Z</time>
      </trkpt>
      <trkpt lat="48.42287" lon="2.69907">
        <ele>130.39599609375</ele>
        <time>2012-12-02T09:53:16Z</time>
      </trkpt>
      <trkpt lat="48.42292" lon="2.69903">
        <ele>129.43469238281</ele>
        <time>2012-12-02T09:53:23Z</time>
      </trkpt>
      <trkpt lat="48.42292" lon="2.69898">
        <ele>129.91528320312</ele>
        <time>2012-12-02T09:53:28Z</time>
      </trkpt>
      <trkpt lat="48.42294" lon="2.69892">
        <ele>129.91528320312</ele>
        <time>2012-12-02T09:53:35Z</time>
      </trkpt>
      <trkpt lat="48.42295" lon="2.69888">
        <ele>130.39599609375</ele>
        <time>2012-12-02T09:53:40Z</time>
      </trkpt>
      <trkpt lat="48.42294" lon="2.69885">
        <ele>130.87670898438</ele>
        <time>2012-12-02T09:53:45Z</time>
      </trkpt>
      <trkpt lat="48.4229" lon="2.69885">
        <ele>130.87670898438</ele>
        <time>2012-12-02T09:53:52Z</time>
      </trkpt>
      <trkpt lat="48.42289" lon="2.69879">
        <ele>131.837890625</ele>
        <time>2012-12-02T09:53:57Z</time>
      </trkpt>
      <trkpt lat="48.42287" lon="2.69876">
        <ele>132.79931640625</ele>
        <time>2012-12-02T09:54:03Z</time>
      </trkpt>
      <trkpt lat="48.42287" lon="2.69875">
        <ele>132.79931640625</ele>
        <time>2012-12-02T09:54:04Z</time>
      </trkpt>
      <trkpt lat="48.42284" lon="2.69867">
        <ele>133.76049804688</ele>
        <time>2012-12-02T09:54:12Z</time>
      </trkpt>
      <trkpt lat="48.42283" lon="2.69863">
        <ele>133.27990722656</ele>
        <time>2012-12-02T09:54:18Z</time>
      </trkpt>
      <trkpt lat="48.42285" lon="2.69859">
        <ele>133.76049804688</ele>
        <time>2012-12-02T09:54:21Z</time>
      </trkpt>
      <trkpt lat="48.42289" lon="2.69856">
        <ele>134.2412109375</ele>
        <time>2012-12-02T09:54:27Z</time>
      </trkpt>
      <trkpt lat="48.4229" lon="2.69855">
        <ele>135.68310546875</ele>
        <time>2012-12-02T09:54:32Z</time>
      </trkpt>
      <trkpt lat="48.42294" lon="2.69854">
        <ele>137.12524414062</ele>
        <time>2012-12-02T09:54:39Z</time>
      </trkpt>
      <trkpt lat="48.42298" lon="2.69856">
        <ele>136.16394042969</ele>
        <time>2012-12-02T09:54:46Z</time>
      </trkpt>
      <trkpt lat="48.42298" lon="2.69853">
        <ele>136.64465332031</ele>
        <time>2012-12-02T09:54:51Z</time>
      </trkpt>
      <trkpt lat="48.42297" lon="2.69852">
        <ele>136.64465332031</ele>
        <time>2012-12-02T09:55:01Z</time>
      </trkpt>
      <trkpt lat="48.42296" lon="2.69851">
        <ele>136.16394042969</ele>
        <time>2012-12-02T09:55:11Z</time>
      </trkpt>
      <trkpt lat="48.42297" lon="2.69848">
        <ele>135.20251464844</ele>
        <time>2012-12-02T09:55:38Z</time>
      </trkpt>
      <trkpt lat="48.42304" lon="2.69851">
        <ele>136.16394042969</ele>
        <time>2012-12-02T09:56:33Z</time>
      </trkpt>
      <trkpt lat="48.42303" lon="2.69855">
        <ele>135.68310546875</ele>
        <time>2012-12-02T09:56:51Z</time>
      </trkpt>
      <trkpt lat="48.42298" lon="2.69853">
        <ele>135.68310546875</ele>
        <time>2012-12-02T09:57:04Z</time>
      </trkpt>
      <trkpt lat="48.423" lon="2.69854">
        <ele>136.16394042969</ele>
        <time>2012-12-02T09:57:23Z</time>
      </trkpt>
      <trkpt lat="48.42302" lon="2.69855">
        <ele>135.20251464844</ele>
        <time>2012-12-02T09:57:38Z</time>
      </trkpt>
      <trkpt lat="48.42302" lon="2.69855">
        <ele>135.20251464844</ele>
        <time>2012-12-02T09:57:50Z</time>
      </trkpt>
      <trkpt lat="48.42302" lon="2.69853">
        <ele>136.16394042969</ele>
        <time>2012-12-02T09:58:16Z</time>
      </trkpt>
      <trkpt lat="48.42302" lon="2.69852">
        <ele>135.20251464844</ele>
        <time>2012-12-02T09:58:21Z</time>
      </trkpt>
      <trkpt lat="48.42301" lon="2.69852">
        <ele>135.20251464844</ele>
        <time>2012-12-02T09:58:22Z</time>
      </trkpt>
      <trkpt lat="48.42295" lon="2.69852">
        <ele>134.2412109375</ele>
        <time>2012-12-02T10:00:26Z</time>
      </trkpt>
      <trkpt lat="48.42295" lon="2.69855">
        <ele>133.76049804688</ele>
        <time>2012-12-02T10:00:54Z</time>
      </trkpt>
      <trkpt lat="48.42296" lon="2.69853">
        <ele>136.16394042969</ele>
        <time>2012-12-02T10:01:35Z</time>
      </trkpt>
      <trkpt lat="48.42297" lon="2.69852">
        <ele>136.16394042969</ele>
        <time>2012-12-02T10:01:42Z</time>
      </trkpt>
      <trkpt lat="48.42291" lon="2.69844">
        <ele>135.68310546875</ele>
        <time>2012-12-02T10:01:47Z</time>
      </trkpt>
      <trkpt lat="48.42278" lon="2.69837">
        <ele>133.27990722656</ele>
        <time>2012-12-02T10:01:54Z</time>
      </trkpt>
      <trkpt lat="48.42271" lon="2.69834">
        <ele>131.837890625</ele>
        <time>2012-12-02T10:01:58Z</time>
      </trkpt>
      <trkpt lat="48.42271" lon="2.69822">
        <ele>127.99255371094</ele>
        <time>2012-12-02T10:02:03Z</time>
      </trkpt>
      <trkpt lat="48.42268" lon="2.69807">
        <ele>126.55065917969</ele>
        <time>2012-12-02T10:02:09Z</time>
      </trkpt>
      <trkpt lat="48.42259" lon="2.69801">
        <ele>124.14733886719</ele>
        <time>2012-12-02T10:02:13Z</time>
      </trkpt>
      <trkpt lat="48.42254" lon="2.698">
        <ele>122.70544433594</ele>
        <time>2012-12-02T10:02:16Z</time>
      </trkpt>
      <trkpt lat="48.42252" lon="2.698">
        <ele>122.22473144531</ele>
        <time>2012-12-02T10:02:17Z</time>
      </trkpt>
      <trkpt lat="48.42244" lon="2.69808">
        <ele>119.3408203125</ele>
        <time>2012-12-02T10:02:23Z</time>
      </trkpt>
      <trkpt lat="48.42238" lon="2.69809">
        <ele>117.41821289062</ele>
        <time>2012-12-02T10:02:26Z</time>
      </trkpt>
      <trkpt lat="48.42234" lon="2.69807">
        <ele>115.97619628906</ele>
        <time>2012-12-02T10:02:28Z</time>
      </trkpt>
      <trkpt lat="48.42221" lon="2.69807">
        <ele>112.13098144531</ele>
        <time>2012-12-02T10:02:32Z</time>
      </trkpt>
      <trkpt lat="48.42209" lon="2.69805">
        <ele>109.72766113281</ele>
        <time>2012-12-02T10:02:36Z</time>
      </trkpt>
      <trkpt lat="48.42199" lon="2.69799">
        <ele>109.24694824219</ele>
        <time>2012-12-02T10:02:40Z</time>
      </trkpt>
      <trkpt lat="48.42195" lon="2.69796">
        <ele>109.24694824219</ele>
        <time>2012-12-02T10:02:44Z</time>
      </trkpt>
      <trkpt lat="48.42196" lon="2.69799">
        <ele>108.76623535156</ele>
        <time>2012-12-02T10:04:15Z</time>
      </trkpt>
      <trkpt lat="48.42194" lon="2.69797">
        <ele>108.76623535156</ele>
        <time>2012-12-02T10:04:40Z</time>
      </trkpt>
      <trkpt lat="48.42194" lon="2.69789">
        <ele>108.28564453125</ele>
        <time>2012-12-02T10:05:24Z</time>
      </trkpt>
      <trkpt lat="48.42194" lon="2.69794">
        <ele>108.76623535156</ele>
        <time>2012-12-02T10:05:54Z</time>
      </trkpt>
      <trkpt lat="48.42192" lon="2.69792">
        <ele>109.24694824219</ele>
        <time>2012-12-02T10:06:25Z</time>
      </trkpt>
      <trkpt lat="48.42191" lon="2.698">
        <ele>109.24694824219</ele>
        <time>2012-12-02T10:07:46Z</time>
      </trkpt>
      <trkpt lat="48.42191" lon="2.69799">
        <ele>109.24694824219</ele>
        <time>2012-12-02T10:07:59Z</time>
      </trkpt>
      <trkpt lat="48.42188" lon="2.69797">
        <ele>109.72766113281</ele>
        <time>2012-12-02T10:08:23Z</time>
      </trkpt>
      <trkpt lat="48.42188" lon="2.69798">
        <ele>110.20825195312</ele>
        <time>2012-12-02T10:08:55Z</time>
      </trkpt>
      <trkpt lat="48.42186" lon="2.69807">
        <ele>110.68884277344</ele>
        <time>2012-12-02T10:09:21Z</time>
      </trkpt>
      <trkpt lat="48.42183" lon="2.69804">
        <ele>110.68884277344</ele>
        <time>2012-12-02T10:10:56Z</time>
      </trkpt>
      <trkpt lat="48.42183" lon="2.698">
        <ele>110.20825195312</ele>
        <time>2012-12-02T10:11:20Z</time>
      </trkpt>
      <trkpt lat="48.42184" lon="2.69799">
        <ele>110.68884277344</ele>
        <time>2012-12-02T10:11:31Z</time>
      </trkpt>
      <trkpt lat="48.42188" lon="2.69802">
        <ele>111.16955566406</ele>
        <time>2012-12-02T10:11:44Z</time>
      </trkpt>
      <trkpt lat="48.42193" lon="2.69801">
        <ele>110.68884277344</ele>
        <time>2012-12-02T10:12:04Z</time>
      </trkpt>
      <trkpt lat="48.42194" lon="2.69797">
        <ele>110.68884277344</ele>
        <time>2012-12-02T10:12:07Z</time>
      </trkpt>
      <trkpt lat="48.42195" lon="2.69791">
        <ele>110.20825195312</ele>
        <time>2012-12-02T10:12:10Z</time>
      </trkpt>
      <trkpt lat="48.42193" lon="2.6979">
        <ele>109.24694824219</ele>
        <time>2012-12-02T10:12:12Z</time>
      </trkpt>
      <trkpt lat="48.42189" lon="2.69788">
        <ele>107.32434082031</ele>
        <time>2012-12-02T10:12:16Z</time>
      </trkpt>
      <trkpt lat="48.42189" lon="2.69774">
        <ele>106.84362792969</ele>
        <time>2012-12-02T10:12:21Z</time>
      </trkpt>
      <trkpt lat="48.42184" lon="2.69778">
        <ele>106.36303710938</ele>
        <time>2012-12-02T10:12:26Z</time>
      </trkpt>
      <trkpt lat="48.42176" lon="2.69787">
        <ele>103.95971679688</ele>
        <time>2012-12-02T10:12:30Z</time>
      </trkpt>
      <trkpt lat="48.42175" lon="2.69789">
        <ele>103.95971679688</ele>
        <time>2012-12-02T10:12:31Z</time>
      </trkpt>
      <trkpt lat="48.42165" lon="2.69799">
        <ele>102.51770019531</ele>
        <time>2012-12-02T10:12:34Z</time>
      </trkpt>
      <trkpt lat="48.42149" lon="2.69805">
        <ele>98.19189453125</ele>
        <time>2012-12-02T10:12:38Z</time>
      </trkpt>
      <trkpt lat="48.42135" lon="2.69817">
        <ele>95.788452148438</ele>
        <time>2012-12-02T10:12:42Z</time>
      </trkpt>
      <trkpt lat="48.42125" lon="2.69827">
        <ele>92.904541015625</ele>
        <time>2012-12-02T10:12:46Z</time>
      </trkpt>
      <trkpt lat="48.42123" lon="2.69829">
        <ele>92.904541015625</ele>
        <time>2012-12-02T10:12:47Z</time>
      </trkpt>
      <trkpt lat="48.42114" lon="2.69833">
        <ele>92.904541015625</ele>
        <time>2012-12-02T10:12:52Z</time>
      </trkpt>
      <trkpt lat="48.42113" lon="2.69834">
        <ele>92.904541015625</ele>
        <time>2012-12-02T10:12:53Z</time>
      </trkpt>
      <trkpt lat="48.4211" lon="2.69841">
        <ele>92.423950195312</ele>
        <time>2012-12-02T10:12:56Z</time>
      </trkpt>
      <trkpt lat="48.42101" lon="2.69849">
        <ele>92.904541015625</ele>
        <time>2012-12-02T10:13:02Z</time>
      </trkpt>
      <trkpt lat="48.42091" lon="2.69859">
        <ele>92.423950195312</ele>
        <time>2012-12-02T10:13:07Z</time>
      </trkpt>
      <trkpt lat="48.42086" lon="2.69867">
        <ele>91.943237304688</ele>
        <time>2012-12-02T10:13:13Z</time>
      </trkpt>
      <trkpt lat="48.42087" lon="2.6987">
        <ele>92.423950195312</ele>
        <time>2012-12-02T10:13:15Z</time>
      </trkpt>
      <trkpt lat="48.42083" lon="2.69888">
        <ele>92.423950195312</ele>
        <time>2012-12-02T10:13:23Z</time>
      </trkpt>
      <trkpt lat="48.4208" lon="2.69914">
        <ele>91.943237304688</ele>
        <time>2012-12-02T10:13:30Z</time>
      </trkpt>
      <trkpt lat="48.42074" lon="2.69933">
        <ele>91.462524414062</ele>
        <time>2012-12-02T10:13:35Z</time>
      </trkpt>
      <trkpt lat="48.42071" lon="2.69956">
        <ele>90.98193359375</ele>
        <time>2012-12-02T10:13:40Z</time>
      </trkpt>
      <trkpt lat="48.42067" lon="2.69981">
        <ele>91.462524414062</ele>
        <time>2012-12-02T10:13:46Z</time>
      </trkpt>
      <trkpt lat="48.42062" lon="2.70007">
        <ele>91.462524414062</ele>
        <time>2012-12-02T10:13:52Z</time>
      </trkpt>
      <trkpt lat="48.42055" lon="2.70036">
        <ele>90.501342773438</ele>
        <time>2012-12-02T10:13:58Z</time>
      </trkpt>
      <trkpt lat="48.42049" lon="2.70059">
        <ele>90.020629882812</ele>
        <time>2012-12-02T10:14:03Z</time>
      </trkpt>
      <trkpt lat="48.42041" lon="2.70089">
        <ele>90.020629882812</ele>
        <time>2012-12-02T10:14:09Z</time>
      </trkpt>
      <trkpt lat="48.42033" lon="2.70119">
        <ele>90.501342773438</ele>
        <time>2012-12-02T10:14:16Z</time>
      </trkpt>
      <trkpt lat="48.42029" lon="2.70139">
        <ele>90.501342773438</ele>
        <time>2012-12-02T10:14:22Z</time>
      </trkpt>
      <trkpt lat="48.42033" lon="2.70147">
        <ele>90.98193359375</ele>
        <time>2012-12-02T10:14:27Z</time>
      </trkpt>
      <trkpt lat="48.42044" lon="2.70149">
        <ele>93.865844726562</ele>
        <time>2012-12-02T10:14:34Z</time>
      </trkpt>
      <trkpt lat="48.42057" lon="2.70154">
        <ele>94.346557617188</ele>
        <time>2012-12-02T10:14:42Z</time>
      </trkpt>
      <trkpt lat="48.42064" lon="2.70159">
        <ele>95.307739257812</ele>
        <time>2012-12-02T10:14:48Z</time>
      </trkpt>
      <trkpt lat="48.4207" lon="2.70161">
        <ele>97.23046875</ele>
        <time>2012-12-02T10:14:52Z</time>
      </trkpt>
      <trkpt lat="48.42073" lon="2.70165">
        <ele>98.19189453125</ele>
        <time>2012-12-02T10:14:57Z</time>
      </trkpt>
      <trkpt lat="48.42081" lon="2.7017">
        <ele>100.59509277344</ele>
        <time>2012-12-02T10:15:06Z</time>
      </trkpt>
      <trkpt lat="48.42085" lon="2.70173">
        <ele>102.037109375</ele>
        <time>2012-12-02T10:15:09Z</time>
      </trkpt>
      <trkpt lat="48.42093" lon="2.70183">
        <ele>103.95971679688</ele>
        <time>2012-12-02T10:15:16Z</time>
      </trkpt>
      <trkpt lat="48.42096" lon="2.70193">
        <ele>104.4404296875</ele>
        <time>2012-12-02T10:15:22Z</time>
      </trkpt>
      <trkpt lat="48.42099" lon="2.70199">
        <ele>105.88244628906</ele>
        <time>2012-12-02T10:15:30Z</time>
      </trkpt>
      <trkpt lat="48.42098" lon="2.70198">
        <ele>104.4404296875</ele>
        <time>2012-12-02T10:15:37Z</time>
      </trkpt>
      <trkpt lat="48.42097" lon="2.70189">
        <ele>104.4404296875</ele>
        <time>2012-12-02T10:15:45Z</time>
      </trkpt>
      <trkpt lat="48.42099" lon="2.70187">
        <ele>104.4404296875</ele>
        <time>2012-12-02T10:15:52Z</time>
      </trkpt>
      <trkpt lat="48.421" lon="2.70187">
        <ele>104.4404296875</ele>
        <time>2012-12-02T10:16:07Z</time>
      </trkpt>
      <trkpt lat="48.421" lon="2.70183">
        <ele>104.4404296875</ele>
        <time>2012-12-02T10:16:14Z</time>
      </trkpt>
      <trkpt lat="48.42097" lon="2.70184">
        <ele>103.95971679688</ele>
        <time>2012-12-02T10:16:19Z</time>
      </trkpt>
      <trkpt lat="48.42095" lon="2.70189">
        <ele>104.4404296875</ele>
        <time>2012-12-02T10:16:28Z</time>
      </trkpt>
      <trkpt lat="48.42096" lon="2.70198">
        <ele>105.40173339844</ele>
        <time>2012-12-02T10:16:35Z</time>
      </trkpt>
      <trkpt lat="48.42097" lon="2.70203">
        <ele>104.92102050781</ele>
        <time>2012-12-02T10:16:42Z</time>
      </trkpt>
      <trkpt lat="48.42089" lon="2.702">
        <ele>102.037109375</ele>
        <time>2012-12-02T10:16:49Z</time>
      </trkpt>
      <trkpt lat="48.42083" lon="2.70199">
        <ele>101.07568359375</ele>
        <time>2012-12-02T10:16:54Z</time>
      </trkpt>
      <trkpt lat="48.42081" lon="2.70205">
        <ele>102.037109375</ele>
        <time>2012-12-02T10:17:00Z</time>
      </trkpt>
      <trkpt lat="48.42081" lon="2.70212">
        <ele>103.47900390625</ele>
        <time>2012-12-02T10:17:07Z</time>
      </trkpt>
      <trkpt lat="48.42083" lon="2.70216">
        <ele>104.4404296875</ele>
        <time>2012-12-02T10:17:12Z</time>
      </trkpt>
      <trkpt lat="48.42087" lon="2.70218">
        <ele>104.92102050781</ele>
        <time>2012-12-02T10:17:15Z</time>
      </trkpt>
      <trkpt lat="48.42096" lon="2.70218">
        <ele>105.88244628906</ele>
        <time>2012-12-02T10:17:22Z</time>
      </trkpt>
      <trkpt lat="48.42103" lon="2.70218">
        <ele>107.80505371094</ele>
        <time>2012-12-02T10:17:29Z</time>
      </trkpt>
      <trkpt lat="48.42105" lon="2.70218">
        <ele>107.80505371094</ele>
        <time>2012-12-02T10:17:34Z</time>
      </trkpt>
      <trkpt lat="48.42109" lon="2.70218">
        <ele>108.28564453125</ele>
        <time>2012-12-02T10:17:42Z</time>
      </trkpt>
      <trkpt lat="48.42113" lon="2.70214">
        <ele>109.24694824219</ele>
        <time>2012-12-02T10:17:50Z</time>
      </trkpt>
      <trkpt lat="48.42117" lon="2.70213">
        <ele>110.68884277344</ele>
        <time>2012-12-02T10:17:57Z</time>
      </trkpt>
      <trkpt lat="48.42116" lon="2.70218">
        <ele>110.68884277344</ele>
        <time>2012-12-02T10:18:06Z</time>
      </trkpt>
      <trkpt lat="48.42116" lon="2.70214">
        <ele>110.68884277344</ele>
        <time>2012-12-02T10:18:15Z</time>
      </trkpt>
      <trkpt lat="48.42119" lon="2.70213">
        <ele>110.68884277344</ele>
        <time>2012-12-02T10:18:22Z</time>
      </trkpt>
      <trkpt lat="48.42115" lon="2.7022">
        <ele>110.68884277344</ele>
        <time>2012-12-02T10:18:36Z</time>
      </trkpt>
      <trkpt lat="48.42115" lon="2.70222">
        <ele>110.68884277344</ele>
        <time>2012-12-02T10:18:45Z</time>
      </trkpt>
      <trkpt lat="48.42119" lon="2.70218">
        <ele>111.16955566406</ele>
        <time>2012-12-02T10:18:52Z</time>
      </trkpt>
      <trkpt lat="48.42125" lon="2.70213">
        <ele>111.65026855469</ele>
        <time>2012-12-02T10:18:58Z</time>
      </trkpt>
      <trkpt lat="48.42131" lon="2.70211">
        <ele>115.01489257812</ele>
        <time>2012-12-02T10:19:06Z</time>
      </trkpt>
      <trkpt lat="48.42134" lon="2.7021">
        <ele>116.45678710938</ele>
        <time>2012-12-02T10:19:11Z</time>
      </trkpt>
      <trkpt lat="48.42136" lon="2.70209">
        <ele>116.45678710938</ele>
        <time>2012-12-02T10:19:13Z</time>
      </trkpt>
      <trkpt lat="48.42143" lon="2.702">
        <ele>118.37939453125</ele>
        <time>2012-12-02T10:19:22Z</time>
      </trkpt>
      <trkpt lat="48.4215" lon="2.70197">
        <ele>120.30212402344</ele>
        <time>2012-12-02T10:19:31Z</time>
      </trkpt>
      <trkpt lat="48.42154" lon="2.70191">
        <ele>120.30212402344</ele>
        <time>2012-12-02T10:19:37Z</time>
      </trkpt>
      <trkpt lat="48.42155" lon="2.7019">
        <ele>120.30212402344</ele>
        <time>2012-12-02T10:19:44Z</time>
      </trkpt>
      <trkpt lat="48.42156" lon="2.7019">
        <ele>120.30212402344</ele>
        <time>2012-12-02T10:19:50Z</time>
      </trkpt>
      <trkpt lat="48.42159" lon="2.70191">
        <ele>120.78283691406</ele>
        <time>2012-12-02T10:19:53Z</time>
      </trkpt>
      <trkpt lat="48.42163" lon="2.70189">
        <ele>122.22473144531</ele>
        <time>2012-12-02T10:19:58Z</time>
      </trkpt>
      <trkpt lat="48.42163" lon="2.70196">
        <ele>122.70544433594</ele>
        <time>2012-12-02T10:20:03Z</time>
      </trkpt>
      <trkpt lat="48.42169" lon="2.70202">
        <ele>124.62805175781</ele>
        <time>2012-12-02T10:20:11Z</time>
      </trkpt>
      <trkpt lat="48.42174" lon="2.702">
        <ele>126.06994628906</ele>
        <time>2012-12-02T10:20:15Z</time>
      </trkpt>
      <trkpt lat="48.42181" lon="2.7021">
        <ele>126.55065917969</ele>
        <time>2012-12-02T10:20:22Z</time>
      </trkpt>
      <trkpt lat="48.42181" lon="2.7022">
        <ele>128.9541015625</ele>
        <time>2012-12-02T10:20:28Z</time>
      </trkpt>
      <trkpt lat="48.42183" lon="2.70234">
        <ele>129.91528320312</ele>
        <time>2012-12-02T10:20:36Z</time>
      </trkpt>
      <trkpt lat="48.42188" lon="2.70234">
        <ele>130.87670898438</ele>
        <time>2012-12-02T10:20:42Z</time>
      </trkpt>
      <trkpt lat="48.42188" lon="2.70234">
        <ele>130.39599609375</ele>
        <time>2012-12-02T10:20:50Z</time>
      </trkpt>
      <trkpt lat="48.42187" lon="2.7023">
        <ele>130.39599609375</ele>
        <time>2012-12-02T10:21:07Z</time>
      </trkpt>
      <trkpt lat="48.42184" lon="2.70236">
        <ele>129.91528320312</ele>
        <time>2012-12-02T10:21:14Z</time>
      </trkpt>
      <trkpt lat="48.42183" lon="2.70238">
        <ele>129.91528320312</ele>
        <time>2012-12-02T10:21:22Z</time>
      </trkpt>
      <trkpt lat="48.42187" lon="2.70233">
        <ele>130.39599609375</ele>
        <time>2012-12-02T10:21:28Z</time>
      </trkpt>
      <trkpt lat="48.42189" lon="2.70233">
        <ele>130.39599609375</ele>
        <time>2012-12-02T10:21:34Z</time>
      </trkpt>
      <trkpt lat="48.4219" lon="2.70236">
        <ele>130.39599609375</ele>
        <time>2012-12-02T10:21:40Z</time>
      </trkpt>
      <trkpt lat="48.4219" lon="2.70239">
        <ele>130.87670898438</ele>
        <time>2012-12-02T10:21:46Z</time>
      </trkpt>
      <trkpt lat="48.42188" lon="2.70241">
        <ele>130.87670898438</ele>
        <time>2012-12-02T10:21:53Z</time>
      </trkpt>
      <trkpt lat="48.42188" lon="2.7024">
        <ele>130.87670898438</ele>
        <time>2012-12-02T10:22:02Z</time>
      </trkpt>
      <trkpt lat="48.42188" lon="2.70246">
        <ele>132.31860351562</ele>
        <time>2012-12-02T10:22:08Z</time>
      </trkpt>
      <trkpt lat="48.42187" lon="2.70253">
        <ele>133.27990722656</ele>
        <time>2012-12-02T10:22:14Z</time>
      </trkpt>
      <trkpt lat="48.42187" lon="2.70259">
        <ele>133.27990722656</ele>
        <time>2012-12-02T10:22:21Z</time>
      </trkpt>
      <trkpt lat="48.42187" lon="2.70267">
        <ele>133.76049804688</ele>
        <time>2012-12-02T10:22:29Z</time>
      </trkpt>
      <trkpt lat="48.42189" lon="2.70275">
        <ele>133.76049804688</ele>
        <time>2012-12-02T10:22:38Z</time>
      </trkpt>
      <trkpt lat="48.42189" lon="2.70275">
        <ele>133.76049804688</ele>
        <time>2012-12-02T10:22:39Z</time>
      </trkpt>
      <trkpt lat="48.42193" lon="2.70279">
        <ele>133.27990722656</ele>
        <time>2012-12-02T10:22:46Z</time>
      </trkpt>
      <trkpt lat="48.42195" lon="2.7028">
        <ele>134.2412109375</ele>
        <time>2012-12-02T10:22:51Z</time>
      </trkpt>
      <trkpt lat="48.422" lon="2.7028">
        <ele>133.27990722656</ele>
        <time>2012-12-02T10:22:56Z</time>
      </trkpt>
      <trkpt lat="48.42207" lon="2.70286">
        <ele>133.27990722656</ele>
        <time>2012-12-02T10:23:01Z</time>
      </trkpt>
      <trkpt lat="48.42212" lon="2.70296">
        <ele>133.27990722656</ele>
        <time>2012-12-02T10:23:05Z</time>
      </trkpt>
      <trkpt lat="48.42208" lon="2.70304">
        <ele>132.79931640625</ele>
        <time>2012-12-02T10:23:10Z</time>
      </trkpt>
      <trkpt lat="48.42207" lon="2.70306">
        <ele>132.31860351562</ele>
        <time>2012-12-02T10:23:11Z</time>
      </trkpt>
      <trkpt lat="48.42205" lon="2.70311">
        <ele>131.837890625</ele>
        <time>2012-12-02T10:23:13Z</time>
      </trkpt>
      <trkpt lat="48.42205" lon="2.70323">
        <ele>130.39599609375</ele>
        <time>2012-12-02T10:23:17Z</time>
      </trkpt>
      <trkpt lat="48.42212" lon="2.70345">
        <ele>128.47338867188</ele>
        <time>2012-12-02T10:23:23Z</time>
      </trkpt>
      <trkpt lat="48.42212" lon="2.70359">
        <ele>128.47338867188</ele>
        <time>2012-12-02T10:23:27Z</time>
      </trkpt>
      <trkpt lat="48.42212" lon="2.70367">
        <ele>129.43469238281</ele>
        <time>2012-12-02T10:23:33Z</time>
      </trkpt>
      <trkpt lat="48.42213" lon="2.70373">
        <ele>129.43469238281</ele>
        <time>2012-12-02T10:23:40Z</time>
      </trkpt>
      <trkpt lat="48.42213" lon="2.70381">
        <ele>129.43469238281</ele>
        <time>2012-12-02T10:23:50Z</time>
      </trkpt>
      <trkpt lat="48.42213" lon="2.70391">
        <ele>128.9541015625</ele>
        <time>2012-12-02T10:23:54Z</time>
      </trkpt>
      <trkpt lat="48.42207" lon="2.70407">
        <ele>129.91528320312</ele>
        <time>2012-12-02T10:24:00Z</time>
      </trkpt>
      <trkpt lat="48.42199" lon="2.7042">
        <ele>130.87670898438</ele>
        <time>2012-12-02T10:24:04Z</time>
      </trkpt>
      <trkpt lat="48.42192" lon="2.70431">
        <ele>131.837890625</ele>
        <time>2012-12-02T10:24:08Z</time>
      </trkpt>
      <trkpt lat="48.42184" lon="2.70433">
        <ele>132.31860351562</ele>
        <time>2012-12-02T10:24:14Z</time>
      </trkpt>
      <trkpt lat="48.42181" lon="2.70435">
        <ele>132.31860351562</ele>
        <time>2012-12-02T10:24:20Z</time>
      </trkpt>
      <trkpt lat="48.42181" lon="2.70435">
        <ele>132.31860351562</ele>
        <time>2012-12-02T10:24:22Z</time>
      </trkpt>
      <trkpt lat="48.4218" lon="2.7045">
        <ele>130.87670898438</ele>
        <time>2012-12-02T10:24:27Z</time>
      </trkpt>
      <trkpt lat="48.42182" lon="2.70465">
        <ele>131.35729980469</ele>
        <time>2012-12-02T10:24:31Z</time>
      </trkpt>
      <trkpt lat="48.42178" lon="2.70469">
        <ele>130.87670898438</ele>
        <time>2012-12-02T10:24:36Z</time>
      </trkpt>
      <trkpt lat="48.42167" lon="2.70467">
        <ele>130.39599609375</ele>
        <time>2012-12-02T10:24:42Z</time>
      </trkpt>
      <trkpt lat="48.42154" lon="2.70473">
        <ele>129.43469238281</ele>
        <time>2012-12-02T10:24:47Z</time>
      </trkpt>
      <trkpt lat="48.42152" lon="2.70477">
        <ele>129.91528320312</ele>
        <time>2012-12-02T10:24:48Z</time>
      </trkpt>
      <trkpt lat="48.42145" lon="2.70501">
        <ele>129.91528320312</ele>
        <time>2012-12-02T10:24:53Z</time>
      </trkpt>
      <trkpt lat="48.42141" lon="2.70515">
        <ele>129.91528320312</ele>
        <time>2012-12-02T10:24:57Z</time>
      </trkpt>
      <trkpt lat="48.4214" lon="2.70516">
        <ele>130.39599609375</ele>
        <time>2012-12-02T10:25:05Z</time>
      </trkpt>
      <trkpt lat="48.42139" lon="2.70523">
        <ele>130.39599609375</ele>
        <time>2012-12-02T10:25:19Z</time>
      </trkpt>
      <trkpt lat="48.42142" lon="2.70527">
        <ele>130.87670898438</ele>
        <time>2012-12-02T10:25:24Z</time>
      </trkpt>
      <trkpt lat="48.42146" lon="2.70523">
        <ele>131.837890625</ele>
        <time>2012-12-02T10:25:27Z</time>
      </trkpt>
      <trkpt lat="48.42148" lon="2.70529">
        <ele>132.31860351562</ele>
        <time>2012-12-02T10:25:32Z</time>
      </trkpt>
      <trkpt lat="48.42151" lon="2.70534">
        <ele>132.79931640625</ele>
        <time>2012-12-02T10:25:36Z</time>
      </trkpt>
      <trkpt lat="48.42155" lon="2.70538">
        <ele>132.79931640625</ele>
        <time>2012-12-02T10:25:40Z</time>
      </trkpt>
      <trkpt lat="48.42158" lon="2.70552">
        <ele>133.27990722656</ele>
        <time>2012-12-02T10:25:44Z</time>
      </trkpt>
      <trkpt lat="48.42158" lon="2.70578">
        <ele>133.76049804688</ele>
        <time>2012-12-02T10:25:49Z</time>
      </trkpt>
      <trkpt lat="48.42158" lon="2.70582">
        <ele>133.76049804688</ele>
        <time>2012-12-02T10:25:50Z</time>
      </trkpt>
      <trkpt lat="48.42163" lon="2.70609">
        <ele>134.2412109375</ele>
        <time>2012-12-02T10:25:57Z</time>
      </trkpt>
      <trkpt lat="48.42167" lon="2.70627">
        <ele>134.2412109375</ele>
        <time>2012-12-02T10:26:02Z</time>
      </trkpt>
      <trkpt lat="48.42168" lon="2.70633">
        <ele>134.72192382812</ele>
        <time>2012-12-02T10:26:04Z</time>
      </trkpt>
      <trkpt lat="48.42166" lon="2.70654">
        <ele>133.76049804688</ele>
        <time>2012-12-02T10:26:10Z</time>
      </trkpt>
      <trkpt lat="48.42166" lon="2.70659">
        <ele>133.76049804688</ele>
        <time>2012-12-02T10:26:11Z</time>
      </trkpt>
      <trkpt lat="48.42176" lon="2.70672">
        <ele>133.27990722656</ele>
        <time>2012-12-02T10:26:16Z</time>
      </trkpt>
      <trkpt lat="48.42181" lon="2.70674">
        <ele>133.27990722656</ele>
        <time>2012-12-02T10:26:18Z</time>
      </trkpt>
      <trkpt lat="48.422" lon="2.70687">
        <ele>132.79931640625</ele>
        <time>2012-12-02T10:26:24Z</time>
      </trkpt>
      <trkpt lat="48.42203" lon="2.70694">
        <ele>133.76049804688</ele>
        <time>2012-12-02T10:26:26Z</time>
      </trkpt>
      <trkpt lat="48.42209" lon="2.7072">
        <ele>133.76049804688</ele>
        <time>2012-12-02T10:26:32Z</time>
      </trkpt>
      <trkpt lat="48.4221" lon="2.70726">
        <ele>132.79931640625</ele>
        <time>2012-12-02T10:26:33Z</time>
      </trkpt>
      <trkpt lat="48.42208" lon="2.70747">
        <ele>133.27990722656</ele>
        <time>2012-12-02T10:26:37Z</time>
      </trkpt>
      <trkpt lat="48.42206" lon="2.70751">
        <ele>132.79931640625</ele>
        <time>2012-12-02T10:26:38Z</time>
      </trkpt>
      <trkpt lat="48.42191" lon="2.7076">
        <ele>132.31860351562</ele>
        <time>2012-12-02T10:26:44Z</time>
      </trkpt>
      <trkpt lat="48.42188" lon="2.70767">
        <ele>132.31860351562</ele>
        <time>2012-12-02T10:26:48Z</time>
      </trkpt>
      <trkpt lat="48.42186" lon="2.70769">
        <ele>131.837890625</ele>
        <time>2012-12-02T10:26:55Z</time>
      </trkpt>
      <trkpt lat="48.42185" lon="2.70773">
        <ele>131.837890625</ele>
        <time>2012-12-02T10:27:00Z</time>
      </trkpt>
      <trkpt lat="48.42184" lon="2.70778">
        <ele>131.35729980469</ele>
        <time>2012-12-02T10:27:02Z</time>
      </trkpt>
      <trkpt lat="48.42181" lon="2.70792">
        <ele>129.91528320312</ele>
        <time>2012-12-02T10:27:08Z</time>
      </trkpt>
      <trkpt lat="48.42189" lon="2.70805">
        <ele>128.9541015625</ele>
        <time>2012-12-02T10:27:13Z</time>
      </trkpt>
      <trkpt lat="48.42192" lon="2.70822">
        <ele>128.9541015625</ele>
        <time>2012-12-02T10:27:17Z</time>
      </trkpt>
      <trkpt lat="48.42193" lon="2.70833">
        <ele>127.99255371094</ele>
        <time>2012-12-02T10:27:19Z</time>
      </trkpt>
      <trkpt lat="48.422" lon="2.70852">
        <ele>129.43469238281</ele>
        <time>2012-12-02T10:27:25Z</time>
      </trkpt>
      <trkpt lat="48.42213" lon="2.70863">
        <ele>129.43469238281</ele>
        <time>2012-12-02T10:27:31Z</time>
      </trkpt>
      <trkpt lat="48.42226" lon="2.70865">
        <ele>131.837890625</ele>
        <time>2012-12-02T10:27:36Z</time>
      </trkpt>
      <trkpt lat="48.42229" lon="2.70865">
        <ele>132.31860351562</ele>
        <time>2012-12-02T10:27:38Z</time>
      </trkpt>
      <trkpt lat="48.42236" lon="2.70864">
        <ele>133.27990722656</ele>
        <time>2012-12-02T10:27:42Z</time>
      </trkpt>
      <trkpt lat="48.42241" lon="2.70865">
        <ele>133.27990722656</ele>
        <time>2012-12-02T10:27:44Z</time>
      </trkpt>
      <trkpt lat="48.42249" lon="2.70858">
        <ele>133.27990722656</ele>
        <time>2012-12-02T10:27:51Z</time>
      </trkpt>
      <trkpt lat="48.4225" lon="2.70856">
        <ele>133.76049804688</ele>
        <time>2012-12-02T10:27:52Z</time>
      </trkpt>
      <trkpt lat="48.4226" lon="2.70852">
        <ele>134.72192382812</ele>
        <time>2012-12-02T10:27:59Z</time>
      </trkpt>
      <trkpt lat="48.42266" lon="2.70858">
        <ele>134.2412109375</ele>
        <time>2012-12-02T10:28:03Z</time>
      </trkpt>
      <trkpt lat="48.4227" lon="2.70861">
        <ele>134.2412109375</ele>
        <time>2012-12-02T10:28:05Z</time>
      </trkpt>
      <trkpt lat="48.42282" lon="2.70883">
        <ele>133.76049804688</ele>
        <time>2012-12-02T10:28:10Z</time>
      </trkpt>
      <trkpt lat="48.42294" lon="2.70905">
        <ele>133.76049804688</ele>
        <time>2012-12-02T10:28:15Z</time>
      </trkpt>
      <trkpt lat="48.42307" lon="2.70912">
        <ele>134.2412109375</ele>
        <time>2012-12-02T10:28:20Z</time>
      </trkpt>
      <trkpt lat="48.42327" lon="2.70908">
        <ele>135.20251464844</ele>
        <time>2012-12-02T10:28:26Z</time>
      </trkpt>
      <trkpt lat="48.42339" lon="2.70904">
        <ele>135.20251464844</ele>
        <time>2012-12-02T10:28:30Z</time>
      </trkpt>
      <trkpt lat="48.42355" lon="2.70899">
        <ele>135.68310546875</ele>
        <time>2012-12-02T10:28:35Z</time>
      </trkpt>
      <trkpt lat="48.42363" lon="2.70895">
        <ele>135.20251464844</ele>
        <time>2012-12-02T10:28:37Z</time>
      </trkpt>
      <trkpt lat="48.42382" lon="2.70878">
        <ele>135.68310546875</ele>
        <time>2012-12-02T10:28:43Z</time>
      </trkpt>
      <trkpt lat="48.42397" lon="2.70866">
        <ele>134.2412109375</ele>
        <time>2012-12-02T10:28:48Z</time>
      </trkpt>
      <trkpt lat="48.42402" lon="2.70865">
        <ele>134.72192382812</ele>
        <time>2012-12-02T10:28:51Z</time>
      </trkpt>
      <trkpt lat="48.42403" lon="2.70865">
        <ele>135.20251464844</ele>
        <time>2012-12-02T10:28:54Z</time>
      </trkpt>
      <trkpt lat="48.4241" lon="2.7086">
        <ele>135.68310546875</ele>
        <time>2012-12-02T10:28:59Z</time>
      </trkpt>
      <trkpt lat="48.42413" lon="2.70858">
        <ele>135.68310546875</ele>
        <time>2012-12-02T10:29:04Z</time>
      </trkpt>
      <trkpt lat="48.42419" lon="2.70853">
        <ele>136.64465332031</ele>
        <time>2012-12-02T10:29:09Z</time>
      </trkpt>
      <trkpt lat="48.42419" lon="2.70835">
        <ele>136.16394042969</ele>
        <time>2012-12-02T10:29:14Z</time>
      </trkpt>
      <trkpt lat="48.42416" lon="2.70826">
        <ele>136.16394042969</ele>
        <time>2012-12-02T10:29:17Z</time>
      </trkpt>
      <trkpt lat="48.42421" lon="2.70819">
        <ele>136.64465332031</ele>
        <time>2012-12-02T10:29:21Z</time>
      </trkpt>
      <trkpt lat="48.42422" lon="2.70821">
        <ele>137.12524414062</ele>
        <time>2012-12-02T10:29:22Z</time>
      </trkpt>
      <trkpt lat="48.42439" lon="2.7084">
        <ele>137.12524414062</ele>
        <time>2012-12-02T10:29:29Z</time>
      </trkpt>
      <trkpt lat="48.4246" lon="2.7086">
        <ele>138.08654785156</ele>
        <time>2012-12-02T10:29:37Z</time>
      </trkpt>
      <trkpt lat="48.42485" lon="2.70885">
        <ele>138.08654785156</ele>
        <time>2012-12-02T10:29:47Z</time>
      </trkpt>
      <trkpt lat="48.42498" lon="2.70898">
        <ele>138.56726074219</ele>
        <time>2012-12-02T10:29:52Z</time>
      </trkpt>
      <trkpt lat="48.42498" lon="2.70914">
        <ele>138.08654785156</ele>
        <time>2012-12-02T10:29:56Z</time>
      </trkpt>
      <trkpt lat="48.42492" lon="2.70939">
        <ele>138.56726074219</ele>
        <time>2012-12-02T10:30:02Z</time>
      </trkpt>
      <trkpt lat="48.4249" lon="2.70949">
        <ele>138.08654785156</ele>
        <time>2012-12-02T10:30:07Z</time>
      </trkpt>
      <trkpt lat="48.42484" lon="2.70962">
        <ele>138.08654785156</ele>
        <time>2012-12-02T10:30:13Z</time>
      </trkpt>
      <trkpt lat="48.4248" lon="2.70974">
        <ele>138.56726074219</ele>
        <time>2012-12-02T10:30:20Z</time>
      </trkpt>
      <trkpt lat="48.42477" lon="2.7098">
        <ele>138.56726074219</ele>
        <time>2012-12-02T10:30:26Z</time>
      </trkpt>
      <trkpt lat="48.42475" lon="2.70979">
        <ele>138.56726074219</ele>
        <time>2012-12-02T10:30:38Z</time>
      </trkpt>
      <trkpt lat="48.42476" lon="2.70981">
        <ele>138.08654785156</ele>
        <time>2012-12-02T10:30:48Z</time>
      </trkpt>
      <trkpt lat="48.42473" lon="2.70982">
        <ele>138.08654785156</ele>
        <time>2012-12-02T10:31:03Z</time>
      </trkpt>
      <trkpt lat="48.42474" lon="2.70979">
        <ele>137.60583496094</ele>
        <time>2012-12-02T10:31:09Z</time>
      </trkpt>
      <trkpt lat="48.42479" lon="2.70977">
        <ele>138.08654785156</ele>
        <time>2012-12-02T10:31:15Z</time>
      </trkpt>
      <trkpt lat="48.42488" lon="2.70993">
        <ele>139.0478515625</ele>
        <time>2012-12-02T10:31:22Z</time>
      </trkpt>
      <trkpt lat="48.42491" lon="2.70998">
        <ele>139.0478515625</ele>
        <time>2012-12-02T10:31:26Z</time>
      </trkpt>
      <trkpt lat="48.42502" lon="2.71002">
        <ele>135.20251464844</ele>
        <time>2012-12-02T10:31:31Z</time>
      </trkpt>
      <trkpt lat="48.42506" lon="2.71005">
        <ele>134.72192382812</ele>
        <time>2012-12-02T10:31:32Z</time>
      </trkpt>
      <trkpt lat="48.42521" lon="2.71017">
        <ele>134.72192382812</ele>
        <time>2012-12-02T10:31:35Z</time>
      </trkpt>
      <trkpt lat="48.42538" lon="2.71041">
        <ele>134.2412109375</ele>
        <time>2012-12-02T10:31:40Z</time>
      </trkpt>
      <trkpt lat="48.42541" lon="2.71062">
        <ele>134.2412109375</ele>
        <time>2012-12-02T10:31:44Z</time>
      </trkpt>
      <trkpt lat="48.42543" lon="2.71084">
        <ele>134.2412109375</ele>
        <time>2012-12-02T10:31:49Z</time>
      </trkpt>
      <trkpt lat="48.42542" lon="2.711">
        <ele>133.76049804688</ele>
        <time>2012-12-02T10:31:52Z</time>
      </trkpt>
      <trkpt lat="48.42532" lon="2.7112">
        <ele>134.2412109375</ele>
        <time>2012-12-02T10:31:57Z</time>
      </trkpt>
      <trkpt lat="48.42532" lon="2.71141">
        <ele>134.2412109375</ele>
        <time>2012-12-02T10:32:01Z</time>
      </trkpt>
      <trkpt lat="48.42533" lon="2.71153">
        <ele>134.72192382812</ele>
        <time>2012-12-02T10:32:05Z</time>
      </trkpt>
      <trkpt lat="48.42534" lon="2.71163">
        <ele>134.2412109375</ele>
        <time>2012-12-02T10:32:10Z</time>
      </trkpt>
      <trkpt lat="48.42533" lon="2.7118">
        <ele>134.2412109375</ele>
        <time>2012-12-02T10:32:13Z</time>
      </trkpt>
      <trkpt lat="48.42532" lon="2.71197">
        <ele>135.68310546875</ele>
        <time>2012-12-02T10:32:16Z</time>
      </trkpt>
      <trkpt lat="48.42529" lon="2.71216">
        <ele>137.60583496094</ele>
        <time>2012-12-02T10:32:20Z</time>
      </trkpt>
      <trkpt lat="48.42524" lon="2.7124">
        <ele>137.12524414062</ele>
        <time>2012-12-02T10:32:25Z</time>
      </trkpt>
      <trkpt lat="48.42519" lon="2.71261">
        <ele>137.12524414062</ele>
        <time>2012-12-02T10:32:29Z</time>
      </trkpt>
      <trkpt lat="48.42515" lon="2.7127">
        <ele>138.08654785156</ele>
        <time>2012-12-02T10:32:33Z</time>
      </trkpt>
      <trkpt lat="48.42509" lon="2.71286">
        <ele>139.52844238281</ele>
        <time>2012-12-02T10:32:37Z</time>
      </trkpt>
      <trkpt lat="48.42505" lon="2.71307">
        <ele>139.0478515625</ele>
        <time>2012-12-02T10:32:42Z</time>
      </trkpt>
      <trkpt lat="48.42503" lon="2.71319">
        <ele>136.64465332031</ele>
        <time>2012-12-02T10:32:45Z</time>
      </trkpt>
      <trkpt lat="48.425" lon="2.7134">
        <ele>140.48986816406</ele>
        <time>2012-12-02T10:32:49Z</time>
      </trkpt>
      <trkpt lat="48.42497" lon="2.71348">
        <ele>140.48986816406</ele>
        <time>2012-12-02T10:32:56Z</time>
      </trkpt>
      <trkpt lat="48.42497" lon="2.71347">
        <ele>140.97045898438</ele>
        <time>2012-12-02T10:33:01Z</time>
      </trkpt>
      <trkpt lat="48.42489" lon="2.71347">
        <ele>141.45104980469</ele>
        <time>2012-12-02T10:33:06Z</time>
      </trkpt>
      <trkpt lat="48.42476" lon="2.71346">
        <ele>142.41247558594</ele>
        <time>2012-12-02T10:33:13Z</time>
      </trkpt>
      <trkpt lat="48.4247" lon="2.71354">
        <ele>138.08654785156</ele>
        <time>2012-12-02T10:33:17Z</time>
      </trkpt>
      <trkpt lat="48.42462" lon="2.7138">
        <ele>141.45104980469</ele>
        <time>2012-12-02T10:33:21Z</time>
      </trkpt>
      <trkpt lat="48.42462" lon="2.71385">
        <ele>142.89306640625</ele>
        <time>2012-12-02T10:33:24Z</time>
      </trkpt>
      <trkpt lat="48.42447" lon="2.71399">
        <ele>142.89306640625</ele>
        <time>2012-12-02T10:33:31Z</time>
      </trkpt>
      <trkpt lat="48.42436" lon="2.714">
        <ele>142.89306640625</ele>
        <time>2012-12-02T10:33:36Z</time>
      </trkpt>
      <trkpt lat="48.42434" lon="2.71399">
        <ele>141.93176269531</ele>
        <time>2012-12-02T10:33:37Z</time>
      </trkpt>
      <trkpt lat="48.42427" lon="2.71399">
        <ele>139.0478515625</ele>
        <time>2012-12-02T10:33:39Z</time>
      </trkpt>
      <trkpt lat="48.42419" lon="2.71404">
        <ele>142.41247558594</ele>
        <time>2012-12-02T10:33:41Z</time>
      </trkpt>
      <trkpt lat="48.42413" lon="2.71409">
        <ele>142.89306640625</ele>
        <time>2012-12-02T10:33:43Z</time>
      </trkpt>
      <trkpt lat="48.42411" lon="2.71417">
        <ele>143.37365722656</ele>
        <time>2012-12-02T10:33:47Z</time>
      </trkpt>
      <trkpt lat="48.42414" lon="2.7143">
        <ele>143.37365722656</ele>
        <time>2012-12-02T10:33:53Z</time>
      </trkpt>
      <trkpt lat="48.42415" lon="2.71433">
        <ele>143.37365722656</ele>
        <time>2012-12-02T10:33:55Z</time>
      </trkpt>
      <trkpt lat="48.42414" lon="2.71442">
        <ele>141.93176269531</ele>
        <time>2012-12-02T10:33:58Z</time>
      </trkpt>
      <trkpt lat="48.42406" lon="2.71463">
        <ele>137.12524414062</ele>
        <time>2012-12-02T10:34:02Z</time>
      </trkpt>
      <trkpt lat="48.42403" lon="2.71473">
        <ele>137.12524414062</ele>
        <time>2012-12-02T10:34:04Z</time>
      </trkpt>
      <trkpt lat="48.42403" lon="2.71481">
        <ele>137.12524414062</ele>
        <time>2012-12-02T10:34:09Z</time>
      </trkpt>
      <trkpt lat="48.42398" lon="2.71486">
        <ele>137.60583496094</ele>
        <time>2012-12-02T10:34:16Z</time>
      </trkpt>
      <trkpt lat="48.42399" lon="2.71484">
        <ele>137.60583496094</ele>
        <time>2012-12-02T10:34:21Z</time>
      </trkpt>
      <trkpt lat="48.424" lon="2.71483">
        <ele>137.60583496094</ele>
        <time>2012-12-02T10:34:22Z</time>
      </trkpt>
      <trkpt lat="48.42405" lon="2.7147">
        <ele>138.08654785156</ele>
        <time>2012-12-02T10:34:27Z</time>
      </trkpt>
      <trkpt lat="48.42406" lon="2.71461">
        <ele>139.0478515625</ele>
        <time>2012-12-02T10:34:33Z</time>
      </trkpt>
      <trkpt lat="48.42403" lon="2.71462">
        <ele>138.56726074219</ele>
        <time>2012-12-02T10:34:38Z</time>
      </trkpt>
      <trkpt lat="48.42402" lon="2.71465">
        <ele>136.64465332031</ele>
        <time>2012-12-02T10:34:40Z</time>
      </trkpt>
      <trkpt lat="48.42403" lon="2.71485">
        <ele>137.12524414062</ele>
        <time>2012-12-02T10:34:45Z</time>
      </trkpt>
      <trkpt lat="48.42403" lon="2.71516">
        <ele>138.56726074219</ele>
        <time>2012-12-02T10:34:49Z</time>
      </trkpt>
      <trkpt lat="48.42403" lon="2.71518">
        <ele>139.0478515625</ele>
        <time>2012-12-02T10:34:50Z</time>
      </trkpt>
      <trkpt lat="48.42404" lon="2.71514">
        <ele>136.16394042969</ele>
        <time>2012-12-02T10:34:53Z</time>
      </trkpt>
      <trkpt lat="48.42404" lon="2.71514">
        <ele>135.20251464844</ele>
        <time>2012-12-02T10:34:57Z</time>
      </trkpt>
      <trkpt lat="48.42402" lon="2.71512">
        <ele>135.68310546875</ele>
        <time>2012-12-02T10:35:04Z</time>
      </trkpt>
      <trkpt lat="48.42405" lon="2.71509">
        <ele>135.68310546875</ele>
        <time>2012-12-02T10:35:11Z</time>
      </trkpt>
      <trkpt lat="48.42404" lon="2.71503">
        <ele>135.68310546875</ele>
        <time>2012-12-02T10:35:23Z</time>
      </trkpt>
      <trkpt lat="48.42403" lon="2.71498">
        <ele>136.16394042969</ele>
        <time>2012-12-02T10:35:26Z</time>
      </trkpt>
      <trkpt lat="48.42404" lon="2.71485">
        <ele>137.12524414062</ele>
        <time>2012-12-02T10:35:34Z</time>
      </trkpt>
      <trkpt lat="48.42403" lon="2.7147">
        <ele>137.12524414062</ele>
        <time>2012-12-02T10:35:43Z</time>
      </trkpt>
      <trkpt lat="48.42405" lon="2.7147">
        <ele>136.64465332031</ele>
        <time>2012-12-02T10:35:49Z</time>
      </trkpt>
      <trkpt lat="48.42404" lon="2.71467">
        <ele>136.16394042969</ele>
        <time>2012-12-02T10:36:53Z</time>
      </trkpt>
      <trkpt lat="48.42405" lon="2.71468">
        <ele>136.64465332031</ele>
        <time>2012-12-02T10:37:10Z</time>
      </trkpt>
      <trkpt lat="48.42405" lon="2.71468">
        <ele>136.16394042969</ele>
        <time>2012-12-02T10:37:28Z</time>
      </trkpt>
      <trkpt lat="48.42403" lon="2.71469">
        <ele>137.12524414062</ele>
        <time>2012-12-02T10:38:04Z</time>
      </trkpt>
      <trkpt lat="48.42404" lon="2.7147">
        <ele>137.12524414062</ele>
        <time>2012-12-02T10:38:06Z</time>
      </trkpt>
      <trkpt lat="48.42408" lon="2.71477">
        <ele>137.60583496094</ele>
        <time>2012-12-02T10:38:11Z</time>
      </trkpt>
      <trkpt lat="48.42409" lon="2.7148">
        <ele>137.60583496094</ele>
        <time>2012-12-02T10:38:19Z</time>
      </trkpt>
      <trkpt lat="48.42409" lon="2.71481">
        <ele>137.60583496094</ele>
        <time>2012-12-02T10:38:20Z</time>
      </trkpt>
      <trkpt lat="48.4241" lon="2.71488">
        <ele>137.60583496094</ele>
        <time>2012-12-02T10:38:24Z</time>
      </trkpt>
      <trkpt lat="48.42418" lon="2.71494">
        <ele>140.97045898438</ele>
        <time>2012-12-02T10:38:30Z</time>
      </trkpt>
      <trkpt lat="48.42419" lon="2.71495">
        <ele>141.45104980469</ele>
        <time>2012-12-02T10:38:31Z</time>
      </trkpt>
      <trkpt lat="48.42419" lon="2.71499">
        <ele>141.93176269531</ele>
        <time>2012-12-02T10:38:34Z</time>
      </trkpt>
      <trkpt lat="48.42414" lon="2.71502">
        <ele>140.97045898438</ele>
        <time>2012-12-02T10:38:39Z</time>
      </trkpt>
      <trkpt lat="48.42412" lon="2.71507">
        <ele>139.52844238281</ele>
        <time>2012-12-02T10:38:43Z</time>
      </trkpt>
      <trkpt lat="48.42412" lon="2.71522">
        <ele>140.00915527344</ele>
        <time>2012-12-02T10:38:48Z</time>
      </trkpt>
      <trkpt lat="48.42411" lon="2.71524">
        <ele>141.45104980469</ele>
        <time>2012-12-02T10:38:49Z</time>
      </trkpt>
      <trkpt lat="48.42405" lon="2.71528">
        <ele>141.93176269531</ele>
        <time>2012-12-02T10:38:55Z</time>
      </trkpt>
      <trkpt lat="48.42404" lon="2.71527">
        <ele>142.89306640625</ele>
        <time>2012-12-02T10:38:56Z</time>
      </trkpt>
      <trkpt lat="48.42398" lon="2.7152">
        <ele>141.93176269531</ele>
        <time>2012-12-02T10:39:03Z</time>
      </trkpt>
      <trkpt lat="48.42395" lon="2.7152">
        <ele>141.93176269531</ele>
        <time>2012-12-02T10:39:10Z</time>
      </trkpt>
      <trkpt lat="48.42392" lon="2.71521">
        <ele>141.45104980469</ele>
        <time>2012-12-02T10:39:18Z</time>
      </trkpt>
      <trkpt lat="48.42393" lon="2.71523">
        <ele>140.97045898438</ele>
        <time>2012-12-02T10:39:31Z</time>
      </trkpt>
      <trkpt lat="48.42394" lon="2.71529">
        <ele>141.45104980469</ele>
        <time>2012-12-02T10:39:58Z</time>
      </trkpt>
      <trkpt lat="48.42389" lon="2.71526">
        <ele>140.97045898438</ele>
        <time>2012-12-02T10:40:18Z</time>
      </trkpt>
      <trkpt lat="48.4239" lon="2.71526">
        <ele>140.48986816406</ele>
        <time>2012-12-02T10:40:37Z</time>
      </trkpt>
      <trkpt lat="48.42388" lon="2.71529">
        <ele>139.52844238281</ele>
        <time>2012-12-02T10:41:06Z</time>
      </trkpt>
      <trkpt lat="48.42386" lon="2.71525">
        <ele>140.00915527344</ele>
        <time>2012-12-02T10:41:32Z</time>
      </trkpt>
      <trkpt lat="48.42389" lon="2.71524">
        <ele>139.52844238281</ele>
        <time>2012-12-02T10:41:55Z</time>
      </trkpt>
      <trkpt lat="48.4239" lon="2.71522">
        <ele>140.48986816406</ele>
        <time>2012-12-02T10:42:06Z</time>
      </trkpt>
      <trkpt lat="48.42386" lon="2.71519">
        <ele>140.48986816406</ele>
        <time>2012-12-02T10:42:23Z</time>
      </trkpt>
      <trkpt lat="48.42387" lon="2.71521">
        <ele>140.97045898438</ele>
        <time>2012-12-02T10:42:36Z</time>
      </trkpt>
      <trkpt lat="48.4239" lon="2.71523">
        <ele>140.00915527344</ele>
        <time>2012-12-02T10:42:49Z</time>
      </trkpt>
      <trkpt lat="48.42396" lon="2.71529">
        <ele>141.93176269531</ele>
        <time>2012-12-02T10:43:19Z</time>
      </trkpt>
      <trkpt lat="48.42397" lon="2.71528">
        <ele>140.97045898438</ele>
        <time>2012-12-02T10:43:52Z</time>
      </trkpt>
      <trkpt lat="48.42397" lon="2.7153">
        <ele>140.97045898438</ele>
        <time>2012-12-02T10:44:03Z</time>
      </trkpt>
      <trkpt lat="48.42397" lon="2.71529">
        <ele>142.89306640625</ele>
        <time>2012-12-02T10:44:15Z</time>
      </trkpt>
      <trkpt lat="48.42395" lon="2.71526">
        <ele>141.93176269531</ele>
        <time>2012-12-02T10:44:42Z</time>
      </trkpt>
      <trkpt lat="48.42396" lon="2.71526">
        <ele>141.45104980469</ele>
        <time>2012-12-02T10:45:06Z</time>
      </trkpt>
      <trkpt lat="48.424" lon="2.71528">
        <ele>141.45104980469</ele>
        <time>2012-12-02T10:45:26Z</time>
      </trkpt>
      <trkpt lat="48.424" lon="2.71525">
        <ele>142.41247558594</ele>
        <time>2012-12-02T10:45:40Z</time>
      </trkpt>
      <trkpt lat="48.42402" lon="2.71523">
        <ele>143.37365722656</ele>
        <time>2012-12-02T10:45:57Z</time>
      </trkpt>
      <trkpt lat="48.42403" lon="2.71523">
        <ele>142.89306640625</ele>
        <time>2012-12-02T10:46:07Z</time>
      </trkpt>
      <trkpt lat="48.42403" lon="2.71524">
        <ele>143.37365722656</ele>
        <time>2012-12-02T10:46:19Z</time>
      </trkpt>
      <trkpt lat="48.42401" lon="2.71523">
        <ele>142.89306640625</ele>
        <time>2012-12-02T10:46:36Z</time>
      </trkpt>
      <trkpt lat="48.42399" lon="2.71523">
        <ele>142.89306640625</ele>
        <time>2012-12-02T10:47:06Z</time>
      </trkpt>
      <trkpt lat="48.424" lon="2.71522">
        <ele>144.33520507812</ele>
        <time>2012-12-02T10:47:28Z</time>
      </trkpt>
      <trkpt lat="48.42402" lon="2.71521">
        <ele>144.33520507812</ele>
        <time>2012-12-02T10:47:33Z</time>
      </trkpt>
      <trkpt lat="48.4241" lon="2.71533">
        <ele>144.33520507812</ele>
        <time>2012-12-02T10:47:40Z</time>
      </trkpt>
      <trkpt lat="48.42413" lon="2.71542">
        <ele>144.81579589844</ele>
        <time>2012-12-02T10:47:45Z</time>
      </trkpt>
      <trkpt lat="48.42418" lon="2.71563">
        <ele>145.29638671875</ele>
        <time>2012-12-02T10:47:52Z</time>
      </trkpt>
      <trkpt lat="48.42422" lon="2.71581">
        <ele>145.77709960938</ele>
        <time>2012-12-02T10:47:57Z</time>
      </trkpt>
      <trkpt lat="48.42421" lon="2.71596">
        <ele>145.29638671875</ele>
        <time>2012-12-02T10:48:01Z</time>
      </trkpt>
      <trkpt lat="48.42399" lon="2.71634">
        <ele>145.29638671875</ele>
        <time>2012-12-02T10:48:10Z</time>
      </trkpt>
      <trkpt lat="48.42382" lon="2.71653">
        <ele>144.81579589844</ele>
        <time>2012-12-02T10:48:16Z</time>
      </trkpt>
      <trkpt lat="48.42365" lon="2.71647">
        <ele>144.33520507812</ele>
        <time>2012-12-02T10:48:21Z</time>
      </trkpt>
      <trkpt lat="48.42342" lon="2.71638">
        <ele>143.85437011719</ele>
        <time>2012-12-02T10:48:27Z</time>
      </trkpt>
      <trkpt lat="48.42318" lon="2.71629">
        <ele>143.85437011719</ele>
        <time>2012-12-02T10:48:33Z</time>
      </trkpt>
      <trkpt lat="48.42291" lon="2.71618">
        <ele>143.85437011719</ele>
        <time>2012-12-02T10:48:40Z</time>
      </trkpt>
      <trkpt lat="48.42254" lon="2.71601">
        <ele>142.89306640625</ele>
        <time>2012-12-02T10:48:49Z</time>
      </trkpt>
      <trkpt lat="48.42225" lon="2.71587">
        <ele>141.93176269531</ele>
        <time>2012-12-02T10:48:56Z</time>
      </trkpt>
      <trkpt lat="48.42198" lon="2.71576">
        <ele>142.41247558594</ele>
        <time>2012-12-02T10:49:02Z</time>
      </trkpt>
      <trkpt lat="48.42169" lon="2.71562">
        <ele>142.41247558594</ele>
        <time>2012-12-02T10:49:09Z</time>
      </trkpt>
      <trkpt lat="48.42142" lon="2.7155">
        <ele>142.41247558594</ele>
        <time>2012-12-02T10:49:16Z</time>
      </trkpt>
      <trkpt lat="48.42121" lon="2.71541">
        <ele>141.45104980469</ele>
        <time>2012-12-02T10:49:21Z</time>
      </trkpt>
      <trkpt lat="48.42109" lon="2.71537">
        <ele>141.45104980469</ele>
        <time>2012-12-02T10:49:24Z</time>
      </trkpt>
      <trkpt lat="48.4208" lon="2.71523">
        <ele>142.41247558594</ele>
        <time>2012-12-02T10:49:31Z</time>
      </trkpt>
      <trkpt lat="48.42051" lon="2.71509">
        <ele>140.97045898438</ele>
        <time>2012-12-02T10:49:38Z</time>
      </trkpt>
      <trkpt lat="48.42042" lon="2.71509">
        <ele>140.48986816406</ele>
        <time>2012-12-02T10:49:41Z</time>
      </trkpt>
      <trkpt lat="48.42032" lon="2.71529">
        <ele>139.0478515625</ele>
        <time>2012-12-02T10:49:47Z</time>
      </trkpt>
      <trkpt lat="48.4202" lon="2.71543">
        <ele>134.2412109375</ele>
        <time>2012-12-02T10:49:51Z</time>
      </trkpt>
      <trkpt lat="48.42013" lon="2.71553">
        <ele>132.79931640625</ele>
        <time>2012-12-02T10:49:53Z</time>
      </trkpt>
      <trkpt lat="48.42001" lon="2.71582">
        <ele>128.47338867188</ele>
        <time>2012-12-02T10:49:58Z</time>
      </trkpt>
      <trkpt lat="48.42006" lon="2.71605">
        <ele>125.10876464844</ele>
        <time>2012-12-02T10:50:02Z</time>
      </trkpt>
      <trkpt lat="48.42009" lon="2.7161">
        <ele>125.10876464844</ele>
        <time>2012-12-02T10:50:03Z</time>
      </trkpt>
      <trkpt lat="48.42023" lon="2.71637">
        <ele>121.744140625</ele>
        <time>2012-12-02T10:50:07Z</time>
      </trkpt>
      <trkpt lat="48.42021" lon="2.71649">
        <ele>118.37939453125</ele>
        <time>2012-12-02T10:50:10Z</time>
      </trkpt>
      <trkpt lat="48.42012" lon="2.71659">
        <ele>115.01489257812</ele>
        <time>2012-12-02T10:50:13Z</time>
      </trkpt>
      <trkpt lat="48.42005" lon="2.7166">
        <ele>114.05358886719</ele>
        <time>2012-12-02T10:50:15Z</time>
      </trkpt>
      <trkpt lat="48.41994" lon="2.7166">
        <ele>113.57299804688</ele>
        <time>2012-12-02T10:50:17Z</time>
      </trkpt>
      <trkpt lat="48.41968" lon="2.71669">
        <ele>111.16955566406</ele>
        <time>2012-12-02T10:50:21Z</time>
      </trkpt>
      <trkpt lat="48.41953" lon="2.71684">
        <ele>108.28564453125</ele>
        <time>2012-12-02T10:50:24Z</time>
      </trkpt>
      <trkpt lat="48.41943" lon="2.71692">
        <ele>107.32434082031</ele>
        <time>2012-12-02T10:50:26Z</time>
      </trkpt>
      <trkpt lat="48.41931" lon="2.71697">
        <ele>104.4404296875</ele>
        <time>2012-12-02T10:50:29Z</time>
      </trkpt>
      <trkpt lat="48.41918" lon="2.71696">
        <ele>102.99829101562</ele>
        <time>2012-12-02T10:50:32Z</time>
      </trkpt>
      <trkpt lat="48.41908" lon="2.71695">
        <ele>102.51770019531</ele>
        <time>2012-12-02T10:50:34Z</time>
      </trkpt>
      <trkpt lat="48.41883" lon="2.71692">
        <ele>99.153076171875</ele>
        <time>2012-12-02T10:50:38Z</time>
      </trkpt>
      <trkpt lat="48.41865" lon="2.71693">
        <ele>97.23046875</ele>
        <time>2012-12-02T10:50:42Z</time>
      </trkpt>
      <trkpt lat="48.41859" lon="2.71699">
        <ele>97.23046875</ele>
        <time>2012-12-02T10:50:44Z</time>
      </trkpt>
      <trkpt lat="48.41855" lon="2.71711">
        <ele>97.23046875</ele>
        <time>2012-12-02T10:50:46Z</time>
      </trkpt>
      <trkpt lat="48.41845" lon="2.71733">
        <ele>93.385131835938</ele>
        <time>2012-12-02T10:50:49Z</time>
      </trkpt>
      <trkpt lat="48.41835" lon="2.7175">
        <ele>93.865844726562</ele>
        <time>2012-12-02T10:50:51Z</time>
      </trkpt>
      <trkpt lat="48.41819" lon="2.71786">
        <ele>91.943237304688</ele>
        <time>2012-12-02T10:50:55Z</time>
      </trkpt>
      <trkpt lat="48.41804" lon="2.71805">
        <ele>90.98193359375</ele>
        <time>2012-12-02T10:50:58Z</time>
      </trkpt>
      <trkpt lat="48.41798" lon="2.7181">
        <ele>90.501342773438</ele>
        <time>2012-12-02T10:50:59Z</time>
      </trkpt>
      <trkpt lat="48.41786" lon="2.71818">
        <ele>90.020629882812</ele>
        <time>2012-12-02T10:51:01Z</time>
      </trkpt>
      <trkpt lat="48.41772" lon="2.71828">
        <ele>89.059326171875</ele>
        <time>2012-12-02T10:51:03Z</time>
      </trkpt>
      <trkpt lat="48.41753" lon="2.7184">
        <ele>89.059326171875</ele>
        <time>2012-12-02T10:51:06Z</time>
      </trkpt>
      <trkpt lat="48.41733" lon="2.71856">
        <ele>87.6171875</ele>
        <time>2012-12-02T10:51:10Z</time>
      </trkpt>
      <trkpt lat="48.41719" lon="2.7187">
        <ele>86.656005859375</ele>
        <time>2012-12-02T10:51:14Z</time>
      </trkpt>
      <trkpt lat="48.41711" lon="2.71888">
        <ele>87.136596679688</ele>
        <time>2012-12-02T10:51:19Z</time>
      </trkpt>
      <trkpt lat="48.41694" lon="2.71907">
        <ele>86.656005859375</ele>
        <time>2012-12-02T10:51:25Z</time>
      </trkpt>
      <trkpt lat="48.41681" lon="2.71918">
        <ele>85.694580078125</ele>
        <time>2012-12-02T10:51:30Z</time>
      </trkpt>
      <trkpt lat="48.41658" lon="2.71937">
        <ele>84.7333984375</ele>
        <time>2012-12-02T10:51:36Z</time>
      </trkpt>
      <trkpt lat="48.41651" lon="2.7194">
        <ele>83.77197265625</ele>
        <time>2012-12-02T10:51:38Z</time>
      </trkpt>
      <trkpt lat="48.41642" lon="2.71921">
        <ele>84.7333984375</ele>
        <time>2012-12-02T10:51:43Z</time>
      </trkpt>
      <trkpt lat="48.41641" lon="2.71917">
        <ele>83.77197265625</ele>
        <time>2012-12-02T10:51:44Z</time>
      </trkpt>
      <trkpt lat="48.41641" lon="2.7191">
        <ele>83.77197265625</ele>
        <time>2012-12-02T10:51:49Z</time>
      </trkpt>
      <trkpt lat="48.41642" lon="2.7191">
        <ele>84.252685546875</ele>
        <time>2012-12-02T10:51:54Z</time>
      </trkpt>
      <trkpt lat="48.41642" lon="2.7191">
        <ele>84.7333984375</ele>
        <time>2012-12-02T10:52:05Z</time>
      </trkpt>
      <trkpt lat="48.41641" lon="2.71912">
        <ele>83.291381835938</ele>
        <time>2012-12-02T10:52:16Z</time>
      </trkpt>
      <trkpt lat="48.41641" lon="2.71908">
        <ele>83.291381835938</ele>
        <time>2012-12-02T10:52:23Z</time>
      </trkpt>
      <trkpt lat="48.41641" lon="2.71908">
        <ele>84.252685546875</ele>
        <time>2012-12-02T10:52:25Z</time>
      </trkpt>
      <trkpt lat="48.41642" lon="2.7191">
        <ele>84.252685546875</ele>
        <time>2012-12-02T10:52:31Z</time>
      </trkpt>
      <trkpt lat="48.41643" lon="2.71911">
        <ele>84.7333984375</ele>
        <time>2012-12-02T10:52:34Z</time>
      </trkpt>
    </trkseg>
  </trk>
</gpx>